[[{"header":{"parameterUnit":"m.s-1","parameterCategory":1,"la1":30.6,"la2":28.766,"lo1":-90.7593,"lo2":-88.6598,"dy":0.0162,"dx":0.0183,"nx":116,"ny":114,"refTime":"2024-05-02T12:00:00:Z","depth":0,"parameterNumber":2,"parameterNumberName":"U-component_of_WINDS"},"data":[0.0,0.0,0.0,0.0,0.0,0.0,0.0,0.0,0.0,0.0,0.0,0.0,0.0,0.0,0.0,0.0,0.0,0.0,0.0,0.0,0.0,0.0,0.0,0.0,0.0,0.0,0.0,0.0,0.0,0.0,0.0,0.0,0.0,0.0,0.0,0.0,0.0,0.0,0.0,0.0,0.0,0.0,0.0,0.0,0.0,0.0,0.0,0.0,0.0,0.0,0.0,0.0,0.0,0.0,0.0,0.0,0.0,0.0,0.0,0.0,0.0,0.0,0.0,0.0,0.0,0.0,0.0,0.0,0.0,0.0,0.0,0.0,0.0,0.0,0.0,0.0,0.0,0.0,0.0,0.0,0.0,0.0,0.0,0.0,0.0,0.0,0.0,0.0,0.0,0.0,0.0,0.0,0.0,0.0,0.0,0.0,0.0,0.0,0.0,0.0,0.0,0.0,0.0,0.0,0.0,0.0,0.0,0.0,0.0,0.0,0.0,0.0,0.0,0.0,0.0,0.0,0.0,0.0,0.0,0.0,0.0,0.0,0.0,0.0,0.0,0.0,0.0,0.0,0.0,0.0,0.0,0.0,0.0,0.0,0.0,0.0,0.0,0.0,0.0,0.0,0.0,0.0,0.0,0.0,0.0,0.0,0.0,0.0,0.0,0.0,0.0,0.0,0.0,0.0,0.0,0.0,0.0,0.0,0.0,0.0,0.0,0.0,0.0,0.0,0.0,0.0,0.0,0.0,0.0,0.0,0.0,0.0,0.0,0.0,0.0,0.0,0.0,0.0,0.0,0.0,0.0,0.0,0.0,0.0,0.0,0.0,0.0,0.0,0.0,0.0,0.0,0.0,0.0,0.0,0.0,0.0,0.0,0.0,0.0,0.0,0.0,0.0,0.0,0.0,0.0,0.0,0.0,0.0,0.0,0.0,0.0,0.0,0.0,0.0,0.0,0.0,0.0,0.0,0.0,0.0,0.0,0.0,0.0,0.0,0.0,0.0,0.0,0.0,0.0,0.0,0.0,0.0,0.0,0.0,0.0,0.0,0.0,0.0,0.0,0.0,0.0,0.0,0.0,0.0,0.0,0.0,0.0,0.0,0.0,0.0,0.0,0.0,0.0,0.0,0.0,0.0,0.0,0.0,0.0,0.0,0.0,0.0,0.0,0.0,0.0,0.0,0.0,0.0,0.0,0.0,0.0,0.0,0.0,0.0,0.0,0.0,0.0,0.0,0.0,0.0,0.0,0.0,0.0,0.0,0.0,0.0,0.0,0.0,0.0,0.0,0.0,0.0,0.0,0.0,0.0,0.0,0.0,0.0,0.0,0.0,0.0,0.0,0.0,0.0,0.0,0.0,0.0,0.0,0.0,0.0,0.0,0.0,0.0,0.0,0.0,0.0,0.0,0.0,0.0,0.0,0.0,0.0,0.0,0.0,0.0,0.0,0.0,0.0,0.0,0.0,0.0,0.0,0.0,0.0,0.0,0.0,0.0,0.0,0.0,0.0,0.0,0.0,0.0,0.0,0.0,0.0,0.0,0.0,0.0,0.0,0.0,0.0,0.0,0.0,0.0,0.0,0.0,0.0,0.0,0.0,0.0,0.0,0.0,0.0,0.0,0.0,0.0,0.0,0.0,0.0,0.0,0.0,0.0,0.0,0.0,0.0,0.0,0.0,0.0,0.0,0.0,0.0,0.0,0.0,0.0,0.0,0.0,0.0,0.0,0.0,0.0,0.0,0.0,0.0,0.0,0.0,0.0,0.0,0.0,0.0,0.0,0.0,0.0,0.0,0.0,0.0,0.0,0.0,0.0,0.0,0.0,0.0,0.0,0.0,0.0,0.0,0.0,0.0,0.0,0.0,0.0,0.0,0.0,0.0,0.0,0.0,0.0,0.0,0.0,0.0,0.0,0.0,0.0,0.0,0.0,0.0,0.0,0.0,0.0,0.0,0.0,0.0,0.0,0.0,0.0,0.0,0.0,0.0,0.0,0.0,0.0,0.0,0.0,0.0,0.0,0.0,0.0,0.0,0.0,0.0,0.0,0.0,0.0,0.0,0.0,0.0,0.0,0.0,0.0,0.0,0.0,0.0,0.0,0.0,0.0,0.0,0.0,0.0,0.0,0.0,0.0,0.0,0.0,0.0,0.0,0.0,0.0,0.0,0.0,0.0,0.0,0.0,0.0,0.0,0.0,0.0,0.0,0.0,0.0,0.0,0.0,0.0,0.0,0.0,0.0,0.0,0.0,0.0,0.0,0.0,0.0,0.0,0.0,0.0,0.0,0.0,0.0,0.0,0.0,0.0,0.0,0.0,0.0,0.0,0.0,0.0,0.0,0.0,0.0,0.0,0.0,0.0,0.0,0.0,0.0,0.0,0.0,0.0,0.0,0.0,0.0,0.0,0.0,0.0,0.0,0.0,0.0,0.0,0.0,0.0,0.0,0.0,0.0,0.0,0.0,0.0,0.0,0.0,0.0,0.0,0.0,0.0,0.0,0.0,0.0,0.0,0.0,0.0,0.0,0.0,0.0,0.0,0.0,0.0,0.0,0.0,0.0,0.0,0.0,0.0,0.0,0.0,0.0,0.0,0.0,0.0,0.0,0.0,0.0,0.0,0.0,0.0,0.0,0.0,0.0,0.0,0.0,0.0,0.0,0.0,0.0,0.0,0.0,0.0,0.0,0.0,0.0,0.0,0.0,0.0,0.0,0.0,0.0,0.0,0.0,0.0,0.0,0.0,0.0,0.0,0.0,0.0,0.0,0.0,0.0,0.0,0.0,0.0,0.0,0.0,0.0,0.0,0.0,0.0,0.0,0.0,0.0,0.0,0.0,0.0,0.0,0.0,0.0,0.0,0.0,0.0,0.0,0.0,0.0,0.0,0.0,0.0,0.0,0.0,0.0,0.0,0.0,0.0,0.0,0.0,0.0,0.0,0.0,0.0,0.0,0.0,0.0,0.0,0.0,0.0,0.0,0.0,0.0,0.0,0.0,0.0,0.0,0.0,0.0,0.0,0.0,0.0,0.0,0.0,0.0,0.0,0.0,0.0,0.0,0.0,0.0,0.0,0.0,0.0,0.0,0.0,0.0,0.0,0.0,0.0,0.0,0.0,0.0,0.0,0.0,0.0,0.0,0.0,0.0,0.0,0.0,0.0,0.0,0.0,0.0,0.0,0.0,0.0,0.0,0.0,0.0,0.0,0.0,0.0,0.0,0.0,0.0,0.0,0.0,0.0,0.0,0.0,0.0,0.0,0.0,0.0,0.0,0.0,0.0,0.0,0.0,0.0,0.0,0.0,0.0,0.0,0.0,0.0,0.0,0.0,0.0,0.0,0.0,0.0,0.0,0.0,0.0,0.0,0.0,0.0,0.0,0.0,0.0,0.0,0.0,0.0,0.0,0.0,0.0,0.0,0.0,0.0,0.0,0.0,0.0,0.0,0.0,0.0,0.0,0.0,0.0,0.0,0.0,0.0,0.0,0.0,0.0,0.0,0.0,0.0,0.0,0.0,0.0,0.0,0.0,0.0,0.0,0.0,0.0,0.0,0.0,0.0,0.0,0.0,0.0,0.0,0.0,0.0,0.0,0.0,0.0,0.0,0.0,0.0,0.0,0.0,0.0,0.0,0.0,0.0,0.0,0.0,0.0,0.0,0.0,0.0,0.0,0.0,0.0,0.0,0.0,0.0,0.0,0.0,0.0,0.0,0.0,0.0,0.0,0.0,0.0,0.0,0.0,0.0,0.0,0.0,0.0,0.0,0.0,0.0,0.0,0.0,0.0,0.0,0.0,0.0,0.0,0.0,0.0,0.0,0.0,0.0,0.0,0.0,0.0,0.0,0.0,0.0,0.0,0.0,0.0,0.0,0.0,0.0,0.0,0.0,0.0,0.0,0.0,0.0,0.0,0.0,0.0,0.0,0.0,0.0,0.0,0.0,0.0,0.0,0.0,0.0,0.0,0.0,0.0,0.0,0.0,0.0,0.0,0.0,0.0,0.0,0.0,0.0,0.0,0.0,0.0,0.0,0.0,0.0,0.0,0.0,0.0,0.0,0.0,0.0,0.0,0.0,0.0,0.0,0.0,0.0,0.0,0.0,0.0,0.0,0.0,0.0,0.0,0.0,0.0,0.0,0.0,0.0,0.0,0.0,0.0,0.0,0.0,0.0,0.0,0.0,0.0,0.0,0.0,0.0,0.0,0.0,0.0,0.0,0.0,0.0,0.0,0.0,0.0,0.0,0.0,0.0,0.0,0.0,0.0,0.0,0.0,0.0,0.0,0.0,0.0,0.0,0.0,0.0,0.0,0.0,0.0,0.0,0.0,0.0,0.0,0.0,0.0,0.0,0.0,0.0,0.0,0.0,0.0,0.0,0.0,0.0,0.0,0.0,0.0,0.0,0.0,0.0,0.0,0.0,0.0,0.0,0.0,0.0,0.0,0.0,0.0,0.0,0.0,0.0,0.0,0.0,0.0,0.0,0.0,0.0,0.0,0.0,0.0,0.0,0.0,0.0,0.0,0.0,0.0,0.0,0.0,0.0,0.0,0.0,0.0,0.0,0.0,0.0,0.0,0.0,0.0,0.0,0.0,0.0,0.0,0.0,0.0,0.0,0.0,0.0,0.0,0.0,0.0,0.0,0.0,0.0,0.0,0.0,0.0,0.0,0.0,0.0,0.0,0.0,0.0,0.0,0.0,0.0,0.0,0.0,0.0,0.0,0.0,0.0,0.0,0.0,0.0,0.0,0.0,0.0,0.0,0.0,0.0,0.0,0.0,0.0,0.0,0.0,0.0,0.0,0.0,0.0,0.0,0.0,0.0,0.0,0.0,0.0,0.0,0.0,0.0,0.0,0.0,0.0,0.0,0.0,0.0,0.0,0.0,0.0,0.0,0.0,0.0,0.0,0.0,0.0,0.0,0.0,0.0,0.0,0.0,0.0,0.0,0.0,0.0,0.0,0.0,0.0,0.0,0.0,0.0,0.0,0.0,0.0,0.0,0.0,0.0,0.0,0.0,0.0,0.0,0.0,0.0,0.0,0.0,0.0,0.0,0.0,0.0,0.0,0.0,0.0,0.0,0.0,0.0,0.0,0.0,0.0,0.0,0.0,0.0,0.0,0.0,0.0,0.0,0.0,0.0,0.0,0.0,0.0,0.0,0.0,0.0,0.0,0.0,0.0,0.0,0.0,0.0,0.0,0.0,0.0,0.0,0.0,0.0,0.0,0.0,0.0,0.0,0.0,0.0,0.0,0.0,0.0,0.0,0.0,0.0,0.0,0.0,0.0,0.0,0.0,0.0,0.0,0.0,0.0,0.0,0.0,0.0,0.0,0.0,0.0,0.0,0.0,0.0,0.0,0.0,0.0,0.0,0.0,0.0,0.0,0.0,0.0,0.0,0.0,0.0,0.0,0.0,0.0,0.0,0.0,0.0,0.0,0.0,0.0,0.0,0.0,0.0,0.0,0.0,0.0,0.0,0.0,0.0,0.0,0.0,0.0,0.0,0.0,0.0,0.0,0.0,0.0,0.0,0.0,0.0,0.0,0.0,0.0,0.0,0.0,0.0,0.0,0.0,0.0,0.0,0.0,0.0,0.0,0.0,0.0,0.0,0.0,0.0,0.0,0.0,0.0,0.0,0.0,0.0,0.0,0.0,0.0,0.0,0.0,0.0,0.0,0.0,0.0,0.0,0.0,0.0,0.0,0.0,0.0,0.0,0.0,0.0,0.0,0.0,0.0,0.0,0.0,0.0,0.0,0.0,0.0,0.0,0.0,0.0,0.0,0.0,0.0,0.0,0.0,0.0,0.0,0.0,0.0,0.0,0.0,0.0,0.0,0.0,0.0,0.0,0.0,0.0,0.0,0.0,0.0,0.0,0.0,0.0,0.0,0.0,0.0,0.0,0.0,0.0,0.0,0.0,0.0,0.0,0.0,0.0,0.0,0.0,0.0,0.0,0.0,0.0,0.0,0.0,0.0,0.0,0.0,0.0,0.0,0.0,0.0,0.0,0.0,0.0,0.0,0.0,0.0,0.0,0.0,0.0,0.0,0.0,0.0,0.0,0.0,0.0,0.0,0.0,0.0,0.0,0.0,0.0,0.0,0.0,0.0,0.0,0.0,-2.8697,-2.9696,0.0,0.0,0.0,0.0,0.0,0.0,0.0,0.0,0.0,0.0,0.0,0.0,0.0,0.0,0.0,0.0,0.0,0.0,0.0,0.0,0.0,0.0,0.0,-3.7313,-3.7883,-3.7883,-3.7883,-3.7738,-3.7417,0.0,0.0,0.0,0.0,0.0,-3.5975,-3.586,-3.5769,-3.5675,-3.537,-3.5214,-3.5227,-3.5913,-3.6685,-3.7514,0.0,0.0,0.0,0.0,0.0,0.0,0.0,0.0,0.0,0.0,0.0,0.0,0.0,0.0,0.0,0.0,0.0,0.0,0.0,0.0,0.0,0.0,0.0,0.0,0.0,0.0,0.0,0.0,0.0,0.0,0.0,0.0,0.0,0.0,0.0,0.0,0.0,0.0,0.0,0.0,0.0,0.0,0.0,0.0,0.0,0.0,0.0,0.0,0.0,0.0,0.0,0.0,0.0,0.0,0.0,0.0,0.0,0.0,0.0,0.0,0.0,0.0,0.0,0.0,0.0,0.0,0.0,0.0,0.0,0.0,-2.8304,-2.8661,0.0,0.0,0.0,0.0,0.0,0.0,0.0,0.0,0.0,0.0,0.0,0.0,0.0,0.0,0.0,0.0,0.0,0.0,0.0,0.0,0.0,-3.5461,-3.5584,-3.6534,-3.7148,-3.7148,-3.7148,-3.7148,-3.7148,-3.6693,0.0,0.0,0.0,-3.5975,-3.572,-3.5655,-3.5437,-3.4937,-3.4125,-3.3856,-3.4159,-3.3932,-3.4633,-3.6103,-3.7054,0.0,0.0,0.0,0.0,0.0,0.0,0.0,0.0,0.0,0.0,0.0,0.0,0.0,0.0,0.0,0.0,0.0,0.0,0.0,0.0,0.0,0.0,0.0,0.0,0.0,0.0,0.0,0.0,0.0,0.0,0.0,0.0,0.0,0.0,0.0,0.0,0.0,0.0,0.0,0.0,0.0,0.0,0.0,0.0,0.0,0.0,0.0,0.0,0.0,0.0,0.0,0.0,0.0,0.0,0.0,0.0,0.0,0.0,0.0,0.0,0.0,0.0,0.0,-2.953,-2.9392,-2.8635,-2.8707,-2.8743,-2.8699,-2.8249,-2.7803,-2.7536,-2.8336,0.0,0.0,0.0,0.0,0.0,0.0,0.0,0.0,0.0,0.0,0.0,0.0,0.0,0.0,0.0,0.0,0.0,0.0,0.0,-3.5307,-3.5886,-3.6071,-3.6195,-3.6195,-3.6195,-3.6195,-3.6195,-3.61,-3.6068,-3.6037,-3.5847,-3.5752,-3.5688,-3.5619,-3.4634,-3.2815,-3.1322,-3.1058,-3.2019,-3.1985,-3.236,-3.3161,-3.5217,-3.6814,-3.7901,0.0,0.0,0.0,0.0,0.0,0.0,0.0,0.0,0.0,0.0,0.0,0.0,0.0,0.0,0.0,0.0,0.0,0.0,0.0,0.0,0.0,0.0,0.0,0.0,0.0,0.0,0.0,0.0,0.0,0.0,0.0,0.0,0.0,0.0,0.0,0.0,0.0,0.0,0.0,0.0,0.0,-3.3108,-3.3113,0.0,0.0,0.0,0.0,0.0,0.0,0.0,0.0,0.0,0.0,0.0,0.0,0.0,-3.0947,-3.1607,-3.1099,-3.0484,-2.9682,-3.02,-2.9908,-2.8862,-2.8899,-2.8886,-2.886,-2.8337,0.0,-2.8518,-2.7638,0.0,0.0,0.0,0.0,0.0,0.0,0.0,0.0,0.0,0.0,0.0,0.0,0.0,0.0,0.0,0.0,0.0,0.0,0.0,0.0,0.0,-3.4988,-3.4988,-3.4572,-3.5252,-3.5537,-3.5177,-3.6029,-3.6336,-3.5846,-3.5752,-3.5655,-3.5589,-3.5132,-3.4031,-3.2237,-3.1149,-3.0945,-3.1605,-3.1431,-3.1728,-3.2542,-3.3518,-3.4833,-3.628,-3.6582,0.0,0.0,0.0,0.0,0.0,0.0,0.0,0.0,0.0,0.0,0.0,0.0,0.0,0.0,0.0,0.0,0.0,0.0,0.0,0.0,0.0,0.0,0.0,0.0,0.0,0.0,0.0,0.0,0.0,0.0,0.0,0.0,0.0,0.0,0.0,0.0,0.0,0.0,0.0,-3.4028,-3.4692,-3.3909,-3.4118,-3.4049,0.0,0.0,0.0,0.0,0.0,0.0,0.0,0.0,0.0,-3.2616,-3.185,-3.1241,-3.0766,-3.1356,-3.1165,-3.0256,-3.0783,-3.0783,-3.0306,-3.0306,-3.0306,-3.0281,-2.9754,-2.9617,-2.9673,-2.7907,-2.6791,-2.6259,0.0,0.0,0.0,0.0,-2.7431,-2.701,0.0,0.0,0.0,0.0,0.0,0.0,0.0,0.0,0.0,0.0,0.0,0.0,-3.3365,-3.3761,-3.3791,-3.3285,-3.4263,-3.4797,-3.433,-3.5329,-3.5789,-3.5365,-3.5335,-3.5299,-3.5198,-3.395,-3.2893,-3.2067,-3.1034,-3.0895,-3.1541,-3.1152,-3.1529,-3.2461,-3.2409,-3.3233,-3.4673,-3.511,-3.5615,-3.6121,0.0,0.0,0.0,0.0,0.0,0.0,0.0,0.0,0.0,0.0,0.0,0.0,0.0,0.0,0.0,0.0,0.0,0.0,0.0,0.0,0.0,0.0,0.0,0.0,0.0,0.0,0.0,0.0,0.0,0.0,0.0,0.0,0.0,0.0,0.0,0.0,0.0,-3.5291,-3.5574,-3.4335,-3.4721,-3.4641,0.0,0.0,0.0,0.0,0.0,0.0,-3.2932,-3.275,-3.2618,-3.2488,-3.2565,-3.2139,-3.106,-3.2114,-3.224,-3.1461,-3.1712,-3.1738,-3.1612,-3.1612,-3.1612,-3.1562,-3.0909,-3.0608,-3.0457,-2.8348,-2.6841,-2.5946,-2.7129,-2.7423,-2.73,-2.8043,-2.7897,-2.733,0.0,0.0,0.0,0.0,0.0,0.0,0.0,0.0,0.0,0.0,0.0,-3.227,-3.2196,-3.2479,-3.273,-3.2743,-3.322,-3.3596,-3.3808,-3.3389,-3.3465,-3.4317,-3.438,-3.438,-3.4346,-3.1529,-3.0664,-3.202,-2.9984,-2.9845,-3.1398,-3.0878,-3.1221,-3.2304,-3.2095,-3.2562,-3.3384,-3.2312,-3.2732,-3.4167,-3.4437,0.0,0.0,0.0,0.0,0.0,0.0,0.0,0.0,0.0,0.0,0.0,0.0,0.0,0.0,0.0,0.0,0.0,0.0,0.0,0.0,0.0,0.0,0.0,0.0,0.0,0.0,0.0,0.0,0.0,0.0,0.0,0.0,0.0,0.0,0.0,0.0,0.0,0.0,-3.3368,-3.3796,0.0,0.0,0.0,0.0,-3.3864,-3.3192,-3.3185,-3.4069,-3.2918,-3.2726,-3.3784,-3.3815,-3.4022,-3.4474,-3.4048,-3.3796,-3.3721,-3.3244,-3.2692,-3.2164,-3.2164,-3.2164,-3.2114,-3.106,-3.0608,-3.0482,-2.8775,-2.8323,-2.8587,-2.7656,-2.7616,-2.7918,-2.6971,-2.6593,-2.6417,0.0,0.0,0.0,-3.2358,-3.2135,-3.1996,-3.194,-3.1514,-3.1449,-3.2121,-3.1443,-3.1137,-3.1648,-3.1338,-3.1066,-3.0966,-3.1935,-3.2596,-3.2651,-3.3642,-3.438,-3.4673,-3.4413,-3.384,-3.2766,-3.107,-3.0394,-3.0856,-3.0292,-3.0306,-3.0884,-3.1035,-3.1533,-3.2244,-3.2179,-3.232,-3.2684,-3.3138,-3.3218,-3.3045,-3.3186,-3.4083,0.0,0.0,0.0,0.0,0.0,0.0,0.0,0.0,0.0,0.0,0.0,0.0,0.0,0.0,0.0,0.0,0.0,0.0,0.0,0.0,0.0,0.0,0.0,0.0,0.0,0.0,0.0,0.0,0.0,0.0,0.0,0.0,0.0,0.0,0.0,0.0,0.0,-3.4427,-3.53,0.0,-3.3376,-3.3432,-3.3516,-3.3431,-3.3152,-3.3275,-3.3979,-3.3878,-3.4022,-3.4424,-3.4731,-3.4876,-3.468,-3.4525,-3.4248,-3.3897,-3.3345,-3.3011,-3.2767,-3.239,-3.2215,-3.2164,-3.1085,-3.0809,-3.1009,-2.9729,-2.8875,-2.8373,-2.7971,-2.772,-2.7519,-2.7178,-2.6801,-2.6449,0.0,-3.233,0.0,-3.2382,-3.2135,-3.194,-3.1996,-3.116,-3.0704,-3.1329,-3.0429,-2.9903,-3.0408,-3.026,-2.9987,-2.9689,-3.0669,-3.1299,-3.1346,-3.2305,-3.3099,-3.3734,-3.3492,-3.273,-3.1424,-3.0679,-3.0407,-3.062,-3.0581,-3.0909,-3.1436,-3.1411,-3.1788,-3.2491,-3.229,-3.2315,-3.255,-3.3499,-3.3265,-3.2272,-3.1983,-3.3157,-3.4898,0.0,0.0,0.0,0.0,0.0,0.0,0.0,0.0,0.0,0.0,0.0,0.0,0.0,0.0,0.0,0.0,0.0,0.0,0.0,0.0,0.0,0.0,0.0,0.0,0.0,0.0,0.0,0.0,0.0,0.0,0.0,0.0,0.0,0.0,0.0,-3.5046,-3.5223,-3.6282,-3.6198,-3.425,-3.4218,-3.4127,-3.3664,-3.3796,-3.4148,-3.47,-3.5077,-3.5278,-3.5278,-3.5629,-3.5655,-3.5278,-3.4901,-3.455,-3.4173,-3.342,-3.3111,-3.3111,-3.2692,-3.239,-3.2164,-3.126,-3.0959,-3.106,-3.0156,-2.9352,-2.8674,-2.8674,-2.8448,-2.8097,-2.7695,-2.7318,-2.7002,0.0,-3.2191,-3.2081,-3.2358,-3.2081,-3.1856,-3.1968,-3.1131,-3.0407,-3.0122,-2.9321,-2.8681,-2.8446,-2.9214,-2.9555,-2.9057,-2.9419,-2.9803,-3.0085,-2.918,-2.9521,-3.1436,-3.1489,-3.1086,-3.0401,-3.0174,-3.0517,-3.1336,-3.0859,-3.1461,-3.3011,-3.1938,-3.2014,-3.3061,-3.2491,-3.2541,-3.3111,-3.3111,-3.2654,-3.1834,-3.0829,-3.2198,-3.4651,0.0,0.0,0.0,0.0,0.0,0.0,0.0,0.0,0.0,0.0,0.0,0.0,0.0,0.0,0.0,0.0,0.0,0.0,0.0,0.0,0.0,0.0,0.0,0.0,0.0,0.0,0.0,0.0,0.0,0.0,0.0,0.0,0.0,-3.5968,-3.6074,-3.5922,-3.5621,-3.655,-3.6132,-3.3514,-3.465,-3.5332,-3.4781,-3.5232,-3.5805,-3.638,-3.6405,-3.6405,-3.6405,-3.6405,-3.6405,-3.6405,-3.5278,-3.468,-3.47,-3.3596,-3.3111,-3.3111,-3.3068,-3.2742,-3.2164,-3.1612,-3.106,-3.0557,-3.0005,-2.9804,-2.9804,-2.9804,-2.9779,-2.9603,-2.8524,-2.8072,-2.7896,-3.1991,-3.202,-3.2025,-3.2079,-3.2025,-3.1912,-3.1855,-3.0807,-2.9978,-2.9896,-2.8818,-2.8235,-2.871,-2.8976,-2.9089,-2.8948,-2.9049,-2.9386,-3.0048,-2.9951,-3.0404,-3.1426,-3.0582,-3.0089,-3.0188,-2.9542,-2.9541,-3.0231,-3.0859,-3.121,-3.1311,-3.219,-3.2566,-3.2466,-3.2717,-3.2918,-3.3111,-3.3111,-3.2962,-3.2641,-3.1563,-3.2006,-3.3235,0.0,0.0,0.0,0.0,0.0,0.0,0.0,0.0,0.0,0.0,0.0,0.0,0.0,0.0,0.0,0.0,0.0,0.0,0.0,0.0,0.0,0.0,0.0,0.0,0.0,0.0,0.0,0.0,0.0,0.0,0.0,-3.5935,-3.6059,-3.6223,-3.5679,-3.5649,-3.6641,-3.7001,-3.6885,-3.6132,-3.6458,-3.6508,-3.5956,-3.6056,-3.6207,-3.6405,-3.6405,-3.6405,-3.6405,-3.6405,-3.6405,-3.6405,-3.5278,-3.468,-3.47,-3.3596,-3.3111,-3.3111,-3.2641,-3.2139,-3.1587,-3.106,-3.0532,-3.0005,-2.9854,-2.9804,-2.9804,-2.9804,-2.9302,-2.8524,-2.8222,-2.7595,-2.6866,-3.1779,-3.1678,-3.1607,-3.1936,-3.1996,-3.1968,-3.1913,-3.0925,-3.0078,-2.9632,-2.8759,-2.8315,-2.851,-2.8537,-2.8537,-2.8537,-2.8537,-2.8759,-2.9237,-2.9442,-2.9641,-2.9876,-2.9342,-2.9116,-2.9239,-2.9265,-2.9476,-2.987,-3.0453,-3.0769,-3.0737,-3.1716,-3.2087,-3.2013,-3.2574,-3.281,-3.281,-3.3025,-3.3219,-3.337,-3.2692,-3.2904,-3.3421,-3.1603,-3.2265,-3.4077,-3.3697,-3.4425,-3.5561,-3.5574,0.0,0.0,0.0,0.0,0.0,0.0,0.0,0.0,0.0,0.0,0.0,0.0,0.0,0.0,0.0,0.0,0.0,0.0,0.0,0.0,0.0,0.0,0.0,0.0,-3.7707,-3.8127,-3.8063,-3.7113,-3.6773,-3.7868,-3.8136,-3.814,-3.7914,-3.7663,-3.7287,-3.6807,-3.6531,-3.6405,-3.6405,-3.6405,-3.6405,-3.6405,-3.6405,-3.6405,-3.6405,-3.5504,-3.4906,-3.468,-3.3847,-3.3294,-3.3111,-3.2742,-3.2139,-3.1361,-3.106,-3.0507,-2.9804,-2.9804,-2.9804,-2.9804,0.0,0.0,0.0,0.0,-2.7253,-2.643,-3.1791,-3.1385,-3.1149,-3.1959,-3.2053,-3.2025,-3.1996,-3.1335,-3.048,-2.9479,-2.9078,-2.8723,-2.8308,-2.8265,-2.8254,-2.8203,-2.8217,-2.817,-2.806,-2.8213,-2.8102,-2.7551,-2.804,-2.8249,-2.805,-2.9074,-2.9653,-2.9698,-2.974,-3.0029,-3.0472,-3.0659,-3.1057,-3.1577,-3.2133,-3.2444,-3.2531,-3.2896,-3.3395,-3.3897,-3.3897,-3.4223,-3.4449,-3.1938,-3.2648,-3.4847,-3.3942,-3.4242,-3.5077,-3.5143,0.0,0.0,0.0,0.0,0.0,0.0,0.0,0.0,0.0,0.0,0.0,0.0,0.0,0.0,0.0,0.0,0.0,0.0,0.0,0.0,0.0,0.0,0.0,0.0,-3.9641,-4.0421,-4.069,-3.9508,-3.8834,-3.9265,-3.9574,-3.9473,-3.8869,-3.8316,-3.7739,-3.7136,-3.6681,-3.6405,-3.6405,0.0,0.0,0.0,0.0,-3.6405,-3.6405,-3.5755,-3.5157,-3.468,-3.4098,-3.3545,-3.3111,-3.3111,-3.2466,-3.1386,-3.1386,-3.0783,-2.9804,-2.9804,-2.9754,-2.9679,-2.9628,-2.9277,-2.8662,-2.7595,-2.6927,-2.643,-3.2052,-3.1892,-3.1743,-3.2532,-3.2355,-3.2107,-3.2025,-3.1508,-3.0925,-3.0332,-2.9851,-2.9448,-2.9113,-2.9257,-2.9215,-2.8776,-2.889,-2.8677,-2.7914,-2.7878,-2.7669,-2.7139,-2.7583,-2.7811,-2.7805,-2.8421,-2.8507,-2.7992,-2.8733,-2.8676,-2.7856,-2.9676,-3.0605,-3.0715,-3.1874,-3.2618,-3.2982,-3.3068,-3.3395,-3.3897,-3.3897,-3.4223,-3.458,-3.3646,-3.3607,-3.4052,-3.3373,-3.4129,-3.5426,-3.492,-3.5723,-3.6864,-3.6546,-3.5856,0.0,0.0,0.0,0.0,0.0,0.0,0.0,0.0,0.0,0.0,0.0,0.0,0.0,0.0,0.0,0.0,0.0,0.0,0.0,-4.022,-4.0416,-4.0801,-4.2015,-4.1398,-4.0757,-4.0579,-4.0177,-3.9469,-3.8265,-3.8065,-3.7588,-3.6631,-3.6455,-3.6405,-3.6405,-3.6405,-3.6405,-3.6405,-3.6405,-3.6405,-3.6405,-3.5378,-3.4781,-3.468,-3.3721,0.0,-3.3111,-3.3111,-3.2466,-3.1386,-3.1386,-3.0783,-2.9804,-2.9804,-2.9528,-2.9013,-2.8599,-2.8373,-2.8122,-2.7052,-2.6575,-2.643,-3.2138,-3.1765,-3.1509,-3.2137,-3.2276,-3.2247,-3.2107,-3.1879,-3.1478,-3.0778,-3.0727,-3.0708,-3.0569,-3.0504,-3.0528,-3.0669,-2.987,-2.9135,-2.8649,-2.8002,-2.7569,-2.7358,-2.7791,-2.7936,-2.7705,-2.843,-2.8539,-2.8046,-2.8372,-2.8266,-2.7766,-2.9173,-2.9897,-3.0159,-3.1484,-3.2288,-3.2791,-3.2982,-3.3545,-3.4299,-3.4299,-3.4801,-3.5454,-3.4625,-3.4299,-3.4318,-3.4237,-3.4855,-3.5598,-3.5305,-3.5928,-3.668,-3.5964,-3.5799,-3.5887,0.0,0.0,0.0,0.0,0.0,0.0,0.0,0.0,0.0,0.0,0.0,0.0,0.0,0.0,-3.6948,-3.8492,0.0,-4.0521,-4.2225,-4.262,-4.2883,-4.364,-4.3426,-4.286,-4.1732,-4.0926,-4.0177,-3.9521,-3.859,-3.7911,-3.7741,-3.6897,-3.6546,-3.6922,-3.6593,-3.6405,-3.6405,-3.6405,-3.6405,-3.6405,-3.5554,-3.4956,-3.468,-3.3872,-3.3345,-3.3111,-3.3111,-3.2466,-3.1386,-3.1386,-3.0783,-2.9779,-2.9478,-2.9176,-2.8813,-2.8021,-2.7695,-2.7595,-2.6801,-2.6499,-2.643,-3.1854,-3.1567,-3.1381,-3.1846,-3.2271,-3.2492,-3.2274,-3.2247,-3.1992,-3.1246,-3.1456,-3.1715,-3.1746,-3.139,-3.1419,-3.198,-3.0474,-2.9386,-2.9174,-2.8126,-2.7493,-2.7536,-2.81,-2.8187,-2.7705,-2.8567,-2.8819,-2.8402,-2.8282,-2.821,-2.8206,-2.8804,-2.9371,-2.9988,-3.1181,-3.2074,-3.2723,-3.3114,-3.3872,-3.4876,-3.4876,-3.5479,-3.6304,-3.5378,-3.5052,-3.5077,-3.5382,-3.5556,-3.5643,-3.5775,-3.6008,-3.6114,-3.5557,-3.5983,-3.6505,-3.5647,-3.6183,0.0,0.0,0.0,0.0,0.0,0.0,0.0,0.0,0.0,-3.4928,-3.6147,-3.7198,-3.8527,-4.0621,-4.1529,-4.2476,-4.405,-4.4647,-4.4924,-4.5024,-4.5043,-4.4538,-4.3157,-4.1989,-4.1219,-4.0965,-3.934,-3.843,-3.8958,-3.7388,-3.6687,-3.7268,-3.6734,-3.6405,-3.6405,-3.6405,-3.6405,-3.6405,-3.5805,-3.5282,-3.4831,-3.4223,-3.3671,-3.3244,-3.3162,-3.2516,-3.1537,-3.1336,-3.0683,-2.9754,-2.9139,-2.8838,-2.8637,-2.767,-2.7253,-2.7102,-2.665,-2.6499,-2.6465,-3.0795,-3.1616,-3.2475,-3.2741,-3.2972,-3.2949,-3.2437,-3.2355,-3.2299,-3.2076,-3.1856,-3.1658,-3.1573,-3.122,-3.0852,-3.041,-2.9822,-2.9148,-2.8307,-2.7779,-2.7347,-2.7083,-2.7999,-2.8225,-2.7719,-2.8345,-2.8355,-2.7733,-2.8164,-2.805,-2.7433,-2.8574,-2.9555,-3.044,-3.1315,-3.247,-3.3709,-3.3822,-3.4449,-3.5408,-3.5408,-3.5805,-3.6405,-3.6279,-3.6229,-3.6179,-3.5658,-3.5411,-3.5372,-3.5796,-3.5805,-3.5934,-3.7356,-3.7092,-3.637,-3.6951,-3.6443,-3.5699,-3.5517,-3.5248,-3.5283,-3.6404,-3.6179,-3.6042,0.0,0.0,-3.7003,-3.7933,-3.838,-3.9195,-4.1297,-4.2323,-4.3439,-4.514,-4.502,-4.495,-4.562,-4.527,-4.5036,-4.5393,-4.3956,-4.2457,-4.1271,-3.9913,-3.8881,-3.8532,-3.7159,-3.6452,-3.6499,-3.6452,-3.6405,-3.6405,-3.6405,-3.6405,-3.6405,-3.5805,-3.5458,-3.5382,-3.4399,-3.3872,-3.3796,-3.3294,-3.2717,-3.2064,-3.111,-3.0357,-2.9754,-2.9139,-2.8612,-2.8147,-2.7519,-2.7027,-2.6575,-2.6524,-2.6499,-2.6499,-3.1536,-3.1795,-3.2177,-3.2643,-3.2987,-3.3103,-3.2895,-3.2602,-3.2355,-3.2299,-3.2555,-3.2741,-3.2885,-3.305,-3.2706,-3.1645,-3.0933,-3.0147,-2.9217,-2.8734,-2.8312,-2.7864,-2.9047,-2.938,-2.8634,-2.9463,-2.9744,-2.9526,-2.9316,-2.9038,-2.8785,-2.9282,-2.9852,-3.053,-3.1315,-3.2538,-3.3897,-3.3897,-3.4525,-3.5508,-3.5508,-3.6088,-3.6964,-3.6193,-3.5755,-3.5603,-3.5788,-3.5608,0.0,-3.5845,-3.6203,-3.6483,-3.6921,-3.7063,-3.708,-3.666,-3.6577,-3.6626,-3.6626,-3.6315,-3.6063,0.0,-3.6519,-3.6557,-3.7043,-3.6958,-3.7133,-3.8229,-3.8997,-4.0279,-4.3009,-4.4077,-4.512,0.0,-4.6959,-4.6753,-4.6682,-4.5888,-4.542,-4.5683,-4.4448,-4.3395,-4.2861,-4.0834,-3.9738,-3.9938,-3.7727,-3.672,-3.7475,-3.6818,-3.6405,-3.6405,-3.6405,-3.6405,-3.6405,-3.5805,-3.5332,-3.5006,-3.4274,-3.3746,-3.342,-3.3194,-3.2767,-3.2164,-3.1085,-3.0482,-3.0206,-2.9264,-2.8562,-2.8047,-2.7494,-2.6977,-2.6499,-2.6499,-2.6499,-2.6499,-3.1711,-3.1943,-3.2219,-3.2564,-3.3185,-3.3598,-3.3443,-3.3108,-3.2792,-3.2656,-3.3032,-3.3401,-3.3488,-3.4123,-3.3936,-3.2338,-3.1875,-3.1232,-3.0361,-2.9797,-2.9551,-2.9749,-3.0435,-3.0633,-3.0154,-3.0721,-3.102,-3.1094,-3.0751,-3.0526,-3.0536,-3.072,-3.0995,-3.147,-3.2058,-3.3068,-3.4349,-3.4349,-3.4992,-3.6033,-3.6033,-3.6713,-3.7527,-3.6212,-3.5381,-3.5034,-3.5297,-3.5083,-3.4874,-3.5355,-3.6052,-3.6662,-3.6418,-3.6892,-3.7376,-3.6537,-3.6569,-3.6926,-3.7105,-3.6834,-3.6505,-3.6736,-3.7158,-3.7382,-3.6865,-3.7103,-3.7678,-3.8489,-3.9402,-4.0962,-4.3836,-4.4931,-4.597,-4.7733,-4.8027,-4.7848,-4.7369,-4.644,-4.5809,-4.5809,-4.4742,-4.4023,-4.4106,-4.1928,-4.0696,-4.1179,-3.8747,-3.754,-3.8282,-3.7296,-3.6593,-3.6405,-3.6405,-3.6405,-3.6405,-3.5981,-3.5458,-3.4906,-3.4399,-3.3847,-3.3294,-3.3187,-3.2767,-3.2164,-3.1235,-3.0758,-3.0532,-2.9578,-2.875,-2.8072,-2.767,-2.7102,-2.6524,-2.6675,-2.6625,-2.6499,-3.0551,-3.2052,-3.3207,-3.2763,-3.3856,-3.4577,-3.4061,-3.396,-3.3783,-3.3235,-3.3188,-3.3033,-3.2496,-3.3499,-3.3393,-3.1425,-3.198,-3.2108,-3.1293,-3.0617,-3.1053,-3.2786,-3.1976,-3.172,-3.2303,-3.1764,-3.1497,-3.1455,-3.2111,-3.2418,-3.2442,-3.2947,-3.3465,-3.39,-3.39,-3.4495,-3.5458,-3.5458,-3.6222,-3.7428,-3.7428,-3.7727,-3.8033,-3.6676,-3.5663,-3.4853,-3.3861,-3.3461,-3.3514,-3.4015,-3.4949,-3.6011,-3.6604,-3.6781,-3.6915,-3.7267,-3.6507,-3.5699,-3.6327,-3.5967,-3.578,-3.7606,-3.8471,-3.8781,-3.8666,-3.9054,-3.9446,-3.9138,-3.9712,-4.0985,-4.3141,-4.4191,-4.5264,-4.7048,-4.7339,-4.7339,-4.7309,-4.6698,-4.6279,-4.6279,-4.5113,-4.434,0.0,-4.3019,-4.1854,-4.1498,-4.021,-3.9124,-3.8449,-3.7811,-3.7129,-3.6405,-3.6405,-3.6405,-3.6405,-3.638,-3.6056,-3.5458,-3.4906,-3.4399,-3.3847,-3.3319,-3.2767,-3.219,-3.1612,-3.1085,-3.0583,-3.0005,-2.9101,-2.8097,-2.8097,-2.7419,-2.6549,-2.7102,-2.6952,-2.6499,-3.1163,-3.1753,-3.2402,-3.3055,-3.3684,-3.4356,-3.4962,-3.4153,-3.3391,-3.3209,-3.2895,0.0,0.0,0.0,0.0,0.0,-3.208,-3.2211,-3.2147,-3.2094,-3.2444,-3.3354,-3.4096,-3.4409,-3.4276,-3.4862,-3.4833,-3.4169,-3.4358,-3.413,-3.3521,-3.3692,-3.4131,-3.474,-3.474,-3.5539,-3.6978,-3.7289,-3.7874,-3.8604,-3.8485,-3.8824,-3.9201,-3.7456,-3.5896,-3.4528,0.0,-3.3233,-3.3026,-3.3895,-3.4496,-3.4956,-3.5692,-3.5948,-3.5892,-3.5576,-3.5789,-3.6207,-3.6417,0.0,-3.7923,-3.9102,-3.9642,-3.9911,-4.0025,-4.0118,-4.015,-4.0056,-3.9953,-4.0445,-4.2481,-4.3302,-4.425,-4.6132,-4.6924,-4.716,-4.6711,-4.6471,-4.595,-4.5095,-4.4586,0.0,0.0,0.0,0.0,-4.2267,-4.0439,-3.9338,-3.944,-3.866,-3.8069,-3.7795,-3.7361,-3.7129,-3.7129,-3.664,-3.5906,-3.4931,-3.4073,-3.352,-3.3345,-3.3169,-3.2968,-3.2742,-3.1788,-3.1286,-3.106,-3.0156,-2.9352,-2.8624,-2.8247,-2.7645,-2.7027,-2.6826,-2.665,-2.6549,0.0,-3.1979,-3.263,-3.3566,-3.3906,0.0,0.0,0.0,0.0,0.0,0.0,0.0,0.0,0.0,0.0,0.0,0.0,-3.2587,-3.2823,-3.2933,-3.3485,-3.4508,-3.5133,-3.5497,-3.5677,-3.5942,-3.5854,-3.5492,-3.5839,-3.5708,-3.5141,-3.5496,-3.5861,-3.6105,-3.6105,-3.6707,-3.7774,-3.8075,-3.8304,-3.8418,-3.8519,-3.8689,-3.8685,-3.7204,-3.5695,0.0,-3.3385,-3.2658,-3.2209,-3.3466,-3.3931,-3.4093,-3.4874,-3.513,-3.519,-3.5459,-3.5968,-3.6686,-3.7614,-3.8495,-3.937,-4.0422,-4.081,-4.1019,-4.1127,-4.0997,-4.0752,-4.046,-3.985,-3.985,-4.1583,-4.1679,-4.2281,-4.465,-4.5186,-4.5508,-4.5861,-4.5574,-4.5125,-4.4706,-4.4047,-4.3419,0.0,0.0,0.0,-4.252,-4.1128,-4.0277,-4.0169,-3.9357,-3.8765,-3.8496,-3.8069,-3.7841,-3.7841,-3.6924,-3.578,-3.4424,-3.3721,-3.337,-3.337,-3.3571,-3.3545,-3.3294,-3.2164,-3.1562,-3.1311,-3.0457,-2.9628,-2.8888,-2.8775,-2.8122,-2.7293,-2.7318,-2.7002,-2.6549,0.0,0.0,-3.3815,0.0,0.0,0.0,0.0,0.0,0.0,0.0,0.0,0.0,0.0,0.0,0.0,0.0,0.0,0.0,-3.3257,-3.328,-3.4168,-3.623,-3.5248,-3.5245,-3.6554,-3.5367,-3.5011,-3.5666,-3.6558,-3.7092,-3.7263,-3.8235,-3.8415,-3.7965,-3.7965,-3.7993,-3.8007,-3.7993,-3.7653,-3.7193,-3.7788,-3.7537,-3.6821,-3.6139,-3.5189,-3.4043,-3.2751,-3.1746,-3.1235,-3.2656,-3.33,0.0,0.0,-3.4653,-3.5073,-3.6896,-3.7075,-3.7225,-3.9738,-4.0129,-4.0153,-4.1411,-4.1895,-4.2046,-4.2005,-4.1673,-4.1141,-4.0305,-3.9461,-3.9199,-4.0322,-3.9561,-3.9727,-4.2684,-4.2476,-4.2792,-4.4982,-4.4317,-4.4018,0.0,0.0,0.0,0.0,0.0,0.0,-4.2324,0.0,-4.1777,-4.0618,-4.0007,-3.9326,-3.863,-3.8612,-3.8567,-3.8567,-3.722,-3.5673,-3.3947,-3.3922,-3.3922,-3.3947,-3.4449,-3.4374,-3.3796,-3.2667,-3.1863,-3.1361,-3.0809,-2.9955,-2.9038,-2.9553,-2.8775,-2.7494,-2.8499,-2.7896,-2.6575,0.0,0.0,0.0,0.0,0.0,0.0,0.0,0.0,0.0,0.0,0.0,0.0,0.0,0.0,0.0,0.0,0.0,0.0,-3.3897,-3.4171,-3.4972,-3.6382,-3.7413,-3.7943,-3.7924,-3.8635,-3.8717,-3.8108,-3.8338,-3.8272,-3.7967,-3.8206,-3.853,-3.8922,-3.8841,-3.9128,-3.9733,-3.938,-3.9201,-3.9128,-3.8529,-3.8252,-3.8128,-3.7302,-3.5915,-3.4363,-3.3846,-3.2527,-3.1145,-3.1897,0.0,0.0,0.0,-3.6626,-3.7494,0.0,0.0,-3.9559,-4.0217,-4.104,-4.1811,-4.2326,-4.2489,-4.2415,-4.2087,-4.1505,-4.0775,-3.9613,-3.8964,-3.8217,-3.709,-3.8431,0.0,-4.0969,-4.296,0.0,-4.5395,-4.599,0.0,-4.4904,0.0,-4.4727,-4.3236,-4.3493,0.0,0.0,-4.2071,-4.1946,-4.1623,-4.0872,-4.0315,-4.0142,-3.959,-3.9326,-3.9326,-3.7113,-3.5494,-3.45,-3.4098,-3.4123,-3.45,-3.4223,-3.3796,-3.3219,-3.2089,-3.1512,-3.1311,-3.0382,-3.008,-3.0131,-2.9389,-2.8875,-2.8499,-2.8373,-2.8047,-2.762,0.0,0.0,0.0,0.0,0.0,0.0,0.0,0.0,0.0,0.0,0.0,0.0,0.0,0.0,0.0,0.0,0.0,0.0,0.0,-3.4345,-3.4975,-3.6229,-3.7136,-3.7811,-3.815,-3.8672,-3.8794,-3.852,-3.901,-3.8998,-3.8487,-3.9007,-3.9349,-3.9541,-3.9442,-3.9703,-4.0127,-3.956,-3.8953,0.0,0.0,-3.7331,-3.6854,-3.663,-3.5658,-3.4352,-3.3896,-3.2772,-3.1616,0.0,0.0,-3.5684,-3.7272,-3.8063,-3.8691,-4.0157,0.0,-4.1444,-4.2312,-4.288,-4.326,-4.3377,-4.3178,-4.2742,-4.1911,-4.1301,-4.0441,-3.8827,-3.8047,-3.7236,-3.5897,-3.7103,-3.8517,0.0,0.0,0.0,-4.4604,-4.5459,-4.5848,0.0,-4.5645,0.0,-4.4162,-4.4448,-4.418,0.0,-4.2274,-4.1922,-4.1744,-4.1071,-4.0688,-4.0688,-4.0272,-3.9656,-3.8769,-3.7351,-3.6004,-3.468,-3.4605,-3.465,-3.468,-3.4605,-3.4198,-3.3395,-3.2516,-3.1989,-3.1687,-3.0834,-3.0532,-3.0557,-2.993,-2.9339,-2.8888,-2.8875,-2.8524,-2.8072,0.0,0.0,0.0,0.0,0.0,0.0,0.0,0.0,0.0,0.0,-3.5038,-3.4914,0.0,0.0,0.0,0.0,0.0,0.0,0.0,0.0,-3.4896,-3.6197,-3.6135,-3.6681,-3.8024,-3.754,-3.7574,-3.8193,-3.9194,-3.9428,-3.9001,-4.0029,-4.0206,-3.9696,-3.9672,-3.9642,-3.9516,-3.8843,-3.781,-3.6631,-3.658,-3.5802,-3.4745,0.0,-3.5004,-3.4245,-3.3457,-3.2818,-3.2563,0.0,-3.5395,-3.6615,-3.8937,-3.9439,-3.9768,-4.288,-4.3339,-4.3189,-4.4945,-4.4945,-4.4436,-4.4347,-4.3798,-4.2961,-4.1683,-4.0931,-3.9984,-3.8007,0.0,-3.6259,-3.5583,-3.5793,-3.6431,-3.7592,0.0,-4.1192,-4.3632,-4.4299,-4.5024,-4.6207,-4.5891,-4.5442,-4.5138,-4.5221,-4.481,-4.3655,-4.2614,-4.1798,-4.1438,-4.0972,-4.0688,-4.0688,-4.0688,-3.9723,-3.7755,-3.7755,-3.6744,-3.4861,-3.5294,-3.5273,-3.4806,-3.5207,-3.4781,-3.3746,-3.3194,-3.2667,-3.2164,-3.1537,-3.111,-3.0809,-3.0583,-2.9916,-2.9164,-2.9628,-2.9176,-2.8323,0.0,0.0,0.0,0.0,0.0,0.0,0.0,0.0,0.0,-3.74,-3.6613,-3.5874,0.0,0.0,0.0,0.0,0.0,0.0,0.0,0.0,0.0,-3.7518,-3.8111,-3.8531,-3.8802,-3.93,-3.9605,-3.974,-3.9927,-3.9952,-3.9876,-4.0094,-3.9815,-3.9142,-3.9127,-3.8871,-3.8345,-3.7567,-3.7062,-3.6784,-3.616,-3.5718,-3.5505,-3.5524,0.0,0.0,-3.3526,-3.3318,-3.3902,-3.6678,-3.7717,-3.8238,-4.039,-4.2073,-4.3629,-4.5304,-4.5334,-4.4975,-4.5903,-4.5633,-4.4975,-4.4436,-4.3798,-4.2961,-4.1683,-4.0472,0.0,0.0,-3.6581,-3.5806,-3.3511,-3.4907,-3.6704,-3.7575,0.0,0.0,0.0,0.0,-4.6092,0.0,0.0,0.0,0.0,0.0,0.0,0.0,-4.231,-4.1798,-4.1438,-4.0972,-4.0688,-4.0688,-4.0688,-3.9786,-3.7891,-3.7891,-3.7069,-3.5506,-3.5608,-3.5551,-3.5332,-3.4981,-3.4248,-3.3194,-3.2616,0.0,-3.2139,-3.116,-3.121,-3.1813,-3.0457,-3.0105,-3.0281,-2.993,-2.9654,-2.9428,0.0,0.0,0.0,0.0,0.0,0.0,-3.6163,-3.6535,-3.7378,-3.8975,-3.8017,-3.707,-3.6699,-3.6287,-3.5922,0.0,0.0,0.0,0.0,0.0,0.0,-3.7394,-3.8082,-3.8599,-3.8971,-3.9368,-3.9537,-3.9537,0.0,-3.991,-3.9537,-3.991,-3.991,-3.958,-3.9554,-3.9261,-3.8639,-3.7951,-3.7354,-3.6845,-3.6133,-3.575,-3.5589,0.0,0.0,0.0,0.0,0.0,-3.4581,-3.6563,-3.8076,-3.953,-4.2127,-4.3778,-4.5095,-4.6441,-4.6591,-4.6501,-4.716,-4.6591,-4.5663,-4.5005,-4.3808,-4.2402,-4.0726,0.0,0.0,0.0,-3.5968,-3.5489,-3.3844,-3.5237,0.0,-3.6693,0.0,0.0,0.0,0.0,0.0,0.0,0.0,0.0,0.0,0.0,-4.5108,-4.3319,-4.2819,-4.227,-4.1744,-4.1071,-4.0688,-4.0688,-4.0407,-3.9436,-3.7806,-3.7466,-3.6575,-3.5149,-3.5455,-3.5249,-3.47,-3.468,-3.4123,-3.3068,-3.2792,-3.2667,-3.2591,-3.1788,-3.1763,-3.2089,-3.0733,-3.0382,-3.0557,-3.0005,-2.9603,-2.9252,0.0,0.0,0.0,0.0,0.0,0.0,-3.6897,-3.7168,-3.8082,-4.0282,-3.9731,-3.8807,-3.8005,-3.7187,-3.6568,0.0,0.0,0.0,0.0,0.0,0.0,0.0,0.0,0.0,0.0,0.0,0.0,0.0,-3.9842,0.0,0.0,0.0,0.0,0.0,-3.9885,-3.9465,-3.8716,-3.8302,-3.756,0.0,0.0,-3.5844,0.0,0.0,0.0,0.0,0.0,0.0,-3.5039,0.0,-3.7745,-3.975,-4.2404,-4.4197,-4.5484,-4.6411,-4.698,-4.7429,-4.7938,-4.7309,-4.6322,-4.5514,-4.3848,-4.1871,-3.9858,-3.8272,0.0,0.0,-3.5519,-3.531,-3.4623,-3.5466,-3.6241,0.0,-3.7364,-3.9402,0.0,0.0,0.0,0.0,0.0,0.0,0.0,0.0,0.0,-4.3626,-4.3082,-4.2473,-4.1785,-4.1071,-4.0688,-4.0688,-4.0097,-3.9241,-3.7979,-3.7198,-3.6174,-3.4952,-3.5249,-3.4861,-3.3922,-3.4349,-3.3997,-3.3111,-3.3111,-3.3111,-3.3043,-3.2466,-3.229,-3.229,-3.121,-3.0783,-3.0708,-3.0181,-2.9603,-2.8988,0.0,0.0,0.0,0.0,0.0,0.0,-3.7584,-3.8362,-3.958,-4.1813,-4.2105,-4.1613,-4.0345,-3.8528,-3.709,0.0,0.0,0.0,0.0,0.0,0.0,0.0,0.0,0.0,0.0,0.0,0.0,-4.0011,0.0,0.0,0.0,0.0,0.0,0.0,0.0,0.0,-3.7404,-3.7454,0.0,0.0,0.0,0.0,0.0,0.0,0.0,0.0,0.0,0.0,0.0,0.0,0.0,-3.7874,-3.9373,-4.2372,-4.5185,-4.4736,0.0,0.0,-4.7369,-4.7309,-4.689,-4.5603,-4.3848,-4.1871,-3.9858,0.0,0.0,-3.5639,-3.5519,-3.531,-3.4623,-3.4622,-3.5098,-3.6264,-3.7037,-3.865,0.0,0.0,0.0,0.0,0.0,0.0,0.0,0.0,0.0,-4.2876,-4.2339,-4.1731,-4.0859,-4.073,-4.0688,-4.0688,-4.0097,-3.9466,-3.8781,-3.7538,-3.6535,-3.5764,-3.5219,-3.4587,-3.3897,-3.3947,-3.3646,-3.3111,-3.3111,-3.3111,0.0,-3.2466,-3.2516,-3.2893,-3.1763,-3.1311,-3.126,-3.0733,-3.0181,-2.9628,0.0,0.0,0.0,0.0,0.0,0.0,-3.7753,-3.8531,-3.9783,-4.2016,-4.2373,-4.2235,-4.1738,-4.0324,-3.8559,-3.6568,-3.6445,0.0,0.0,0.0,0.0,0.0,0.0,0.0,0.0,0.0,-4.0316,-4.0764,-4.0316,0.0,0.0,0.0,0.0,0.0,0.0,0.0,-3.7834,-3.7406,0.0,0.0,0.0,0.0,0.0,0.0,0.0,0.0,0.0,0.0,-3.5579,0.0,0.0,0.0,-3.7015,-3.923,0.0,0.0,-4.4855,-4.6262,-4.707,-4.7608,-4.7489,-4.5723,-4.321,-4.0876,-3.9679,0.0,-3.531,-3.5459,-3.5519,-3.5429,-3.516,-3.51,-3.528,-3.5818,-3.5759,-3.6507,-3.902,0.0,0.0,0.0,0.0,0.0,0.0,0.0,-4.3396,-4.2009,-4.1744,-4.1367,-4.073,-4.0688,-4.0688,-4.0688,-3.9688,-3.8865,-3.8297,-3.6584,-3.5416,-3.4805,-3.4461,-3.3983,-3.342,-3.3746,-3.3596,-3.3111,-3.3111,-3.3111,0.0,-3.2817,-3.2867,-3.3011,-3.1838,-3.1386,-3.1286,-3.0432,-2.9754,-2.9202,0.0,0.0,0.0,0.0,0.0,-3.7066,-3.7787,-3.87,-3.9952,-4.1745,-4.2411,-4.2547,-4.2226,-4.1211,-3.9629,-3.7247,-3.6691,0.0,0.0,0.0,0.0,0.0,0.0,0.0,0.0,0.0,-4.0272,-4.1204,-4.0663,-4.0696,0.0,0.0,0.0,0.0,0.0,0.0,0.0,0.0,0.0,0.0,0.0,0.0,0.0,0.0,0.0,0.0,0.0,0.0,0.0,0.0,0.0,0.0,0.0,0.0,0.0,0.0,-4.309,-4.4885,-4.5633,-4.6621,-4.701,-4.5394,-4.2671,-4.0217,0.0,-3.7015,-3.4921,-3.54,-3.5519,-3.5519,-3.5519,-3.5519,-3.5519,-3.5519,-3.51,-3.5459,-3.7434,0.0,0.0,0.0,0.0,-4.3459,0.0,-4.4453,-4.3378,-4.251,-4.1966,-4.1611,-4.1509,-4.097,-4.0688,-4.0688,-3.9388,-3.8495,-3.8127,-3.597,-3.4736,-3.4322,-3.3893,-3.3445,-3.3093,-3.347,-3.3445,-3.3111,-3.3111,-3.2993,0.0,-3.2817,-3.2717,-3.2533,-3.1687,-3.1286,-3.106,-3.0306,-2.9679,-2.9076,0.0,0.0,0.0,0.0,0.0,-3.7066,-3.7787,-3.914,-4.0383,-4.1102,-4.2462,-4.2869,-4.1545,-4.0867,-3.9903,-3.8409,-3.7181,0.0,0.0,0.0,0.0,0.0,0.0,0.0,-3.9162,-3.9189,-3.988,-4.1204,-4.1204,-4.1204,-4.1204,-4.1204,-4.0798,-4.0113,0.0,0.0,0.0,0.0,0.0,0.0,0.0,0.0,-3.5579,0.0,0.0,0.0,0.0,0.0,0.0,0.0,0.0,0.0,0.0,-3.5519,-3.5789,-3.7075,-4.0277,-4.3269,-4.262,-4.3878,-4.5155,-4.4496,-4.2342,-4.0217,0.0,-3.7375,-3.5489,-3.5519,-3.5519,-3.5519,-3.5519,-3.5519,-3.5519,-3.5519,-3.5489,-3.6178,-3.8123,0.0,0.0,0.0,0.0,0.0,-4.3567,-4.3828,-4.4168,-4.4806,-4.3242,0.0,-4.3239,-4.1622,-4.0688,-4.0688,-3.9388,-3.8714,-3.8687,-3.6155,-3.4874,-3.4874,-3.369,-3.3136,-3.3111,-3.3136,-3.3136,-3.3111,-3.3111,-3.2742,0.0,-3.2215,-3.1913,-3.1411,-3.1386,-3.1085,-3.0633,-3.0608,-3.0256,-2.9628,0.0,0.0,0.0,0.0,0.0,0.0,-3.8531,-3.9503,-4.0383,-4.1102,-4.2049,-4.2328,-4.148,-4.0867,-4.0063,-3.899,-3.733,0.0,0.0,0.0,0.0,0.0,0.0,-3.7594,-3.7969,-3.927,-4.0624,-4.2083,-4.2503,-4.2997,-4.3504,-4.2963,-4.2049,-4.0806,-4.0005,0.0,0.0,0.0,0.0,0.0,0.0,-3.663,-3.6776,0.0,0.0,0.0,0.0,0.0,0.0,0.0,0.0,0.0,0.0,0.0,0.0,-3.5998,-3.8601,-4.1294,-4.1085,-4.2462,-4.3569,-4.2013,-3.9978,-3.8302,-3.8093,-3.6357,-3.4951,-3.54,-3.5519,-3.5519,-3.5519,-3.5519,-3.5519,-3.5519,-3.5519,-3.5729,0.0,0.0,0.0,0.0,0.0,0.0,0.0,0.0,-4.4196,-4.3272,-4.2321,-4.1749,-4.1523,-4.0998,-4.0688,-4.0688,-3.9775,-3.8933,-3.8154,-3.6409,-3.5124,-3.4347,-3.3487,-3.3111,-3.3111,-3.3111,-3.3111,-3.3086,-3.2667,-3.2616,-3.2742,-3.1964,-3.1763,-3.1838,-3.0733,-3.0432,-3.0482,-2.9327,-2.9277,-2.954,0.0,0.0,0.0,0.0,0.0,0.0,-3.8937,-3.9639,-4.0282,-4.073,-4.117,-4.1439,-4.1324,-4.0336,-3.9614,-3.9473,-3.7634,0.0,0.0,0.0,0.0,0.0,-3.6877,-3.7274,-3.7766,-3.9206,-4.0913,-4.2862,-4.353,-4.4248,-4.4993,-4.4519,-4.3443,-4.1989,-4.0951,-3.9804,0.0,0.0,0.0,0.0,-3.6537,-3.6567,-3.6686,0.0,0.0,0.0,0.0,0.0,0.0,0.0,0.0,0.0,0.0,0.0,0.0,0.0,-3.7135,-3.899,-3.92,-4.0546,-4.1526,-4.0337,-3.8721,-3.7404,-3.7404,-3.6088,-3.4981,-3.54,-3.5519,-3.5519,-3.5519,-3.5519,-3.5519,-3.5519,-3.507,-3.51,0.0,0.0,0.0,0.0,0.0,0.0,0.0,-4.4559,-4.434,-4.2934,-4.2072,-4.1446,-4.1053,-4.0828,-4.0688,-4.0688,-3.9968,-3.8907,-3.744,-3.6359,-3.5218,-3.4016,-3.3384,-3.3111,-3.3111,-3.3111,-3.3111,-3.3086,-3.2466,-3.229,0.0,-3.1461,-3.106,-3.0884,-3.0105,-2.9854,-2.988,-2.9051,-2.8975,-2.9086,0.0,0.0,0.0,0.0,0.0,0.0,-3.9073,-3.9673,-4.0113,-4.0113,-4.0113,-4.0363,-4.0993,-3.9401,-3.8713,-3.9746,-3.8131,0.0,0.0,0.0,0.0,-3.6476,-3.6507,-3.7126,-3.8275,-3.9127,-4.0844,-4.3535,-4.4347,-4.5133,-4.5872,-4.5872,-4.5026,-4.3443,-4.2665,-4.1172,0.0,0.0,0.0,0.0,-3.6178,-3.6088,0.0,0.0,0.0,0.0,0.0,0.0,0.0,0.0,0.0,0.0,0.0,0.0,0.0,0.0,0.0,0.0,0.0,-3.8212,-3.92,-3.914,-3.8212,-3.7285,-3.7285,-3.6357,0.0,-3.5519,-3.5519,-3.5519,-3.5519,-3.5519,-3.5519,-3.5519,-3.4412,-3.4442,0.0,0.0,0.0,0.0,-4.3838,0.0,-4.315,-4.4153,-4.4525,-4.3578,-4.2289,-4.1587,-4.1559,-4.0997,-4.0688,-4.0602,-3.9968,-3.863,-3.6638,-3.6074,-3.5153,-3.3935,-3.3363,-3.3111,-3.3154,-3.3111,-3.3086,0.0,-3.2416,-3.1863,-3.1361,-3.0783,-2.9955,-2.9063,-2.9553,-2.9428,-2.9013,-2.9453,-2.9136,-2.8373,0.0,0.0,0.0,0.0,0.0,0.0,0.0,0.0,0.0,0.0,-4.0113,-3.9985,-3.9713,-3.8869,-3.8488,0.0,0.0,0.0,0.0,0.0,0.0,-3.6131,-3.6715,-3.718,-3.7493,-3.9786,-4.1885,-4.371,-4.5454,-4.6645,-4.7365,-4.7365,-4.6312,-4.4282,-4.2992,-4.0656,0.0,0.0,0.0,0.0,-3.5944,-3.5938,0.0,0.0,0.0,0.0,-3.5519,-3.5519,0.0,0.0,0.0,0.0,0.0,0.0,0.0,0.0,-3.5609,-3.5759,-3.5908,0.0,-3.7045,-3.6537,-3.6178,-3.5968,0.0,-3.5729,-3.5519,-3.5519,0.0,0.0,-3.5519,-3.5519,-3.5519,-3.5519,-3.4801,-3.4863,-3.6477,0.0,0.0,-4.2731,-4.5214,-4.6139,-4.436,-4.4632,-4.4456,-4.3421,-4.2285,-4.1418,-4.094,-4.0772,-4.043,-3.9881,-3.9706,-3.8705,-3.6857,-3.6131,-3.521,-3.4058,-3.3401,-3.3368,-3.3836,-3.3326,-3.2842,-3.239,-3.1838,-3.1512,-3.1311,-3.0382,-3.008,-3.0156,-2.9428,-2.9327,-2.9453,-2.8298,-2.8286,-2.85,0.0,0.0,0.0,0.0,0.0,0.0,0.0,0.0,0.0,0.0,-4.0113,-3.9952,-3.9644,-3.9082,-3.889,0.0,0.0,0.0,0.0,-3.7871,-3.7161,-3.6489,-3.689,-3.729,-3.7693,-3.9807,-4.2011,-4.4269,-4.5663,-4.7056,-4.8379,-4.8379,-4.7394,-4.55,-4.3084,-4.0484,-3.7876,-3.7265,0.0,-3.6589,-3.5901,0.0,0.0,0.0,0.0,0.0,-3.5519,-3.5519,0.0,-3.5519,-3.5519,-3.5519,0.0,0.0,0.0,0.0,-3.5519,-3.5519,-3.5519,-3.5759,-3.5938,-3.5579,-3.5519,-3.5519,-3.5519,-3.5519,0.0,0.0,0.0,0.0,0.0,0.0,-3.5519,-3.5519,-3.519,0.0,0.0,0.0,0.0,0.0,-4.5334,-4.5947,0.0,-4.4588,-4.3921,-4.2619,-4.1662,-4.1053,-4.0716,-4.0688,-4.0516,-4.0099,-3.9458,-3.8228,-3.6428,-3.5991,-3.5071,-3.3624,-3.3283,-3.3283,-3.3624,-3.3283,-3.2767,-3.219,-3.1637,-3.126,-3.0959,-3.0131,-2.9804,-2.9804,-2.9453,-2.9202,-2.895,-2.8273,-2.7987,-2.7717,0.0,0.0,0.0,0.0,0.0,0.0,0.0,0.0,0.0,0.0,0.0,0.0,0.0,0.0,0.0,0.0,0.0,0.0,0.0,-3.8452,-3.8052,-3.727,-3.7152,-3.7555,-3.8482,-3.9608,-4.1621,-4.4591,-4.534,-4.6764,-4.8692,-4.8889,-4.8139,-4.6515,-4.3404,-4.1006,-3.921,-3.8072,-3.7241,-3.6754,-3.6101,0.0,0.0,0.0,0.0,0.0,0.0,0.0,0.0,-3.5519,-3.5519,-3.5519,-3.5519,0.0,0.0,0.0,0.0,0.0,-3.5519,-3.5579,-3.5639,-3.5519,-3.5519,-3.5519,-3.5519,0.0,0.0,0.0,0.0,0.0,0.0,-3.5519,0.0,0.0,0.0,0.0,0.0,0.0,0.0,-4.3808,-4.4766,0.0,-4.4588,-4.4153,-4.3272,-4.1818,-4.1096,-4.0688,-4.0688,-4.0688,-4.0645,-4.0516,-3.9326,-3.774,-3.5815,-3.5683,-3.4809,-3.324,-3.3154,-3.3154,-3.324,-3.3154,-3.2717,-3.2064,-3.1587,0.0,-3.0457,-2.998,-2.9503,-2.9063,-2.9603,-2.9202,-2.8398,-2.8762,-2.8076,-2.6928,0.0,0.0,0.0,0.0,0.0,0.0,0.0,0.0,0.0,0.0,0.0,0.0,0.0,0.0,0.0,0.0,0.0,0.0,0.0,-3.8721,-3.8337,-3.8162,-3.7824,-3.8163,-3.9471,-3.9843,-4.1206,-4.3611,-4.4905,-4.6127,-4.7261,-4.8433,-4.7868,-4.5838,-4.5313,-4.3551,-4.095,-4.0043,-3.8921,-3.7716,-3.6817,0.0,0.0,0.0,0.0,0.0,0.0,0.0,0.0,-3.5519,-3.5519,-3.5519,-3.5519,0.0,0.0,0.0,0.0,0.0,-3.5519,-3.5908,-3.6207,-3.5639,-3.5519,-3.5519,-3.5519,0.0,0.0,0.0,0.0,0.0,0.0,-3.5579,-3.5968,0.0,0.0,-3.7823,0.0,0.0,-4.2351,-4.268,0.0,-4.4679,-4.3096,-4.3086,-4.2896,-4.2252,-4.1268,-4.0688,-4.0688,-4.0688,-4.043,-3.9793,-3.9546,-3.8272,-3.5815,-3.5194,-3.4546,-3.3962,-3.3368,-3.3411,-3.392,-3.3368,-3.2491,-3.1512,0.0,-3.0834,-2.9905,-2.9829,-2.9754,-2.9679,-2.9754,-2.9679,-2.9478,-2.9076,-2.8487,-2.7664,0.0,0.0,0.0,0.0,0.0,0.0,0.0,0.0,0.0,0.0,0.0,0.0,0.0,0.0,0.0,0.0,0.0,0.0,-3.9023,-3.8966,-3.911,-3.9469,-3.8942,-3.8958,-3.9666,-4.0136,-4.1495,-4.3791,-4.4535,-4.5717,-4.7307,-4.7634,-4.7056,-4.5669,-4.4857,-4.3501,-4.1814,-4.0691,-3.9744,-3.8901,0.0,0.0,0.0,0.0,0.0,0.0,0.0,0.0,0.0,0.0,-3.5519,-3.5519,-3.5519,0.0,0.0,0.0,0.0,0.0,-3.5519,-3.5729,-3.5878,-3.5579,-3.5519,-3.5245,-3.4339,-3.4129,0.0,0.0,0.0,0.0,0.0,0.0,-3.7063,-3.7614,0.0,-3.9469,-4.0756,-4.1444,-4.2141,0.0,0.0,-4.3935,-4.326,-4.3319,-4.2931,-4.1895,-4.1355,-4.0972,-4.0688,-4.0688,-4.0559,-4.0185,-3.9837,-3.8536,-3.6428,-3.5683,-3.4722,-3.3581,-3.324,-3.324,-3.3539,-3.324,-3.2466,-3.1386,0.0,-3.0783,-2.9804,-2.9804,-2.9804,-2.9804,-2.9804,-2.9603,-2.9227,-2.8348,-2.7871,-2.7437,0.0,0.0,0.0,0.0,0.0,0.0,0.0,0.0,0.0,0.0,0.0,0.0,0.0,0.0,0.0,0.0,0.0,0.0,-3.8676,-3.9122,-3.9709,-4.0367,-4.0068,-4.0021,-4.0317,-4.0534,-4.1626,-4.3753,-4.4081,-4.5352,-4.7502,-4.7095,-4.6529,-4.5757,-4.4591,-4.3591,-4.2679,-4.1498,-4.0766,-4.021,0.0,0.0,0.0,0.0,0.0,0.0,0.0,0.0,0.0,0.0,0.0,0.0,0.0,0.0,0.0,-3.5519,-3.5519,-3.5519,-3.5519,-3.5576,-3.5544,-3.5034,-3.5031,-3.4845,-3.3718,-3.3264,0.0,0.0,0.0,0.0,0.0,-3.627,0.0,-4.024,-4.0636,-4.0905,-4.1713,-4.1833,-4.2222,-4.317,-4.329,-4.3379,-4.3601,-4.3507,-4.2931,-4.1634,-4.1438,-4.1185,-4.073,-4.0688,-4.0602,-4.0473,-3.9917,-3.8662,-3.6645,-3.6122,-3.4942,-3.3111,-3.3111,-3.3111,-3.3111,-3.2943,-3.234,-3.1386,-3.126,-3.0683,-2.9804,-2.9804,-2.9804,-2.9804,-2.9804,-2.9528,-2.9001,-2.7896,-2.7433,-2.7155,0.0,0.0,0.0,0.0,0.0,0.0,0.0,0.0,0.0,0.0,0.0,0.0,0.0,0.0,0.0,0.0,0.0,0.0,-3.8407,-3.905,-3.9709,-4.0367,-4.0935,-4.1572,-4.2171,-4.1033,-4.1175,-4.2727,-4.3464,-4.4997,-4.7237,-4.7331,-4.6914,-4.6061,-4.6098,-4.5387,-4.4091,-4.3295,-4.2537,-4.1645,-3.9594,0.0,0.0,0.0,0.0,0.0,0.0,0.0,0.0,0.0,0.0,0.0,0.0,0.0,-3.5519,-3.5519,-3.5519,-3.5519,-3.5519,-3.5806,-3.5674,-3.3676,-3.3642,-3.4218,-3.4663,-3.4047,0.0,-3.5439,0.0,0.0,0.0,-3.6645,-3.8026,-4.0876,-4.1362,-4.1743,-4.2961,0.0,-4.32,-4.329,-4.329,-4.3319,-4.331,-4.2989,-4.2555,-4.2005,-4.1619,-4.1185,-4.073,-4.0688,-4.0386,-3.9706,-3.9743,-3.851,-3.5903,-3.5943,-3.5025,-3.3111,-3.3111,-3.3111,-3.3068,-3.2516,-3.1964,-3.1361,-3.0884,-3.0331,-2.9804,-2.9804,-2.9804,-2.9804,-2.9804,-2.9754,-2.9603,-2.8473,-2.7802,-2.7262,0.0,0.0,0.0,0.0,0.0,0.0,0.0,0.0,0.0,0.0,0.0,-3.8747,-3.9305,0.0,0.0,0.0,0.0,0.0,-3.7368,-3.8252,-3.908,-3.9768,-4.0816,-4.1542,-4.1782,-4.1692,-4.2291,-4.3648,-4.4964,-4.5908,-4.6491,-4.6144,-4.5558,-4.4816,-4.4009,-4.357,-4.3462,-4.2825,-4.2554,-4.237,-4.0753,-3.9304,0.0,0.0,0.0,0.0,0.0,0.0,0.0,0.0,-3.5519,-3.5429,-3.5011,-3.516,-3.5429,-3.4981,-3.4861,-3.4861,-3.4861,-3.4558,-3.4076,-3.3223,-3.2342,0.0,0.0,-3.2681,-3.2709,-3.3753,-3.4338,0.0,0.0,0.0,-3.8318,-4.1359,-4.2069,-4.2446,-4.319,-4.329,-4.329,-4.329,-4.329,-4.329,-4.329,-4.317,-4.2739,-4.2017,-4.184,-4.1493,-4.073,-4.03,-4.0099,-4.0272,-3.9517,-3.8269,-3.6515,-3.6146,-3.5015,-3.3111,-3.3111,-3.2893,-3.2541,-3.2315,-3.1738,-3.0909,-3.0708,-3.0306,-2.9804,-2.9804,-2.9804,-2.9804,-2.9804,-2.9804,-2.9654,-2.8524,-2.7987,-2.763,0.0,0.0,0.0,0.0,0.0,0.0,0.0,0.0,-3.871,0.0,0.0,0.0,0.0,-3.8529,0.0,0.0,0.0,0.0,-3.6679,-3.7563,-3.8482,-3.9343,-4.0487,-4.1265,-4.1722,-4.2171,-4.291,-4.3977,-4.5485,-4.6015,-4.5534,-4.5076,-4.465,-4.4148,-4.2994,-4.2623,-4.2874,-4.2498,-4.2427,-4.2405,-4.1056,-3.9822,0.0,0.0,0.0,0.0,0.0,0.0,0.0,0.0,-3.504,-3.4831,-3.4593,-3.4673,-3.4747,-3.4241,-3.3932,-3.368,-3.3475,-3.298,-3.2459,-3.2019,0.0,0.0,-3.1694,-3.1812,-3.2063,-3.3373,-3.4204,-3.5317,-3.7254,0.0,0.0,0.0,-4.1818,-4.2537,-4.305,-4.321,-4.329,-4.329,-4.329,-4.325,-4.313,-4.321,-4.289,-4.1881,-4.1922,-4.1462,-4.0193,-3.9821,-3.9738,-3.9801,-3.8935,-3.7948,-3.6907,-3.6273,-3.5125,-3.3411,-3.3768,-3.3292,-3.2215,-3.2039,-3.1461,-3.0608,-3.0432,-3.0131,-2.9804,-2.9804,-2.9804,-2.9804,-2.9804,-2.9804,-2.9679,-2.8725,-2.8247,-2.7862,0.0,0.0,0.0,0.0,0.0,0.0,0.0,0.0,-3.9084,-3.849,-3.8463,0.0,0.0,0.0,0.0,0.0,0.0,0.0,-3.645,-3.7045,-3.8003,-3.9313,-4.0038,-4.0995,-4.2351,-4.2381,-4.2671,-4.329,-4.4646,-4.4975,-4.4287,-4.4386,-4.4365,-4.4342,-4.3751,-4.3169,-4.2676,-4.2654,-4.2378,-4.1743,-4.0217,-3.9605,-3.934,0.0,0.0,0.0,0.0,0.0,0.0,0.0,-3.4023,-3.3604,-3.4294,-3.3965,-3.338,-3.3223,-3.2691,-3.1907,-3.1199,-3.124,-3.1165,0.0,0.0,0.0,-3.2006,-3.1796,-3.2187,-3.4947,-3.5708,-3.602,-3.6401,-3.6716,0.0,-3.888,-4.0465,-4.1823,-4.2607,-4.305,-4.329,-4.329,-4.329,-4.313,-4.2729,-4.305,-4.2769,-4.148,-4.1757,-4.1066,-3.8913,-3.9424,-3.9187,-3.7922,-3.7891,-3.7557,-3.6921,-3.6305,-3.5386,-3.4105,-3.5102,-3.4374,-3.219,-3.1637,-3.111,-3.0583,-3.003,-2.9804,-2.9804,-2.9804,-2.9804,-2.9804,-2.9804,-2.9804,-2.9729,-2.9113,-2.8537,-2.7912,0.0,0.0,0.0,0.0,0.0,0.0,0.0,0.0,-3.8698,-3.906,-3.8339,0.0,0.0,0.0,0.0,0.0,0.0,0.0,-3.6501,-3.7048,-3.7579,-3.7973,-3.911,-3.9888,-4.0277,-4.1692,-4.295,-4.4018,-4.4885,-4.4975,-4.4287,-4.3386,-4.2719,-4.2274,-4.162,-4.1014,-4.0455,-4.0568,-4.0452,-4.0219,-4.0342,-3.9473,-3.812,0.0,0.0,0.0,0.0,0.0,0.0,0.0,0.0,0.0,-3.3724,-3.3515,-3.3099,-3.2638,-3.1877,-3.1065,-3.046,-2.9841,0.0,-2.9369,0.0,0.0,0.0,-3.1796,0.0,0.0,-3.4699,-3.496,-3.6446,-3.6674,0.0,-3.8528,-3.9431,-4.0361,-4.174,-4.2029,-4.2426,-4.321,-4.2589,-4.207,-4.1947,-4.2029,-4.1823,-4.1099,-4.1184,-4.0647,-3.9381,-3.8195,-3.7665,-3.788,-3.6987,-3.6619,-3.6921,-3.6305,-3.5171,-3.3442,-3.3744,-3.3131,-3.1678,-3.2246,-3.1614,-3.003,-2.9854,-2.9804,-2.9804,-2.9804,-2.9804,-2.9804,-2.9804,-2.9804,-2.9729,-2.9113,-2.8537,-2.7949,0.0,0.0,0.0,0.0,0.0,0.0,-4.0004,-3.9307,-3.8695,-3.8617,-3.7966,-3.7646,0.0,0.0,0.0,0.0,0.0,0.0,-3.7002,-3.7,-3.7107,-3.7409,-3.8422,-3.9379,-4.0187,-4.1863,-4.288,-4.315,-4.4317,-4.4317,-4.315,-4.265,-4.2201,-4.1811,-4.1624,-4.0925,-3.9878,-4.0197,-3.9891,-3.9188,-3.9614,-3.9019,-3.7966,0.0,0.0,0.0,0.0,0.0,0.0,0.0,0.0,0.0,-3.3425,-3.2983,-3.2216,-3.1529,-3.0637,-2.9727,-2.8832,-2.8294,0.0,-2.869,-2.9021,-2.9781,-3.1741,0.0,0.0,0.0,-3.4751,-3.4609,-3.6012,-3.6058,0.0,-3.759,-3.8318,-3.9183,-4.049,-4.1042,-4.1657,-4.2508,-4.1864,-4.1449,-4.174,-4.1253,-4.0901,-4.0802,-4.0251,-3.9519,-3.8513,-3.7154,-3.6366,-3.6377,-3.5862,-3.5855,-3.6551,-3.6155,-3.5184,-3.359,-3.4007,-3.3131,-3.1125,-3.1741,-3.1214,-2.9804,-2.9804,-2.9804,-2.9804,-2.9804,-2.9804,-2.9804,-2.9804,-2.9804,-2.9754,-2.9402,-2.8775,-2.7999,0.0,0.0,-3.6815,-3.7464,0.0,0.0,-3.8552,-3.8944,-3.8836,-3.7735,-3.7561,-3.7492,0.0,0.0,0.0,-3.9125,0.0,0.0,-3.7748,-3.7002,-3.6836,-3.7469,-3.8242,-3.9529,-4.1354,-4.2551,-4.2551,-4.1294,-4.309,-4.306,-4.1384,-4.1901,-4.2201,-4.2321,-4.2821,-4.2013,-4.0254,-4.075,-3.991,-3.8297,-3.8247,-3.8273,-3.8241,-3.7591,0.0,0.0,0.0,0.0,0.0,0.0,0.0,0.0,-3.3365,-3.2513,-3.1146,-3.0322,-2.9375,-2.8289,-2.6942,-2.6927,0.0,-2.8097,-2.9227,0.0,-3.2039,-3.4048,-3.573,-3.6132,0.0,-3.4981,-3.5483,-3.5157,-3.5209,-3.6373,-3.7365,-3.8198,-3.8988,-3.9972,-4.0873,-4.1462,-4.1,-4.0944,-4.1686,-4.0504,-3.9873,-4.0346,-3.902,-3.7817,-3.685,-3.6146,-3.5294,-3.4131,-3.4594,-3.5224,-3.6071,-3.5882,-3.5236,-3.4193,-3.5013,-3.3692,-3.0532,-3.0662,-3.0385,-2.9804,-2.9804,-2.9804,-2.9804,-2.9804,-2.9804,-2.9804,-2.9804,-2.9804,-2.9779,-2.9729,-2.9026,-2.7987,0.0,0.0,-3.7497,-3.8183,0.0,0.0,-3.9819,-3.9216,-3.8683,-3.9018,-3.8143,-3.7492,-3.7492,-3.9056,0.0,-3.8309,-4.007,0.0,-3.7608,-3.7774,-3.8055,-3.8192,-3.9828,-4.0973,-4.1422,-4.1654,-4.1414,-4.0606,-4.1025,-4.1294,-4.1392,-4.0457,-4.0606,-4.1602,-4.1205,-4.0217,-3.8781,-3.8412,-3.7432,-3.6205,-3.666,-3.6567,-3.6218,-3.6504,-3.6254,0.0,0.0,0.0,0.0,0.0,0.0,0.0,-3.4053,-3.3191,-3.1747,-3.1002,-2.9706,-2.8315,-2.7399,-2.7228,0.0,0.0,-3.1235,-3.3119,-3.3445,-3.4901,-3.5981,-3.5228,-3.5579,-3.6056,-3.6204,-3.6081,-3.6125,-3.6391,-3.6633,-3.715,-3.8198,-3.8559,-3.9316,-4.0831,-3.964,-3.9006,-3.9711,-3.8617,-3.7909,-3.8023,-3.733,-3.6614,-3.5929,-3.4926,-3.4272,-3.4089,-3.3788,-3.4512,-3.6452,-3.4799,-3.3985,-3.4054,-3.2981,-3.1617,-3.0019,-3.1293,-3.1113,-2.9804,-2.9804,-2.9804,-2.9804,-2.9804,-2.9804,-2.9804,-2.9804,-2.9804,-2.9729,-2.9277,-2.8487,-2.7557,0.0,0.0,0.0,0.0,0.0,0.0,0.0,0.0,-3.9754,-3.9495,-3.858,-3.7861,-3.7554,-3.8714,0.0,0.0,-3.9996,-4.0236,-3.857,-3.813,-3.8214,-3.8852,-4.0487,-4.1422,-4.1422,-4.1085,-4.0576,-3.9918,-3.929,-3.9649,-4.0905,-4.0217,-4.0427,-4.1354,-4.1025,-3.9948,-3.8362,-3.8033,-3.7135,-3.6001,-3.633,-3.6265,-3.6001,-3.633,-3.6051,-3.5519,-3.5519,0.0,0.0,0.0,0.0,0.0,0.0,0.0,-3.2053,-3.1329,-3.0107,-2.8805,-2.7755,0.0,0.0,-2.9779,0.0,-3.3571,-3.3847,-3.4575,-3.5102,-3.4776,-3.5604,-3.6405,-3.6405,-3.6132,-3.5981,-3.5981,-3.5755,-3.5785,-3.6399,-3.7014,-3.774,-3.8671,-3.8238,-3.7968,-3.8353,-3.72,-3.6623,-3.7069,-3.5948,-3.5288,-3.5319,-3.4186,-3.3543,-3.3624,-3.3062,-3.3435,-3.4942,-3.3608,-3.2907,-3.2821,-3.2018,-3.0984,-2.9843,-3.0676,-3.0612,-2.9804,-2.9804,-2.9804,-2.9804,-2.9804,-2.9804,-2.9804,-2.9804,-2.9804,-2.9729,-2.9113,-2.8313,-2.7422,0.0,0.0,0.0,0.0,0.0,0.0,0.0,0.0,0.0,-3.9722,-3.8927,-3.8292,-3.7706,-3.8122,-3.8577,0.0,0.0,0.0,-3.941,-3.8344,-3.8242,-3.9356,-4.0666,-4.1324,-4.1205,-4.0576,-3.9918,-3.923,-3.8003,-3.8482,-4.0576,-4.0337,-4.0636,-4.1422,-4.1145,-4.0068,-3.8392,-3.8153,-3.7375,-3.6327,-3.6327,-3.6327,-3.6327,-3.6327,-3.5968,-3.5489,-3.537,-3.534,-3.534,-3.534,0.0,0.0,0.0,0.0,-3.2345,-3.1613,-3.068,-2.9553,-2.8126,0.0,-2.8624,-3.0231,-3.1863,0.0,-3.3646,-3.3897,-3.4148,-3.45,-3.5378,-3.6128,-3.6128,-3.5705,-3.5357,-3.5357,-3.4981,-3.468,-3.468,-3.5602,-3.6289,-3.6384,-3.6753,-3.7097,-3.7203,-3.6011,-3.5551,-3.6296,-3.4751,-3.4009,-3.4659,-3.3665,-3.3043,-3.2943,-3.2365,-3.2438,-3.3149,-3.234,-3.1863,-3.1707,-3.1435,-3.0791,-2.9804,-2.9804,-2.9804,-2.9804,-2.9804,-2.9804,-2.9804,-2.9804,-2.9804,-2.9804,-2.9804,-2.9729,-2.9578,-2.9001,-2.8127,-2.7189,0.0,0.0,0.0,0.0,0.0,0.0,0.0,0.0,0.0,0.0,-3.9249,-3.8411,-3.8218,-3.8215,-3.8144,-3.7839,-3.893,-3.9316,-3.8529,0.0,0.0,-3.9379,-4.0666,-4.1115,-4.0546,-3.9888,-3.923,-3.8512,-3.7764,-3.8721,-4.1235,-4.0098,-4.0217,-4.1324,-4.0187,-3.92,-3.8332,-3.7195,-3.6297,-3.5639,-3.5639,-3.5639,-3.5639,-3.5639,-3.5579,-3.5429,-3.4831,-3.4653,-3.4653,-3.4653,-3.4173,0.0,0.0,0.0,-3.3181,-3.2312,-3.153,-3.0517,0.0,0.0,-2.9063,0.0,-3.1863,-3.3136,0.0,0.0,-3.45,0.0,-3.45,-3.4951,-3.4951,-3.4876,-3.4826,-3.4826,-3.4731,-3.468,-3.468,-3.4821,-3.5206,-3.5815,-3.5411,-3.5302,-3.5947,-3.4882,-3.4186,-3.4262,-3.3626,-3.328,-3.3341,-3.3205,-3.2842,-3.234,-3.1788,-3.2015,-3.3028,-3.1111,-3.0804,-3.2102,-3.0701,-2.9971,-2.9804,-2.9804,-2.9804,-2.9804,-2.9804,-2.9804,-2.9804,-2.9804,-2.9804,-2.9804,-2.9804,-2.9478,-2.8938,-2.8423,-2.7409,-2.619,0.0,0.0,0.0,0.0,0.0,0.0,0.0,0.0,0.0,0.0,0.0,-3.8906,-3.8471,-3.7958,-3.7499,-3.7238,-3.7698,-3.7907,-3.7825,-3.8433,-3.9013,-3.9378,-3.9986,-4.0157,-3.9858,-3.92,-3.8512,-3.7853,-3.7195,-3.8422,-4.1422,-4.0786,-4.1235,-4.2402,-4.0726,-3.9379,-3.8272,-3.6626,-3.5759,-3.5519,-3.5519,-3.528,-3.4981,-3.537,-3.528,-3.4951,-3.5011,-3.504,-3.4981,-3.4623,-3.4532,-3.4592,-3.4442,0.0,0.0,0.0,-3.2057,-3.1333,-2.9577,-2.9127,-2.9402,0.0,-3.1149,-3.1763,-3.2064,0.0,-3.1937,-3.1942,-3.1653,-3.1995,-3.3938,-3.4045,-3.3891,-3.3891,-3.382,-3.3796,-3.3796,-3.4073,-3.4281,-3.4259,-3.4527,-3.4609,-3.4328,-3.4022,-3.3771,-3.347,-3.3219,-3.2943,-3.2616,-3.2893,-3.2817,-3.224,-3.1687,-3.163,-3.2089,-3.0542,-3.0176,-3.0843,-3.0137,-2.9628,-2.9302,-2.9302,-2.9478,-2.9804,-2.9804,-2.9804,-2.9804,-2.9804,-2.9804,-2.9804,-2.9804,-2.9428,-2.8838,-2.8323,-2.7383,-2.6384,0.0,0.0,0.0,0.0,0.0,0.0,0.0,0.0,0.0,0.0,0.0,-3.8895,-3.8371,0.0,0.0,0.0,-3.6662,-3.6845,-3.7354,-3.7867,-3.8371,-3.8875,-3.8892,-3.8841,-3.8691,-3.8153,-3.7584,-3.6926,-3.6477,-3.8003,-4.1422,-4.1205,-4.2102,-4.3708,-4.1594,-3.9798,-3.8272,-3.6507,-3.5848,-3.5938,-3.5429,-3.4951,-3.4533,-3.4861,-3.4681,-3.4292,-3.4801,-3.4981,-3.4951,-3.4592,-3.4592,-3.4622,-3.3963,-3.3994,0.0,0.0,0.0,0.0,0.0,0.0,-2.9618,-3.0105,-3.0548,-3.0857,0.0,0.0,-2.9624,0.0,-2.8912,-2.9147,-3.1815,-3.2274,-3.2292,-3.2471,-3.2553,-3.2698,-3.2896,-3.3376,-3.3545,-3.3162,-3.3796,-3.3972,-3.3169,-3.3445,-3.352,-3.3119,-3.2943,-3.2667,-3.224,-3.2491,-3.239,-3.1813,-3.1411,-3.1135,-3.0984,-3.0181,-2.9804,-2.9804,-2.9804,-2.9478,-2.8888,-2.8888,-2.9076,-2.9377,-2.9503,-2.9654,-2.9804,-2.9804,-2.9804,-2.9804,-2.9804,-2.9352,-2.8637,-2.8247,-2.7417,-2.6453,0.0,0.0,0.0,0.0,0.0,0.0,0.0,0.0,0.0,0.0,0.0,-3.797,-3.7775,-3.7104,-3.6637,-3.6414,-3.6415,-3.6692,-3.7354,-3.7406,-3.7461,-3.7522,-3.7506,0.0,-3.6656,-3.6596,-3.6267,-3.5609,-3.5579,-3.7554,-4.1422,-4.0756,-4.2132,-4.5065,-4.2491,-4.0247,-3.8302,-3.6985,-3.6776,-3.7135,-3.528,-3.4533,-3.4444,-3.3814,-3.3574,-3.3544,-3.3574,-3.3604,-3.3694,-3.4324,-3.3664,-3.2886,-3.4053,-3.4054,-3.3395,0.0,0.0,0.0,0.0,-3.0006,0.0,-2.9503,-3.0566,0.0,0.0,0.0,-2.8858,-2.7859,-2.7247,-2.7082,-2.7656,-2.8746,-2.9806,-3.0531,-3.1,-3.1557,-3.2332,-3.2835,-3.3119,-3.3111,-3.3162,-3.3144,-3.3136,-3.3136,-3.3119,-3.3111,-3.2566,-3.224,-3.2215,-3.1738,-3.1235,-3.0708,-3.0683,-3.0407,-2.988,-2.9829,-2.9804,-2.9804,-2.9804,-2.9478,-2.8888,-2.8888,-2.8612,-2.8222,-2.8712,-2.9277,-2.9804,-2.9804,-2.9804,-2.9804,-2.9804,-2.9126,-2.8147,-2.8122,-2.7169,-2.5963,0.0,0.0,0.0,0.0,0.0,0.0,0.0,0.0,0.0,0.0,0.0,0.0,0.0,-3.7171,-3.6509,-3.6004,-3.6258,-3.6477,-3.6753,-3.6786,-3.6968,-3.7399,-3.7023,-3.6716,-3.6477,-3.6477,-3.6178,-3.5519,-3.5519,-3.6866,-3.9469,-3.9679,-4.0397,-4.1504,-4.0995,-4.0127,-3.8901,-3.6776,-3.5998,-3.6088,-3.4951,-3.4264,-3.3814,-3.3574,-3.3245,-3.2916,-3.3335,-3.3754,-3.4114,-3.3903,0.0,0.0,0.0,0.0,0.0,0.0,0.0,0.0,0.0,0.0,0.0,-3.0543,-3.0127,-2.9631,-2.9476,-2.7893,-2.6439,-2.6292,-2.5295,-2.4577,-2.5026,-2.6939,-2.8609,-2.8835,-2.9352,-3.0136,-3.142,-3.1554,-3.1915,-3.2975,-3.3111,-3.3111,-3.3111,-3.3111,-3.3089,-3.3088,-3.2525,-3.2054,-3.1749,-3.1554,-3.116,-3.0633,-3.0608,-3.0357,-2.9804,-2.9428,-2.9428,-2.9779,-2.9051,-2.8599,-2.8373,-2.8021,-2.777,-2.762,-2.8172,-2.8725,-2.9227,-2.9227,-2.9227,-2.9202,-2.885,-2.8247,-2.757,-2.757,-2.7022,-2.6263,0.0,0.0,0.0,-3.9529,0.0,-3.7605,-3.7605,-3.6987,-3.6721,-3.7416,0.0,0.0,0.0,0.0,-3.6586,-3.5714,-3.5941,-3.6196,-3.6414,-3.6227,-3.641,-3.706,-3.6479,-3.6148,-3.6148,-3.6148,-3.5938,-3.5519,-3.5519,-3.6477,-3.8392,-3.8631,-3.911,-3.9738,-3.9499,-3.926,-3.896,-3.6985,-3.6148,-3.6028,-3.4681,-3.4023,-3.3814,-3.3814,-3.3363,-3.2794,-3.3688,-3.3986,-3.3926,-3.348,0.0,0.0,0.0,0.0,0.0,0.0,0.0,0.0,-3.1219,0.0,0.0,0.0,0.0,-2.9759,-2.9459,0.0,-2.5739,-2.5043,-2.3885,-2.2981,-2.3153,-2.4924,-2.6547,-2.7091,-2.763,-2.8411,-2.975,-3.0154,-3.073,-3.1846,-3.2454,-3.2717,-3.2541,-3.2667,-3.271,-3.2542,-3.1969,-3.1524,-3.12,-3.0998,-3.0708,-3.0357,-3.0331,-3.0156,-2.9804,-2.9189,-2.9088,-2.9503,-2.8549,-2.8021,-2.7821,-2.7444,-2.7193,-2.7077,-2.7595,-2.8147,-2.8674,-2.8813,-2.8787,-2.8624,-2.8247,-2.777,-2.7293,-2.7293,-2.6977,-2.6471,-4.0397,-4.0427,-4.0217,-3.9559,-3.8332,-3.7434,-3.7434,-3.6357,-3.5789,-3.6447,0.0,0.0,0.0,0.0,0.0,-3.5669,-3.5579,-3.581,-3.6352,-3.5814,-3.575,-3.6352,-3.5814,-3.5519,-3.5519,-3.5519,-3.5519,-3.5519,-3.5519,-3.6477,-3.8302,-3.7674,-3.8422,-4.0187,-3.8272,-3.7734,-3.8272,-3.7614,-3.7375,-3.7165,-3.4532,-3.3873,-3.4503,-3.4412,-3.3806,-3.3107,-3.4407,-3.4053,-3.296,-3.2961,0.0,0.0,0.0,0.0,0.0,0.0,0.0,0.0,0.0,0.0,0.0,0.0,0.0,0.0,-2.8781,0.0,-2.6932,-2.4189,-2.3093,-2.2563,-2.2024,-2.2539,-2.3643,-2.5218,-2.5882,-2.6464,-2.7239,-2.8717,-2.9719,-2.9803,-3.1171,-3.1947,-3.1436,-3.1888,-3.1989,-3.1493,-3.0909,-3.0608,-3.0622,-3.008,-2.9804,-2.9804,-2.9804,-2.9779,-2.9754,-2.9202,-2.8863,-2.8863,-2.8323,-2.7795,-2.7293,-2.7268,-2.7002,-2.6524,-2.7077,-2.757,-2.8097,-2.8612,-2.8574,-2.8072,-2.8072,-2.772,-2.7304,-2.7304,-2.6952,-2.6506,-4.0487,-4.0786,-4.0905,-4.0247,-3.902,-3.8123,-3.8123,-3.7045,-3.6596,0.0,0.0,0.0,-3.7135,-3.7315,-3.7255,-3.6926,-3.6896,-3.6543,-3.5808,-3.5587,-3.5554,-3.5748,-3.5587,-3.5519,-3.5519,-3.5519,-3.5519,-3.5519,-3.5519,-3.5789,-3.6297,-3.6596,-3.7045,-3.7554,-3.7464,-3.6985,-3.6297,-3.6118,-3.6297,-3.6537,-3.4382,-3.3873,-3.4322,-3.2614,-3.1781,-3.1603,-3.1743,-3.2009,-3.2281,-3.2252,-3.2673,-3.3155,0.0,0.0,0.0,0.0,0.0,0.0,-3.1511,0.0,0.0,0.0,0.0,0.0,-3.0708,-2.8271,-2.6049,-2.602,-2.43,-2.27,-2.2503,-2.2676,-2.2872,-2.2921,-2.3823,-2.499,-2.6398,-2.6715,-2.7514,-2.9545,-3.0537,-3.1125,-3.1395,-3.1888,-3.2184,0.0,-3.1198,-3.08,-3.1246,-3.0356,-2.9804,-2.9804,-2.9804,-2.9603,-2.9139,-2.8624,-2.8323,-2.8323,-2.7369,-2.7077,-2.7304,-2.6901,-2.665,-2.6524,-2.7077,-2.7178,-2.7002,-2.7519,-2.7645,-2.7469,-2.7102,-2.6851,-2.6725,-2.6725,-2.6625,-2.6455,-4.0487,-4.1145,-4.1632,-4.0935,-3.9948,-3.923,-3.923,-3.8123,-3.7554,0.0,0.0,0.0,-3.7793,-3.8063,-3.8033,-3.7464,-3.7165,-3.6716,-3.5968,-3.5669,-3.5519,-3.5519,-3.5519,-3.5519,-3.5519,-3.5519,-3.5519,-3.5519,-3.5519,-3.5519,-3.5519,-3.5908,-3.5908,-3.5669,-3.6327,-3.5878,-3.4711,-3.528,-3.5549,-3.5519,-3.4083,-3.4053,-3.4739,-3.3232,-3.254,-3.2384,-3.2101,-3.2333,-3.2605,-3.1589,-3.1954,0.0,0.0,0.0,0.0,0.0,0.0,0.0,0.0,0.0,0.0,0.0,0.0,0.0,-3.1339,-2.9421,-2.7427,-2.6984,-2.5403,-2.3922,-2.3451,-2.3242,-2.3012,-2.2653,-2.3286,-2.3973,-2.4617,-2.5032,-2.5873,-2.7544,-2.9,-2.9941,-3.0024,-3.0941,-3.1468,-3.1318,-3.0648,-3.0417,-3.0785,-3.0139,-2.9679,-2.9428,-2.9428,-2.9151,-2.8562,-2.8047,-2.777,-2.7745,-2.6927,-2.665,-2.6977,-2.665,-2.6499,-2.6524,-2.6826,-2.6801,-2.6524,-2.6851,-2.6977,-2.6952,-2.6625,-2.6499,-2.6499,-2.6499,-2.6499,-2.6465,0.0,-4.1542,-4.2141,-4.1602,-4.0995,-4.0606,-4.0606,-3.9469,-3.8661,0.0,-3.8691,-3.8661,-3.8811,-3.926,-3.902,-3.7734,-3.7045,-3.6596,-3.6387,-3.5818,-3.5519,-3.5519,-3.5519,-3.5519,-3.5519,-3.5519,-3.5519,-3.5519,-3.5519,-3.5519,-3.5519,-3.5519,-3.519,-3.4653,-3.516,-3.4681,-3.3574,-3.4861,-3.4951,-3.4234,-3.3753,-3.4259,-3.5272,-3.4758,-3.4397,-3.4095,-3.3824,-3.3631,-3.3163,-3.1,-3.0973,0.0,0.0,0.0,0.0,0.0,-3.2975,0.0,0.0,0.0,0.0,0.0,-3.2497,0.0,-3.1397,-3.0847,-2.9879,-2.771,-2.658,-2.5724,-2.4874,-2.4351,-2.3977,-2.393,-2.3937,-2.3631,-2.2762,-2.3778,-2.4724,-2.4914,-2.7175,-2.8597,-2.8235,-2.9638,-3.0382,-2.9945,-2.9845,-2.9781,-2.9704,-2.9628,-2.9377,-2.8813,-2.8787,-2.8537,-2.8021,-2.7519,-2.7278,-2.7228,-2.6725,-2.6499,-2.6499,-2.6499,-2.6499,-2.6499,-2.6499,-2.6499,-2.6499,-2.6499,-2.6499,-2.6499,-2.6499,-2.6499,-2.6499,-2.6499,-2.6499,-2.6499,-4.1811,-4.1811,-4.1722,-4.2141,-4.2111,-4.2021,-4.2021,-4.0846,-4.0397,-4.1482,-4.0666,-4.0427,-4.1512,-4.0756,-3.9888,-3.9074,-3.8422,-3.7375,-3.5789,-3.5579,-3.5519,-3.5519,-3.5519,-3.5519,-3.5519,-3.5519,-3.5519,-3.5519,-3.5519,-3.5519,-3.5519,-3.5519,-3.5429,-3.528,-3.4861,-3.4233,-3.3544,-3.4352,-3.3993,-3.2946,-3.3561,-3.3999,-3.4083,-3.2909,-3.2442,-3.2344,-3.2075,-3.1796,-3.1514,-3.1341,-3.1121,-3.1097,0.0,0.0,0.0,-3.285,0.0,0.0,0.0,0.0,0.0,0.0,0.0,0.0,-3.2851,-3.1565,-3.0375,-3.0199,-2.852,-2.7143,-2.7404,-2.7037,-2.6455,-2.5859,-2.5683,-2.5115,-2.365,-2.3577,-2.4179,-2.5658,-2.6892,-2.7939,-2.88,-2.9901,-3.0553,-3.0444,-3.0045,-2.959,-2.9101,-2.8674,-2.8373,-2.8273,-2.8273,-2.7996,-2.7444,-2.7344,-2.7102,-2.665,-2.6549,-2.6499,-2.6499,-2.6499,-2.6499,-2.6499,-2.6499,-2.6499,-2.6499,-2.6499,-2.6499,-2.6499,-2.6499,-2.6499,-2.6499,-2.6499,-2.6499,-2.6499,-4.1324,-4.1692,-4.2021,-4.2351,-4.241,-4.25,-4.2791,-4.2013,-4.1743,-4.2731,-4.2551,-4.2102,-4.1444,-4.1085,-4.0367,-3.902,-3.8003,-3.7015,-3.6058,-3.5699,-3.5519,-3.5519,-3.5519,-3.5519,-3.5519,-3.5519,-3.5519,-3.5519,-3.5519,-3.5519,-3.5519,-3.5519,-3.516,-3.4502,-3.4472,-3.3902,-3.2914,-3.4022,-3.381,-3.2852,-3.3802,-3.4188,-3.4095,-3.3229,-3.2992,-3.2996,-3.2094,-3.1112,-3.0435,-3.1251,-3.1438,0.0,-3.209,-3.2178,-3.2261,0.0,-3.305,-3.248,0.0,0.0,0.0,-3.3331,0.0,0.0,0.0,-3.1987,-3.1242,-3.1469,-2.995,-2.8778,-2.9373,-2.8612,-2.7848,-2.7723,-2.7147,-2.6563,-2.5941,-2.511,-2.4854,-2.5744,-2.6966,-2.783,-2.8192,-2.9401,-3.0198,-3.0177,-2.968,-2.9225,-2.8925,-2.8398,-2.7971,-2.7695,-2.7695,-2.7419,-2.6927,-2.6901,-2.6776,-2.6499,-2.6499,-2.6499,-2.6499,-2.6499,-2.6499,-2.6499,-2.6499,-2.6499,-2.6499,-2.6499,-2.6499,-2.6499,-2.6499,-2.6499,-2.6499,-2.6499,-2.6499,-2.6499,-4.0606,-4.1354,-4.2051,-4.2201,-4.241,-4.2731,-4.323,-4.2791,-4.259,-4.306,-4.3718,-4.3329,-4.1205,-4.1115,-4.0606,-3.911,-3.7315,-3.6447,-3.6836,-3.5878,-3.531,-3.531,-3.5429,-3.5459,-3.531,-3.5429,-3.5519,-3.5519,-3.5519,-3.5519,-3.5519,-3.5519,-3.4921,-3.3903,-3.4173,-3.3661,-3.2643,-3.363,-3.3535,-3.284,-3.3741,-3.4195,-3.425,-3.395,-3.4002,-3.4052,-3.2487,-3.0998,-2.9954,-3.1171,-3.1617,-3.1768,-3.204,-3.2478,0.0,0.0,0.0,0.0,0.0,0.0,0.0,0.0,0.0,-3.3632,0.0,0.0,0.0,-3.2314,0.0,0.0,0.0,0.0,0.0,-2.9717,0.0,0.0,0.0,-2.7582,0.0,-2.604,-2.716,-2.7813,-2.7502,-2.8691,-2.9453,-2.9453,-2.8925,-2.8599,-2.8599,-2.8097,-2.7595,-2.7178,-2.7153,-2.6952,-2.6499,-2.6499,-2.6499,-2.6499,-2.6499,-2.6499,-2.6499,-2.6499,-2.6499,-2.6499,-2.6499,-2.6499,-2.6499,-2.6499,-2.6499,-2.6499,-2.6499,-2.6499,-2.6499,-2.6499,-2.6499,-2.6499,-4.0935,-4.0905,-4.0816,-4.1384,-4.2462,-4.32,-4.329,-4.2791,-4.241,-4.25,-4.303,-4.329,-4.2991,-4.1504,-4.0666,-4.1063,-3.7704,-3.6357,-3.8063,-3.5938,-3.4623,-3.4623,-3.519,-3.522,-3.4623,-3.519,-3.5519,-3.5519,-3.5519,-3.5519,-3.5519,-3.5519,-3.5429,-3.522,-3.4113,-3.375,-3.3921,-3.2759,-3.2162,-3.1978,-3.2528,-3.3048,0.0,-3.3607,-3.3652,-3.3504,-3.2055,-3.1054,-3.0516,0.0,-3.1273,-3.1071,0.0,-3.2482,-3.1423,-3.439,0.0,0.0,0.0,0.0,0.0,0.0,-3.486,0.0,0.0,0.0,-3.4052,-3.3454,0.0,0.0,0.0,0.0,0.0,0.0,0.0,0.0,-3.113,-3.0858,-2.9869,-2.773,-2.7384,-2.7529,-2.8156,-2.8251,-2.8298,-2.8298,-2.7795,-2.7469,-2.7469,-2.6977,-2.665,-2.66,-2.6575,-2.6549,-2.6499,-2.6499,-2.6499,-2.6499,-2.6499,-2.6499,-2.6499,-2.6499,-2.6499,-2.6499,-2.6499,-2.6499,-2.6499,-2.6499,-2.6499,-2.6499,-2.6499,-2.6499,-2.6499,-2.6499,-2.6499,-2.6465,-3.899,-3.9499,-3.9798,-3.9679,-4.0756,-4.1773,-4.2132,-4.3269,-4.3928,-4.3539,-4.4077,-4.4317,-4.3917,-4.2132,-4.1085,0.0,0.0,-3.6956,-3.7764,-3.6447,-3.5489,-3.51,-3.5699,-3.5759,-3.507,-3.537,-3.5519,-3.5519,-3.5519,-3.5424,-3.5326,-3.5326,-3.5118,-3.4701,-3.3591,-3.3199,-3.3343,-3.2595,-3.2344,0.0,0.0,-3.3528,0.0,-3.3571,-3.3178,-3.2577,-3.1768,-3.1078,-3.0516,0.0,-3.1002,0.0,0.0,0.0,0.0,0.0,0.0,0.0,0.0,0.0,0.0,0.0,0.0,0.0,-3.4809,0.0,-3.4533,0.0,0.0,0.0,0.0,0.0,0.0,0.0,-3.2725,0.0,0.0,0.0,-3.1403,0.0,0.0,0.0,-2.8699,-2.8644,-2.8605,-2.8569,-2.8695,-2.8481,-2.7787,-2.7224,-2.6782,-2.6499,-2.6499,-2.6499,-2.6499,-2.6499,-2.6499,-2.6499,-2.6499,-2.6499,-2.6499,-2.6499,-2.6499,-2.6499,-2.6499,-2.6499,-2.6499,-2.6499,-2.6499,-2.6499,-2.6499,-2.6499,-2.6499,-2.6499,-2.6499,-2.6499,-3.7391,0.0,-3.905,-3.8721,-3.9619,-4.0636,-4.1294,-4.311,-4.4385,-4.4265,-4.4474,-4.4624,-4.4504,-4.2742,-4.1825,0.0,-3.9709,-3.8123,0.0,-3.7225,-3.6028,-3.5011,-3.5759,-3.5786,-3.4916,-3.5277,-3.5457,-3.5424,-3.5424,-3.5326,-3.5195,-3.5133,-3.4863,-3.4359,-3.3662,-3.3328,-3.32,-3.2835,-3.2745,-3.2872,-3.3225,-3.342,-3.3494,-3.3513,-3.2815,-3.1833,-3.1599,-3.0965,-3.0291,-3.0411,-3.1228,-3.2039,-3.1492,-3.2198,-3.33,0.0,0.0,0.0,-3.4755,0.0,0.0,0.0,0.0,0.0,0.0,0.0,0.0,0.0,0.0,0.0,0.0,0.0,-3.3514,-3.3569,0.0,-3.3461,0.0,-3.3391,0.0,0.0,0.0,0.0,0.0,-2.9386,-2.9249,-2.9013,-2.9608,-2.9438,-2.8279,-2.7986,-2.7506,-2.685,-2.6763,-2.665,-2.6499,-2.6499,-2.6499,-2.6499,-2.6499,-2.6499,-2.6499,-2.6499,-2.6499,-2.6499,-2.6499,-2.6499,-2.6499,-2.6499,-2.6499,-2.6499,-2.6499,-2.6499,-2.6499,-2.6499,-2.66,-2.6666,-3.7089,-3.7834,-3.8631,-3.926,-3.9948,-4.0636,-4.1294,-4.1858,-4.2664,-4.3842,-4.3456,-4.3586,-4.4864,-4.3189,-4.2823,0.0,0.0,-3.9888,-4.1175,0.0,-3.5609,0.0,0.0,-3.4795,-3.3327,-3.4735,-3.5392,-3.5228,-3.5228,-3.5228,-3.5195,-3.5001,-3.4902,-3.4872,-3.4843,-3.4643,-3.4312,-3.3508,-3.3011,-3.2642,-3.188,-3.1926,-3.2545,0.0,-3.271,-3.1532,-3.1499,0.0,-2.9929,-3.1933,-3.2117,-3.1842,-3.3768,0.0,0.0,0.0,0.0,0.0,0.0,0.0,0.0,-3.3556,0.0,0.0,0.0,0.0,-3.5198,0.0,0.0,0.0,0.0,-3.3933,-3.3694,-3.4352,-3.4286,0.0,0.0,0.0,0.0,0.0,0.0,0.0,0.0,-3.0487,-3.0038,0.0,-2.9923,-2.9834,-2.8541,-2.9099,-2.8897,-2.7696,-2.7394,-2.7027,-2.6499,-2.6499,-2.6499,-2.6499,-2.6499,-2.6499,-2.6499,-2.6499,-2.6499,-2.6499,-2.6499,-2.6499,-2.6499,-2.6499,-2.6499,-2.6499,-2.6499,-2.6499,-2.6499,-2.6499,-2.6826,-2.7097,-3.8811,-3.8796,-3.8477,-3.776,-3.8595,-3.9728,-4.0825,-4.2238,-4.3714,-4.5198,-4.5198,-4.5639,-4.7186,-4.6048,-4.5274,0.0,0.0,-4.1863,-4.1184,-3.9854,0.0,0.0,0.0,-3.6257,0.0,-3.5231,-3.5195,-3.5001,-3.5001,-3.4964,-3.4865,-3.4868,-3.4835,-3.4735,-3.4196,-3.3856,0.0,0.0,0.0,0.0,0.0,-3.3396,-3.4384,0.0,-3.2601,-3.1499,-3.1499,-3.0937,-3.0319,-3.1002,-3.1622,-3.2117,-3.2444,-3.3099,-3.3691,-3.315,-3.3966,-3.4861,-3.3854,-3.4136,-3.4568,-3.3945,0.0,0.0,0.0,0.0,0.0,0.0,0.0,0.0,0.0,-3.4226,-3.4741,-3.4563,-3.4829,-3.5091,0.0,0.0,0.0,0.0,0.0,0.0,0.0,0.0,0.0,0.0,-3.0462,-3.0275,-2.9085,-2.9029,-2.8785,-2.823,-2.7558,-2.7172,-2.7027,-2.6675,-2.6499,-2.6499,-2.6499,-2.6499,-2.6499,-2.6499,-2.6499,-2.6499,-2.6499,-2.6499,-2.6499,-2.6499,-2.6499,-2.6499,-2.6499,-2.6499,-2.6499,-2.6499,-2.66,-2.6696,-3.9883,-3.9228,-3.8436,-3.7929,-3.8517,-3.9429,-4.0633,-4.2508,-4.4294,-4.5812,-4.6085,-4.6732,-4.8297,-4.7344,-4.6466,0.0,-4.5069,-4.3449,-4.1152,-4.0754,0.0,-3.7517,-3.7262,0.0,0.0,0.0,0.0,-3.4581,-3.4953,-3.5003,-3.4698,-3.4798,-3.4735,-3.4568,-3.4359,-3.3926,-3.3451,-3.3443,-3.3174,0.0,0.0,-3.3561,0.0,0.0,-3.2513,-3.2199,-3.1461,-3.0654,-2.9959,-3.0152,-3.0792,-3.1454,-3.1509,-3.238,-3.3254,-3.2253,-3.3198,-3.4245,-3.2806,-3.3274,-3.4065,-3.3413,-3.3648,-3.4036,-3.4071,0.0,-3.4664,0.0,0.0,0.0,0.0,0.0,-3.521,-3.4731,-3.5093,-3.5424,0.0,-3.5261,0.0,0.0,0.0,0.0,0.0,0.0,-3.2205,-3.0764,-3.1425,-3.1197,-2.9676,-2.96,-2.9267,-2.8532,-2.7867,-2.7341,-2.7027,-2.6675,-2.6499,-2.6499,-2.6499,-2.6499,-2.6499,-2.6499,-2.6499,-2.6499,-2.6499,-2.6499,-2.6499,-2.6499,-2.6499,-2.6499,-2.6499,-2.6499,-2.6499,-2.6499,-2.6327,-2.6138,-4.0354,-3.9304,-3.8693,-3.9686,-3.9668,-3.9836,-4.0674,-4.2561,-4.4312,-4.5586,-4.612,-4.6899,-4.8181,-4.7262,-4.658,-4.6801,-4.621,-4.4501,-4.136,-4.114,0.0,0.0,-3.6958,-3.6414,-3.534,0.0,0.0,0.0,-3.5028,-3.5219,-3.4698,-3.4698,-3.4597,-3.4428,-3.5215,-3.4917,-3.3882,-3.4517,-3.4186,-3.3255,-3.2632,-3.2444,-3.2427,-3.1763,-3.2407,-3.3394,-3.1426,-2.9943,-2.9038,-2.9686,-2.9872,-3.0059,-3.1196,-3.1542,-3.1372,-3.0777,-3.1451,-3.1992,-3.0228,-3.1576,-3.3227,-3.2125,-3.2841,-3.3642,-3.3015,0.0,-3.3164,0.0,0.0,0.0,0.0,0.0,-3.507,-3.4935,-3.5261,-3.5424,-3.5261,0.0,0.0,0.0,0.0,0.0,0.0,0.0,-3.3885,-3.1541,-3.2651,-3.2474,0.0,-3.0748,-3.0344,-2.8633,-2.8282,-2.7641,-2.6584,-2.6533,-2.6499,-2.6499,-2.6499,-2.6499,-2.6499,-2.6499,-2.6499,-2.6499,-2.6499,-2.6499,-2.6499,-2.6499,-2.6499,-2.6499,-2.6499,-2.6499,-2.6499,-2.6499,-2.6015,-2.5564,-4.0284,-4.0681,-4.1029,-4.0829,-4.0205,-3.9971,-4.0688,-4.2278,-4.3754,-4.4875,-4.6504,-4.7857,-4.8731,-4.8331,-4.7754,-4.7136,-4.6862,0.0,0.0,0.0,0.0,-4.0182,-3.8885,-3.7804,-3.694,-3.6153,0.0,-3.4501,0.0,-3.4477,-3.4496,-3.4631,-3.4597,-3.4428,-3.4777,-3.425,-3.3197,-3.3854,-3.3817,-3.3255,-3.2632,-3.3047,-3.3872,-3.2132,-3.2155,-3.2794,-3.1208,-3.0156,-2.9635,-3.0645,-3.0698,-3.0601,-3.1772,-3.1889,-3.1378,-3.0775,-3.1125,-3.1509,-3.0629,-3.1203,-3.211,-3.2404,-3.2387,-3.247,-3.2898,-3.3,-3.2734,0.0,0.0,0.0,0.0,0.0,-3.4309,0.0,0.0,0.0,0.0,0.0,0.0,-3.5424,0.0,0.0,0.0,-3.4345,-3.3504,-3.2629,-3.2357,-3.1737,-3.0535,-3.1168,-3.0987,-2.9748,-2.9086,-2.8395,-2.7695,-2.6907,-2.6499,-2.6499,-2.6499,-2.6499,-2.6499,-2.6499,-2.6499,-2.6499,-2.6499,-2.6499,-2.6499,-2.6499,-2.6499,-2.6499,-2.6499,-2.6499,-2.6499,-2.6499,-2.6377,-2.6347,-4.1337,-4.2208,-4.2449,-4.0887,-4.1227,-4.1893,-4.2365,-4.2836,-4.3658,-4.4949,-4.6311,-4.7339,-4.7752,-4.8148,-4.8045,-4.7269,-4.689,0.0,-4.4116,0.0,0.0,-4.1396,-3.9778,-3.8506,-3.7791,-3.6353,0.0,-3.5073,0.0,-3.4477,-3.4971,-3.4848,-3.4635,-3.4428,-3.4893,-3.4603,-3.3842,-3.4076,-3.4179,-3.4156,-3.2636,-3.2508,0.0,-3.1408,-3.1034,-3.1358,-3.0554,-3.0047,-2.9829,-3.0477,-3.067,-3.0773,-3.1656,-3.1552,-3.1047,-3.0701,-3.0865,-3.0996,-3.0419,-3.0846,-3.1553,-3.1736,-3.1736,-3.1729,-3.1918,-3.1965,-3.1729,-3.0913,-3.1541,-3.2152,-3.2,-3.2554,0.0,0.0,0.0,0.0,0.0,0.0,0.0,0.0,-3.4891,0.0,-3.5429,-3.4292,-3.3242,-3.2608,-3.2397,-3.2035,-3.1377,-3.1825,-3.1481,-3.01,-2.9787,-2.9021,-2.7713,-2.7154,-2.6725,-2.6499,-2.6499,-2.6499,-2.6499,-2.6499,-2.6499,-2.6499,-2.6499,-2.6499,-2.6499,-2.6499,-2.6499,-2.6499,-2.6499,-2.6499,-2.6499,-2.6499,-2.6397,-2.6355,-4.2673,-4.3371,-4.3068,-4.0773,-4.261,-4.4457,-4.4764,-4.4167,-4.4144,-4.5609,-4.615,-4.6431,-4.6406,-4.7331,-4.7673,-4.715,-4.6532,-4.5464,-4.3835,-4.302,-4.2269,-4.1596,-4.0067,-3.8948,-3.8158,-3.6532,-3.5653,0.0,-3.4637,-3.467,-3.5517,-3.5033,-3.4668,-3.4428,-3.5151,0.0,0.0,-3.4434,-3.4569,-3.4885,-3.2481,-3.1516,-3.1368,-3.0216,-2.9804,-2.9804,-2.9804,-2.9804,-2.9804,-2.988,-3.0206,-3.0708,-3.1235,-3.1085,-3.0708,-3.0633,-3.0583,-3.0496,-2.9959,-3.052,-3.1182,-3.0707,-3.0959,-3.1162,-3.0695,-3.0553,-3.0454,-3.0375,-3.0473,-3.0679,-3.112,-3.1747,0.0,0.0,0.0,0.0,0.0,0.0,0.0,0.0,0.0,0.0,-3.5245,-3.4291,-3.3273,-3.2373,-3.2815,-3.2893,0.0,0.0,-3.1857,-2.9984,-3.0115,-2.9285,-2.7325,-2.7246,-2.7002,-2.66,-2.6524,-2.6499,-2.6499,-2.6499,-2.6499,-2.6499,-2.6499,-2.6499,-2.6499,-2.6499,-2.6499,-2.6499,-2.6499,-2.6499,-2.6499,-2.6499,-2.6342,-2.6153,-4.217,-4.2496,-4.2644,-4.2525,-4.3989,-4.5493,-4.6414,-4.6514,-4.6399,-4.6216,-4.7335,-4.7873,-4.7107,-4.6971,-4.679,-4.6511,-4.5858,0.0,0.0,0.0,0.0,-4.2394,-4.0942,-3.9648,-3.8435,-3.6687,-3.5661,-3.5357,-3.3863,-3.3667,-3.4608,-3.4525,-3.4433,-3.4428,0.0,0.0,-3.3259,-3.3084,0.0,-3.2869,-3.1884,-3.1516,-3.1368,-3.0216,-2.9804,-2.9804,-2.9804,-2.9804,-2.9854,-3.0306,-3.0532,-3.0708,-3.1235,-3.1336,-3.116,-3.0733,-3.0612,-3.0475,-2.9943,-2.9934,-3.0177,-3.0507,-3.0343,-3.019,-3.0528,-3.0265,-2.9809,-2.9301,-2.9207,-2.9345,-2.9636,-3.0767,0.0,0.0,0.0,0.0,0.0,0.0,0.0,0.0,0.0,-3.2993,0.0,-3.4254,-3.4262,-3.408,-3.4044,-3.341,-3.2131,0.0,-3.1984,0.0,-2.9315,-2.8818,0.0,-2.7103,-2.6826,-2.7178,-2.67,-2.6499,-2.6499,-2.6499,-2.6499,-2.6499,-2.6499,-2.6499,-2.6499,-2.6499,-2.6499,-2.6499,-2.6499,-2.6499,-2.6499,-2.6499,-2.6741,-2.7001,-4.2032,-4.2452,0.0,-4.2461,-4.4556,-4.6396,-4.6911,-4.7258,-4.723,-4.6399,-4.6639,-4.6684,-4.6266,-4.664,-4.6924,-4.6764,-4.5605,-4.4846,-4.4846,-4.3104,-4.2064,-4.2064,-4.1,-3.9874,-3.8762,-3.6807,-3.5913,-3.6194,-3.4094,-3.3763,-3.5093,-3.4709,-3.4298,-3.3756,0.0,-3.3367,0.0,0.0,-3.2596,-3.3008,-3.1589,-3.122,-3.1368,-3.0216,-2.9804,-2.9804,-2.9804,-2.9804,-2.988,-3.0432,-3.0984,-3.1436,-3.1411,-3.1386,-3.1336,-3.1085,-3.0834,-3.0557,-3.0306,-3.0005,-2.9856,-3.0139,-3.0011,-2.9856,-3.0139,-3.0011,-2.9628,-2.9013,-2.8879,-2.8853,-2.8644,-2.9558,-3.0594,-3.1429,0.0,0.0,0.0,0.0,0.0,0.0,0.0,0.0,0.0,-3.4058,-3.4099,0.0,0.0,-3.3478,-3.267,-3.2918,-3.2272,0.0,0.0,0.0,-2.8076,0.0,-2.7494,-2.6876,-2.6625,-2.6499,-2.6499,-2.6499,-2.6499,-2.6499,-2.6499,-2.6499,-2.6499,-2.6499,-2.6499,-2.6499,-2.6499,-2.6499,-2.6499,-2.6499,-2.665,-2.6892,-4.2289,-4.2887,-4.3322,-4.3041,-4.5348,-4.727,-4.7133,-4.7518,-4.7595,-4.6967,-4.6084,-4.5498,-4.5509,-4.642,-4.6897,-4.6645,-4.5268,-4.4275,-4.3966,-4.2485,-4.1446,-4.1174,-4.0391,-3.9564,-3.8644,-3.6648,-3.5845,-3.6296,-3.3987,-3.3539,-3.475,-3.445,-3.3836,-3.2932,0.0,0.0,-3.3199,-3.2164,-3.2255,-3.2992,-3.14,-3.0996,-3.122,-3.033,-2.9971,-2.9955,-2.9829,-3.0005,-3.0331,-3.0532,-3.126,-3.1964,-3.1537,-3.1562,-3.1687,-3.1461,-3.1185,-3.0934,-3.0809,-3.0457,-3.0105,-3.0005,-2.9955,-2.993,-2.9829,-2.9804,-2.9628,-2.9013,-2.8729,-2.8392,-2.793,-2.8451,-2.9342,-3.0477,0.0,0.0,0.0,0.0,0.0,0.0,0.0,0.0,-3.3028,0.0,0.0,0.0,0.0,-3.3513,-3.3061,-3.3025,-3.2326,-3.0854,-3.1259,-3.0317,-2.7874,0.0,-2.7864,-2.6675,-2.6549,-2.6499,-2.6499,-2.6499,-2.6499,-2.6499,-2.6499,-2.6499,-2.6499,-2.6499,-2.6499,-2.6499,-2.6499,-2.6575,-2.6675,-2.6675,-2.6826,-2.7077,-4.3227,-4.3693,-4.4177,-4.6079,-4.744,-4.8069,-4.7518,-4.7656,-4.8036,-4.8649,-4.7529,-4.655,-4.6238,-4.6307,-4.5914,-4.4762,-4.4509,-4.3892,-4.27,-4.1938,-4.0959,-3.9776,-3.906,-3.8372,-3.7739,-3.5904,-3.4607,0.0,-3.2496,-3.1775,-3.1748,-3.2618,-3.2773,-3.2155,-3.1638,-3.1042,-3.0489,-3.0921,-3.0994,-3.0922,-3.1293,-3.1145,-3.0696,-3.0582,-3.0522,-3.0482,-2.998,-3.0733,-3.1838,-3.0934,-3.0984,-3.1461,-3.1411,-3.2089,-3.2759,-3.1687,-3.1712,-3.1964,-3.1461,-3.1286,-3.1135,-3.0658,-3.0532,-3.0407,-2.9905,-2.9804,-2.9628,-2.9013,-2.8133,-2.7425,-2.7359,-2.784,-2.8317,-2.8701,0.0,0.0,0.0,0.0,-3.2812,-3.3482,0.0,0.0,0.0,-3.0965,0.0,0.0,-3.3456,-3.3873,-3.2647,-3.282,-3.1843,-2.9299,-2.9553,-2.8985,-2.7369,-2.6955,-2.6921,-2.7228,-2.6725,-2.6499,-2.6499,-2.6499,-2.6499,-2.6499,-2.6499,-2.6499,-2.6499,-2.6499,-2.6499,-2.6499,-2.6499,-2.6801,-2.7253,-2.7253,-2.7846,-2.8662,-4.4257,-4.4271,-4.4666,-4.7096,-4.7684,-4.7785,-4.7703,-4.6988,-4.6727,-4.754,-4.7191,-4.6775,-4.6827,-4.6504,-4.5748,-4.4422,-4.3551,-4.2579,-4.1201,-4.0561,-3.983,-3.8941,-3.8629,-3.8229,-3.7599,-3.6199,-3.5047,0.0,0.0,-3.26,-3.2264,-3.2372,-3.1873,-3.0874,-3.0163,-2.9699,-2.9383,-2.9652,-3.0084,-3.0634,-3.0854,-3.1255,-3.1552,-3.0867,-3.0604,-3.0532,-2.998,-3.0432,-3.1185,-3.0758,-3.0959,-3.1336,-3.1009,-3.1235,-3.1562,-3.1436,-3.1537,-3.1662,-3.1461,-3.116,-3.0809,-3.0256,-3.0131,-3.0055,-2.9854,-2.9804,-2.9628,-2.9013,-2.8047,-2.7193,-2.6876,-2.7278,-2.7864,-2.8664,0.0,0.0,0.0,0.0,0.0,-3.1556,0.0,0.0,0.0,-3.0373,0.0,0.0,-3.2418,-3.2971,-3.2913,-3.1738,-3.074,-2.9935,0.0,-2.8577,-2.725,-2.7447,-2.7274,-2.6826,-2.66,-2.6499,-2.6499,-2.6499,-2.6499,-2.6499,-2.6499,-2.6675,-2.6977,-2.6625,-2.67,-2.6952,-2.6625,-2.6826,-2.7293,-2.7293,-2.777,-2.8473,-4.4333,-4.4433,-4.5012,-4.7323,-4.7668,-4.7554,-4.7524,-4.6381,-4.5713,-4.625,-4.5996,-4.6095,-4.6861,-4.6392,-4.5455,-4.4041,-4.3095,-4.1822,-4.0097,-3.958,-3.8906,-3.7913,-3.7887,0.0,-3.7239,-3.614,-3.5031,-3.4015,-3.3436,0.0,-3.1978,-3.1777,-3.1055,-2.9977,-2.9441,-2.9176,-2.9176,-2.9176,-2.9808,-3.0855,-3.1015,-3.1502,-3.1957,-3.1142,-3.0867,-3.0758,-3.0231,-3.0482,-3.1085,-3.1085,-3.1336,-3.1537,-3.1009,-3.0959,-3.116,-3.1512,-3.1637,-3.1637,-3.1637,-3.1361,-3.0909,-3.0206,-3.003,-2.998,-2.9829,-2.9804,-2.959,-2.8862,-2.8113,-2.7379,-2.676,-2.7144,-2.7809,-2.8446,-2.9632,0.0,0.0,-3.0829,0.0,0.0,-2.9449,-2.8967,-2.9345,-2.9563,0.0,0.0,0.0,-3.1319,-3.2154,-3.0867,-2.9957,0.0,0.0,0.0,-2.7019,-2.7439,-2.7292,-2.6499,-2.6499,-2.6499,-2.6499,-2.6499,-2.6499,-2.6499,-2.6499,-2.6725,-2.7052,-2.665,-2.6826,-2.7253,-2.67,-2.7027,-2.7745,-2.7595,-2.7971,-2.8649,-4.3149,-4.4098,-4.5183,-4.7077,-4.7622,-4.7556,-4.6876,-4.6058,-4.5418,-4.518,-4.4122,-4.415,-4.6119,-4.5717,-4.4737,-4.3335,-4.3232,-4.2064,-3.9407,-3.9184,-3.8357,0.0,0.0,-3.6405,-3.6405,-3.5324,-3.4173,-3.3111,0.0,0.0,-2.9843,-3.0396,-3.0306,-2.9818,-2.9779,-2.9779,-2.9779,-2.9779,-3.0407,-3.1442,-3.2049,-3.1954,-3.1417,-3.1472,-3.1468,-3.1311,-3.0783,-3.1286,-3.219,-3.219,-3.219,-3.2114,-3.1562,-3.1763,-3.219,-3.2215,-3.2215,-3.2215,-3.2215,-3.219,-3.1938,-3.0859,-3.0608,-3.0457,-2.9905,-2.9804,-2.9513,-2.8519,-2.8319,-2.7971,-2.7072,-2.7662,-2.8123,-2.7594,-2.9276,0.0,0.0,-3.0263,0.0,-3.0603,-2.9542,-2.861,-2.8085,-2.802,0.0,0.0,0.0,-2.8935,-2.9806,-3.0435,-2.9859,-2.7796,-2.8358,0.0,-2.6533,-2.6533,-2.6499,-2.6499,-2.6499,-2.6499,-2.6499,-2.6499,-2.6499,-2.6499,-2.6499,-2.6499,-2.6499,-2.6499,-2.6826,-2.7253,-2.67,-2.7469,-2.8813,-2.8298,-2.88,-2.9779,-4.5151,-4.5714,-4.641,-4.8179,-4.8572,-4.7865,-4.5706,-4.51,-4.4571,-4.3543,-4.271,-4.2708,-4.3918,-4.437,-4.3938,-4.2533,-4.2382,-4.1425,-3.9117,-3.8612,-3.7956,-3.7008,-3.6606,-3.6405,-3.6405,-3.5655,-3.4881,-3.4198,-3.3646,-3.2516,-3.0884,-3.1436,-3.121,-3.0357,-3.0357,-3.0357,-3.0357,-3.0357,-3.0758,-3.1477,-3.1994,-3.2357,-3.2508,-3.212,-3.1953,-3.1888,-3.1336,-3.1612,-3.2164,-3.1788,-3.2164,-3.2692,-3.2139,-3.1813,-3.1738,-3.2114,-3.2215,-3.2215,-3.2215,-3.1938,-3.1486,-3.0783,-3.0331,-3.0005,-2.9829,-2.9804,-2.9513,-2.8519,-2.8281,-2.7995,-2.7021,-2.7107,-2.7413,-2.7607,-2.7911,0.0,-2.875,0.0,-2.8052,-2.8333,-2.7968,-2.7663,-2.7464,-2.7464,0.0,0.0,0.0,-2.8873,-3.0316,-2.9662,-2.9127,-2.8812,-2.847,0.0,-2.7052,-2.7052,-2.6876,-2.6499,-2.6499,-2.6499,-2.6499,-2.6499,-2.6499,-2.6524,-2.6901,-2.7243,-2.757,-2.757,-2.7921,-2.8348,-2.7795,-2.8122,-2.8863,-2.8687,-2.9151,-2.9804,-4.4892,-4.5437,-4.5926,-4.6624,-4.7359,-4.6943,-4.4281,-4.4148,-4.3753,-4.219,-4.1569,-4.1492,-4.215,-4.2675,-4.2614,-4.1696,-4.1842,-4.1005,-3.8693,-3.8216,-3.7663,-3.6958,-3.6581,-3.6405,-3.6405,-3.583,-3.5332,-3.4981,-3.4073,-3.3169,-3.234,-3.224,-3.1863,-3.121,-3.121,-3.121,-3.121,-3.121,-3.1537,-3.2064,-3.239,-3.2742,-3.3018,-3.2441,-3.2215,-3.2164,-3.1813,-3.1913,-3.219,-3.2064,-3.2491,-3.3018,-3.2641,-3.229,-3.2089,-3.2441,-3.239,-3.2215,-3.2215,-3.1964,-3.1562,-3.1035,-3.0658,-3.0331,-3.0156,-2.993,-2.9563,-2.879,-2.86,-2.8313,-2.7334,-2.7368,-2.7488,-2.744,-2.7334,-2.74,-2.7773,0.0,-2.7055,0.0,0.0,-2.7162,-2.7027,-2.696,-2.7087,0.0,0.0,0.0,-2.935,-2.8907,-2.8621,-2.8557,-2.825,-2.7946,-2.7595,-2.7595,-2.7419,-2.7102,-2.7102,-2.7002,-2.6801,-2.6801,-2.6801,-2.6826,-2.7178,-2.7523,-2.7877,-2.8024,-2.8312,-2.8649,-2.8249,-2.8574,-2.9189,-2.8963,-2.9302,-2.9804,-4.3098,-4.3738,-4.4042,-4.3295,-4.4679,-4.5113,-4.2866,-4.3205,-4.3041,-4.1076,-4.0591,-4.051,-4.0796,-4.0896,-4.0896,-4.0846,-4.1495,-4.0824,-3.8239,-3.804,-3.7538,-3.6505,-3.643,-3.6405,-3.6405,-3.5855,-3.5533,-3.5508,-3.3997,-3.3495,-3.3922,-3.2867,-3.2365,-3.234,-3.229,-3.224,-3.2215,-3.2215,-3.2516,-3.3061,-3.3068,-3.3111,-3.3061,-3.2491,-3.2265,-3.2265,-3.2265,-3.2265,-3.2365,-3.2893,-3.3111,-3.3111,-3.3111,-3.3111,-3.3111,-3.3111,-3.2692,-3.2265,-3.2265,-3.224,-3.2089,-3.1587,-3.1411,-3.126,-3.0733,-3.0206,-2.9713,-2.917,-2.9091,-2.8802,-2.7903,-2.8089,-2.8089,-2.7203,-2.731,-2.7368,-2.7048,-2.7185,-2.7203,-2.6884,0.0,-2.7011,-2.6705,-2.6559,-2.6506,0.0,0.0,0.0,0.0,-2.8313,-2.8426,-2.7454,-2.7946,-2.8197,-2.8172,-2.8172,-2.8147,-2.8097,-2.8097,-2.7846,-2.7379,-2.7379,-2.7379,-2.7379,-2.7369,-2.7478,-2.7619,-2.805,-2.8301,-2.842,-2.8275,-2.8875,-2.9729,-2.9176,-2.9327,-2.9804,-4.3823,-4.4152,-4.4424,-4.4832,-4.5289,-4.4917,-4.2892,-4.2736,-4.2164,-4.0235,-3.9901,-3.9874,-3.9955,-4.0542,-4.0643,-4.0032,-4.0694,-4.0485,-3.8818,-3.8241,-3.7688,-3.701,-3.6631,-3.6405,-3.6405,-3.6279,-3.5956,-3.5508,-3.5107,-3.4781,-3.4525,-3.4204,-3.3897,-3.347,-3.3068,-3.2616,-3.2215,-3.2215,-3.229,-3.2466,-3.2893,-3.3111,-3.3068,-3.2918,-3.2867,-3.2867,-3.2867,-3.2867,-3.2893,-3.3043,-3.3111,-3.3111,-3.3111,-3.3111,-3.3111,-3.3111,-3.2993,-3.2867,-3.2867,-3.2541,-3.219,-3.2039,-3.1712,-3.126,-3.0733,-3.0507,-3.0163,-2.9268,-2.9091,-2.8924,-2.8409,-2.7753,-2.732,-2.7512,-2.6399,-2.5779,-2.659,-2.5961,-2.5623,0.0,-2.6257,-2.6346,-2.625,-2.6202,-2.6481,0.0,0.0,-2.7146,-2.7896,-2.8534,-2.8786,-2.8549,-2.9101,-2.9176,-2.8712,-2.8687,-2.8524,-2.8097,-2.8097,-2.8047,-2.7921,-2.7921,-2.7921,-2.7921,-2.8348,-2.855,-2.8625,-2.9164,-2.9439,-2.9424,-2.9414,-2.9553,-2.9779,-2.9628,-2.9679,-2.9804,-4.3577,-4.4042,-4.4315,-4.4344,-4.4546,-4.4098,-4.2312,-4.1878,-4.1338,-3.9876,-3.9697,-3.9697,-3.9697,-4.0083,-4.0185,-3.9749,-4.044,-4.0233,-3.8567,-3.8191,-3.7638,-3.6883,-3.6556,-3.6405,-3.6405,-3.6405,-3.6254,-3.5906,-3.5633,-3.5483,-3.5454,-3.4951,-3.47,-3.4625,-3.4073,-3.352,-3.2993,-3.2993,-3.2842,-3.2641,-3.2943,-3.3111,-3.3111,-3.3111,-3.3111,-3.3111,-3.3111,-3.3111,-3.3111,-3.3111,-3.3111,-3.3111,-3.3111,-3.3111,-3.3111,-3.3111,-3.3111,-3.3111,-3.3111,-3.2842,-3.2616,-3.2616,-3.219,-3.1687,-3.1411,-3.0959,-3.0453,-2.9891,-2.9603,-2.9351,-2.9155,-2.825,-2.7538,-2.7586,-2.6356,-2.548,-2.5757,-2.5338,-2.5135,-2.5409,-2.584,-2.6128,-2.6181,-2.633,-2.6636,-2.7149,-2.7186,-2.747,-2.8176,-2.8698,-2.8948,-2.8888,-2.9503,-2.9654,-2.9327,-2.9327,-2.9176,-2.8875,-2.8875,-2.8725,-2.8473,-2.8473,-2.8473,-2.8461,-2.8762,-2.8925,-2.9021,-2.9576,-2.9663,-2.9507,-2.9702,-2.9804,-2.9804,-2.9804,-2.9804,-2.9804,-4.276,-4.3577,-4.3903,-4.3129,-4.33,-4.3049,-4.1544,-4.1026,-4.0594,-3.98,-3.9697,-3.9697,-3.9697,-3.9697,-3.9697,-3.9697,-4.0338,-3.9954,-3.814,-3.7939,-3.7437,-3.6455,-3.6405,-3.6405,-3.6405,-3.6405,-3.6405,-3.6405,-3.5906,-3.5906,-3.638,-3.5403,-3.5132,-3.5483,-3.5006,-3.455,-3.4022,-3.3922,-3.3621,-3.3194,-3.3119,-3.3111,-3.3111,-3.3111,-3.3111,-3.3111,-3.3111,-3.3111,-3.3111,-3.3111,-3.3111,-3.3111,-3.3111,-3.3111,-3.3111,-3.3111,-3.3111,-3.3111,-3.3111,-3.3111,-3.3136,-3.3194,-3.2767,-3.2315,-3.224,-3.1512,-3.0809,-3.0658,-3.0256,-2.9905,-2.9804,-2.9021,-2.8248,-2.7792,-2.6858,-2.5925,-2.5182,-2.5183,-2.5194,-2.5015,-2.5601,-2.612,-2.63,-2.6614,-2.6828,-2.6938,-2.7339,-2.7811,-2.8404,-2.885,-2.9118,-2.9164,-2.9578,-2.9804,-2.9804,-2.9804,-2.9804,-2.9804,-2.9804,-2.9528,-2.9013,-2.9013,-2.9013,-2.9013,-2.9013,-2.9098,-2.9248,-2.9624,-2.9585,-2.9248,-2.9624,-2.9804,-2.9804,-2.9804,-2.9804,-2.9804,-4.2313,-4.2826,-4.3129,-4.3042,-4.2709,-4.2182,-4.1404,-4.0908,-4.0381,-3.9747,-3.9697,-3.9697,-3.9697,-3.9697,-3.9697,-3.9697,-3.98,-3.9373,-3.809,-3.7563,-3.7036,-3.643,-3.6405,-3.6405,-3.6405,-3.6405,-3.6405,-3.6405,-3.6329,-3.6329,-3.6405,-3.6229,-3.5906,-3.5508,-3.5408,-3.5056,-3.4575,-3.4098,-3.3847,-3.3746,-3.3269,-3.3111,-3.3111,-3.3111,-3.3111,-3.3111,-3.3111,-3.3111,-3.3111,-3.3111,-3.3111,-3.3111,-3.3111,-3.3111,-3.3111,-3.3111,-3.3111,-3.3111,-3.3111,-3.3111,-3.3194,-3.3646,-3.3345,-3.2817,-3.2315,-3.2089,-3.1712,-3.0809,-3.0557,-3.0357,-2.988,-2.9251,-2.8787,-2.8687,-2.7508,-2.6553,-2.6419,-2.5529,-2.5002,-2.5349,-2.5628,-2.5939,-2.6408,-2.6493,-2.6876,-2.7679,-2.7296,-2.7607,-2.8919,-2.8971,-2.9376,-3.0331,-2.998,-2.9804,-2.9804,-2.9804,-2.9804,-2.9804,-2.9804,-2.9754,-2.9654,-2.9654,-2.9654,-2.9654,-2.9654,-2.9665,-2.9702,-2.974,-2.974,-2.9702,-2.974,-2.9804,-2.9804,-2.9804,-2.9804,-2.9804,-4.1656,-4.2158,-4.2434,-4.2133,-4.1882,-4.153,-4.0978,-4.0425,-3.9973,-3.9722,-3.9697,-3.9798,-4.0099,-3.9873,-3.9823,-4.0124,-3.9597,-3.9019,-3.8517,-3.7939,-3.7387,-3.6835,-3.6556,-3.6405,-3.6405,-3.6707,-3.6707,-3.6405,-3.6707,-3.6707,-3.6405,-3.6405,-3.6279,-3.5981,-3.5981,-3.568,-3.5107,-3.4856,-3.4625,-3.4299,-3.3746,-3.352,-3.352,-3.352,-3.352,-3.3571,-3.3847,-3.3771,-3.352,-3.352,-3.3319,-3.3111,-3.3111,-3.3111,-3.3111,-3.3111,-3.3111,-3.3111,-3.3111,-3.3111,-3.3187,-3.3395,-3.3269,-3.3061,-3.2742,-3.2441,-3.2064,-3.1562,-3.1235,-3.0859,-3.0331,-2.9779,-2.9402,-2.9402,-2.7866,-2.6747,-2.6858,-2.5874,-2.5279,-2.5567,-2.5923,-2.6313,-2.6818,-2.6887,-2.7059,-2.7493,-2.7252,-2.7538,-2.8712,-2.8998,-2.9584,-3.0568,-3.0633,-3.0658,-3.0658,-3.0658,-3.0507,-3.0231,-3.0231,-3.008,-2.9804,-2.9804,-2.9804,-2.9804,-2.9804,-2.9804,-2.9804,-2.9804,-2.9804,-2.9804,-2.9804,-2.9804,-2.9804,-2.9804,-2.9804,-2.9804,-4.1025,-4.158,-4.1831,-4.1351,-4.1175,-4.1,-4.0752,-4.0124,-3.9747,-3.9873,-3.9772,-3.9848,-4.0275,-3.9948,-3.9873,-4.03,-3.9546,-3.912,-3.912,-3.8517,-3.7965,-3.7387,-3.6883,-3.6531,-3.6405,-3.6832,-3.6784,-3.6405,-3.6784,-3.6832,-3.6405,-3.6405,-3.6405,-3.6405,-3.6405,-3.6132,-3.5683,-3.5558,-3.5257,-3.4831,-3.4299,-3.4173,-3.4274,-3.4148,-3.4173,-3.4324,-3.4625,-3.4449,-3.4098,-3.4098,-3.3721,-3.3269,-3.3269,-3.3194,-3.3111,-3.3111,-3.3212,-3.3269,-3.3269,-3.3169,-3.3187,-3.3395,-3.3269,-3.3119,-3.3244,-3.2817,-3.2365,-3.224,-3.1805,-3.1248,-3.0723,-3.0198,-2.9785,-2.9681,-2.8187,-2.7054,-2.7055,-2.6273,-2.5718,-2.5869,-2.6221,-2.6657,-2.7144,-2.7282,-2.7415,-2.7415,-2.7589,-2.807,-2.8843,-2.9366,-3.0041,-3.0944,-3.126,-3.1386,-3.1386,-3.1386,-3.1135,-3.0608,-3.0608,-3.0331,-2.9804,-2.9804,-2.9804,-2.9804,-2.9804,-2.9804,-2.9804,-2.9804,-2.9804,-2.9804,-2.9804,-2.9804,-2.9804,-2.9804,-2.9804,-2.9804,-4.0576,-4.0974,-4.1326,-4.13,-4.0874,-4.0727,-4.115,-4.0375,-3.9873,-4.04,-4.0023,-3.9722,-3.9747,-3.9722,-3.9722,-3.9747,-3.9672,-3.9647,-3.9647,-3.912,-3.8542,-3.7965,-3.7412,-3.6885,-3.6405,-3.6455,-3.6455,-3.6405,-3.6455,-3.6455,-3.6405,-3.6405,-3.6405,-3.6405,-3.6405,-3.638,-3.6329,-3.5755,-3.5483,-3.5382,-3.4831,-3.4931,-3.5332,-3.4806,-3.4931,-3.5307,-3.4856,-3.4655,-3.463,-3.463,-3.4299,-3.3847,-3.3847,-3.3495,-3.3111,-3.3111,-3.3445,-3.3847,-3.3847,-3.347,-3.3319,-3.4349,-3.3847,-3.3219,-3.3721,-3.342,-3.2867,-3.2315,-3.1811,-3.1318,-3.0778,-3.0237,-2.9747,-2.9318,-2.866,-2.7954,-2.7206,-2.6603,-2.6294,-2.6438,-2.649,-2.6657,-2.7144,-2.7644,-2.792,-2.792,-2.8757,-2.9461,-2.9965,-3.0365,-3.1025,-3.2047,-3.1637,-3.1386,-3.1386,-3.1386,-3.1135,-3.0608,-3.0608,-3.0331,-2.9804,-2.9804,-2.9804,-2.9804,-2.9804,-2.9804,-2.9804,-2.9804,-2.9804,-2.9804,-2.9804,-2.9804,-2.9804,-2.9804,-2.9804,-2.9804,-3.9998,-4.045,-4.0727,-4.0375,-4.0701,-4.0824,-4.04,-4.0551,-4.0551,-4.0074,-4.0124,-4.0199,-4.0199,-3.9898,-3.9823,-4.0174,-3.9898,-3.9697,-3.9697,-3.9496,-3.8969,-3.804,-3.7487,-3.7086,-3.6885,-3.6933,-3.6757,-3.6405,-3.6757,-3.6757,-3.6405,-3.6757,-3.6732,-3.643,-3.7086,-3.701,-3.6405,-3.6508,-3.6358,-3.6006,-3.5454,-3.5307,-3.5483,-3.5257,-3.5307,-3.5508,-3.5705,-3.5529,-3.5132,-3.4781,-3.4575,-3.4299,-3.3596,-3.3721,-3.4098,-3.4098,-3.4248,-3.4399,-3.4399,-3.4248,-3.4198,-3.4625,-3.4399,-3.4073,-3.3922,-3.3746,-3.342,-3.2867,-3.2357,-3.1994,-3.168,-3.0964,-3.0507,-3.0591,-2.9405,-2.8505,-2.851,-2.7865,-2.7389,-2.7433,-2.7667,-2.792,-2.8126,-2.831,-2.8425,-2.8425,-2.9036,-2.9598,-3.0086,-3.1048,-3.1997,-3.2717,-3.2541,-3.2441,-3.2441,-3.2441,-3.2164,-3.1612,-3.126,-3.0809,-3.0281,-2.9955,-2.9804,-2.9804,-2.9804,-2.9804,-2.9804,-2.9804,-2.9804,-2.9804,-2.9804,-2.9804,-2.9804,-2.9804,-2.9804,-2.9804,-3.9697,-3.9998,-4.0149,-3.9747,-4.045,-4.0824,-4.03,-4.0852,-4.1075,-4.0551,-4.0501,-4.0526,-4.0526,-4.0023,-3.9848,-4.0224,-3.9923,-3.9697,-3.9697,-3.9697,-3.927,-3.8316,-3.7914,-3.7538,-3.7186,-3.7362,-3.7086,-3.6405,-3.6958,-3.6958,-3.6405,-3.6935,-3.6985,-3.6707,-3.7588,-3.7588,-3.6933,-3.7086,-3.7008,-3.6631,-3.6031,-3.5859,-3.6031,-3.5855,-3.5906,-3.6081,-3.6282,-3.6107,-3.5755,-3.5353,-3.5127,-3.4806,-3.4098,-3.4248,-3.468,-3.468,-3.4806,-3.4931,-3.4931,-3.5102,-3.5203,-3.4981,-3.4806,-3.4675,-3.4449,-3.4148,-3.3847,-3.3646,-3.2972,-3.2413,-3.2511,-3.1718,-3.1027,-3.107,-2.9941,-2.9153,-2.9381,-2.885,-2.8491,-2.8659,-2.8962,-2.9087,-2.8915,-2.9183,-2.932,-2.919,-2.9742,-3.031,-3.0804,-3.1868,-3.2667,-3.3111,-3.3111,-3.3111,-3.3111,-3.3111,-3.2792,-3.2215,-3.1662,-3.111,-3.0608,-3.0055,-2.9804,-2.9804,-2.9804,-2.9804,-2.9804,-2.9804,-2.9804,-2.9804,-2.9804,-2.9804,-2.9804,-2.9804,-2.9804,-2.9804,-3.9697,-3.9697,-3.9697,-3.9697,-4.0149,-4.0701,-4.12,-4.1275,-4.153,-4.2137,-4.1204,-4.0526,-4.0526,-4.0023,-3.9697,-3.9697,-3.9697,-3.9697,-3.9697,-3.9697,-3.9446,-3.8944,-3.8919,-3.8341,-3.7211,-3.7713,-3.7462,-3.6405,-3.6958,-3.6958,-3.6405,-3.6935,-3.7186,-3.7211,-3.7764,-3.8015,-3.7965,-3.7412,-3.7186,-3.7136,-3.6631,-3.6732,-3.7111,-3.6606,-3.6757,-3.7111,-3.6606,-3.6405,-3.6405,-3.6405,-3.6006,-3.5508,-3.5508,-3.5132,-3.4726,-3.4726,-3.5082,-3.5508,-3.5508,-3.5956,-3.6279,-3.5633,-3.5107,-3.4831,-3.5382,-3.47,-3.4073,-3.46,-3.3449,-3.2548,-3.3108,-3.2277,-3.1199,-3.0336,-3.0167,-2.9959,-2.9494,-2.9409,-2.9598,-3.0062,-3.0103,-2.9935,-2.9451,-3.031,-3.0706,-3.0248,-3.1141,-3.1893,-3.24,-3.2878,-3.3111,-3.3111,-3.3111,-3.3111,-3.3111,-3.3111,-3.2792,-3.2215,-3.1662,-3.1135,-3.0608,-3.0055,-2.9804,-2.9804,-2.9804,-2.9804,-2.9804,-2.9804,-2.9804,-2.9804,-2.9804,-2.9804,-2.9804,-2.9804,-2.9804,-2.9804,-3.9697,-3.9697,-3.9697,-3.9697,-4.0475,-4.0824,-4.0275,-4.1505,-4.2133,-4.1128,-4.1379,-4.1379,-4.0601,-4.0375,-4.0124,-3.9722,-3.9697,-3.9697,-3.9697,-3.9697,-3.9622,-3.9446,-3.8693,-3.8115,-3.7764,-3.7538,-3.7086,-3.6405,-3.6958,-3.6958,-3.643,-3.7312,-3.7563,-3.7236,-3.8592,-3.8743,-3.799,-3.7839,-3.7538,-3.7136,-3.6631,-3.6505,-3.6631,-3.648,-3.6505,-3.6631,-3.6455,-3.6405,-3.6355,-3.5906,-3.5931,-3.6107,-3.6107,-3.573,-3.5332,-3.5755,-3.5981,-3.6107,-3.6107,-3.6279,-3.638,-3.6157,-3.5981,-3.5805,-3.5558,-3.5232,-3.4831,-3.4274,-3.3518,-3.3,-3.3127,-3.2307,-3.1651,-3.1739,-3.1443,-3.1192,-3.1017,-3.1017,-3.1061,-3.1235,-3.1211,-3.1192,-3.1017,-3.1292,-3.1388,-3.1233,-3.184,-3.2376,-3.2853,-3.3025,-3.3111,-3.3111,-3.3111,-3.3111,-3.3111,-3.3111,-3.2993,-3.2817,-3.224,-3.1888,-3.1712,-3.0783,-3.0357,-3.0357,-2.9955,-2.9804,-2.9804,-2.9804,-2.9804,-2.9804,-2.9804,-2.9804,-2.9804,-2.9804,-2.9804,-2.9804,-3.9647,-3.9697,-3.9772,-3.9973,-4.0752,-4.1075,-4.045,-4.1831,-4.2534,-4.1329,-4.1785,-4.1961,-4.1229,-4.0777,-4.0375,-4.0049,-3.9823,-3.9697,-3.9697,-3.9898,-3.9923,-3.9697,-3.9044,-3.8467,-3.8015,-3.8115,-3.7588,-3.6405,-3.7136,-3.7111,-3.643,-3.7487,-3.7839,-3.7563,-3.9044,-3.932,-3.8642,-3.8191,-3.7814,-3.7437,-3.6732,-3.6405,-3.6405,-3.6405,-3.6405,-3.6405,-3.6405,-3.6405,-3.6355,-3.5981,-3.6081,-3.6405,-3.6405,-3.6132,-3.5931,-3.6304,-3.6405,-3.6405,-3.6405,-3.6405,-3.6405,-3.6405,-3.6405,-3.6329,-3.5956,-3.5658,-3.5382,-3.4951,-3.4125,-3.3538,-3.3702,-3.2934,-3.2288,-3.24,-3.2157,-3.1981,-3.1981,-3.1981,-3.2069,-3.2245,-3.2245,-3.2201,-3.1981,-3.2157,-3.2245,-3.2245,-3.2506,-3.2791,-3.3068,-3.3111,-3.3111,-3.3111,-3.3111,-3.3111,-3.3111,-3.3111,-3.3111,-3.3111,-3.2491,-3.2215,-3.219,-3.1311,-3.0809,-3.0608,-3.0256,-3.0131,-3.0105,-2.988,-2.993,-3.0105,-2.988,-2.9804,-2.9804,-2.9804,-2.9804,-2.9804,-3.9597,-3.9697,-3.9873,-4.0425,-4.0874,-4.1225,-4.1275,-4.2183,-4.266,-4.2263,-4.2213,-4.2213,-4.2213,-4.1229,-4.0576,-4.0526,-4.0049,-3.9772,-3.9772,-4.0275,-4.035,-3.9798,-3.9772,-3.9245,-3.8115,-3.9094,-3.8592,-3.6556,-3.7513,-3.7462,-3.6505,-3.7513,-3.8015,-3.8065,-3.9195,-3.9672,-3.9546,-3.8467,-3.799,-3.7839,-3.6784,-3.6405,-3.6405,-3.6405,-3.6405,-3.6405,-3.6405,-3.6405,-3.6405,-3.6405,-3.6405,-3.6405,-3.6405,-3.6405,-3.6405,-3.6405,-3.6405,-3.6405,-3.6405,-3.6405,-3.6405,-3.6405,-3.6405,-3.6405,-3.6405,-3.5981,-3.5708,-3.6207,-3.5102,-3.4198,-3.465,-3.3897,-3.3089,-3.2679,-3.2635,-3.2635,-3.2635,-3.2586,-3.2667,-3.3101,-3.3119,-3.2964,-3.258,-3.2928,-3.3162,-3.3111,-3.3111,-3.3111,-3.3111,-3.3111,-3.3111,-3.3111,-3.3111,-3.3111,-3.3111,-3.3111,-3.3111,-3.3111,-3.2541,-3.229,-3.2265,-3.1712,-3.121,-3.0758,-3.0708,-3.0683,-3.0633,-3.008,-3.0156,-3.0557,-3.0005,-2.9804,-2.9804,-2.9804,-2.9829,-2.9854,-3.9672,-3.9697,-3.9873,-4.0425,-4.0626,-4.0852,-4.1225,-4.1476,-4.1806,-4.2162,-4.2213,-4.2213,-4.2213,-4.1555,-4.0924,-4.0551,-4.04,-4.035,-4.035,-4.0852,-4.0902,-4.035,-4.035,-3.9823,-3.8718,-3.8919,-3.8592,-3.7638,-3.7889,-3.7663,-3.701,-3.7688,-3.8015,-3.8065,-3.9195,-3.9446,-3.9045,-3.8316,-3.7764,-3.7312,-3.6681,-3.6405,-3.6405,-3.6405,-3.6405,-3.6405,-3.6405,-3.6405,-3.6405,-3.6405,-3.6405,-3.6405,-3.6405,-3.6405,-3.6405,-3.6405,-3.6405,-3.6405,-3.6405,-3.6405,-3.6405,-3.6405,-3.6405,-3.6405,-3.6405,-3.6329,-3.6107,-3.578,-3.5382,-3.5056,-3.4776,-3.4525,-3.4329,-3.424,-3.4195,-3.4195,-3.4195,-3.3865,-3.3589,-3.3721,-3.3345,-3.3244,-3.3539,-3.3677,-3.3545,-3.3119,-3.3111,-3.3111,-3.3111,-3.3111,-3.3111,-3.3111,-3.3111,-3.3111,-3.3111,-3.3111,-3.3111,-3.3111,-3.2943,-3.2893,-3.2867,-3.229,-3.1964,-3.1838,-3.1411,-3.121,-3.1185,-3.0658,-3.0507,-3.0557,-3.0005,-2.9804,-2.9804,-2.9804,-3.0055,-3.0432,-3.9647,-3.9697,-3.9948,-4.0752,-4.0849,-4.1103,-4.163,-4.1731,-4.1831,-4.2162,-4.2213,-4.2213,-4.2213,-4.1656,-4.1075,-4.0576,-4.0752,-4.0849,-4.0849,-4.143,-4.148,-4.0927,-4.0849,-4.0526,-3.9672,-3.9145,-3.8592,-3.8015,-3.8015,-3.7739,-3.7186,-3.7739,-3.8015,-3.804,-3.8919,-3.9295,-3.922,-3.8366,-3.7839,-3.7513,-3.6732,-3.6405,-3.6405,-3.6405,-3.6405,-3.6405,-3.6405,-3.6405,-3.6405,-3.6405,-3.6405,-3.6405,-3.6405,-3.6405,-3.6405,-3.6405,-3.6405,-3.6405,-3.6405,-3.6405,-3.6405,-3.6405,-3.6405,-3.6405,-3.6405,-3.6405,-3.6329,-3.5981,-3.5683,-3.5408,-3.5132,-3.4856,-3.468,-3.468,-3.468,-3.4625,-3.4374,-3.4073,-3.3796,-3.3545,-3.3244,-3.3294,-3.3847,-3.4148,-3.4173,-3.3872,-3.3847,-3.3847,-3.3847,-3.3847,-3.3847,-3.3847,-3.3596,-3.347,-3.347,-3.3219,-3.3111,-3.3111,-3.3111,-3.3111,-3.3111,-3.2767,-3.2466,-3.219,-3.1913,-3.1637,-3.1361,-3.0834,-3.0608,-3.0557,-3.0005,-2.9804,-2.974,-2.9546,-2.9673,-2.9926,-3.9597,-3.9697,-4.0049,-4.11,-4.12,-4.1455,-4.2238,-4.2187,-4.2112,-4.2213,-4.2137,-4.2062,-4.2062,-4.1605,-4.11,-4.0701,-4.1153,-4.148,-4.148,-4.1982,-4.2116,-4.1515,-4.1383,-4.1081,-4.0585,-3.9397,-3.8592,-3.8291,-3.809,-3.7814,-3.7487,-3.7939,-3.814,-3.8191,-3.8743,-3.922,-3.9496,-3.8442,-3.7939,-3.7789,-3.6807,-3.6405,-3.6405,-3.6405,-3.6405,-3.6405,-3.6405,-3.6405,-3.6405,-3.6405,-3.6405,-3.6405,-3.6405,-3.6405,-3.643,-3.6531,-3.648,-3.643,-3.6531,-3.648,-3.6405,-3.6405,-3.6405,-3.6405,-3.6405,-3.6405,-3.6405,-3.6405,-3.6006,-3.5633,-3.5633,-3.5303,-3.5002,-3.5002,-3.5002,-3.4851,-3.4374,-3.4248,-3.3972,-3.342,-3.3345,-3.3495,-3.3872,-3.4474,-3.4781,-3.4726,-3.468,-3.468,-3.468,-3.468,-3.468,-3.468,-3.4198,-3.3897,-3.3897,-3.3345,-3.3111,-3.3111,-3.3111,-3.3111,-3.3111,-3.3111,-3.2817,-3.2365,-3.2365,-3.2039,-3.1486,-3.0959,-3.0683,-3.0518,-2.9927,-2.9738,-2.976,-2.9355,-2.9148,-2.9124,-3.9672,-3.9697,-4.0049,-4.11,-4.0953,-4.1128,-4.2635,-4.2057,-4.163,-4.2137,-4.1756,-4.1401,-4.1401,-4.1326,-4.125,-4.1175,-4.1731,-4.2112,-4.2112,-4.2615,-4.2739,-4.2367,-4.1651,-4.117,-4.0823,-3.9044,-3.8567,-3.9471,-3.8492,-3.8216,-3.8693,-3.8718,-3.8793,-3.8768,-3.9346,-3.9346,-3.8944,-3.8291,-3.7739,-3.7236,-3.6656,-3.6405,-3.6405,-3.6405,-3.6405,-3.6405,-3.6405,-3.6405,-3.6405,-3.6405,-3.6405,-3.6405,-3.6405,-3.6405,-3.6505,-3.6983,-3.6782,-3.6505,-3.6983,-3.6782,-3.6405,-3.6405,-3.6405,-3.6405,-3.6405,-3.6405,-3.6405,-3.6405,-3.6355,-3.6304,-3.6304,-3.6229,-3.6179,-3.6179,-3.6179,-3.6153,-3.6078,-3.5629,-3.5082,-3.4575,-3.45,-3.4349,-3.3947,-3.4781,-3.5182,-3.4705,-3.468,-3.468,-3.468,-3.468,-3.468,-3.468,-3.4198,-3.3897,-3.3897,-3.3345,-3.3111,-3.3111,-3.3111,-3.3111,-3.3111,-3.3111,-3.3086,-3.3011,-3.3011,-3.2641,-3.2064,-3.1512,-3.1009,-3.0518,-2.9549,-2.9465,-2.9861,-2.9716,-2.9224,-2.8765,-3.9697,-3.9697,-3.9948,-4.0752,-4.0676,-4.0978,-4.2363,-4.1856,-4.153,-4.2137,-4.1681,-4.1175,-4.0902,-4.11,-4.1455,-4.1756,-4.2308,-4.2665,-4.2665,-4.2836,-4.3123,-4.3482,-4.242,-4.1833,-4.1854,-3.9956,-3.9195,-3.9697,-3.8567,-3.814,-3.8391,-3.8391,-3.8391,-3.8391,-3.8642,-3.8793,-3.8894,-3.8241,-3.7688,-3.7136,-3.6631,-3.6405,-3.6405,-3.6405,-3.6405,-3.6405,-3.6405,-3.6405,-3.6405,-3.6405,-3.6405,-3.6455,-3.6782,-3.6883,-3.6935,-3.7487,-3.7262,-3.6933,-3.7111,-3.6832,-3.6405,-3.6405,-3.6405,-3.6405,-3.6405,-3.6405,-3.6405,-3.6405,-3.6405,-3.6405,-3.6405,-3.6405,-3.6405,-3.6405,-3.6405,-3.6304,-3.5956,-3.5658,-3.5282,-3.4731,-3.468,-3.4705,-3.4781,-3.5529,-3.5906,-3.5655,-3.5629,-3.5629,-3.5629,-3.5629,-3.5629,-3.5629,-3.5102,-3.4781,-3.4781,-3.4274,-3.3847,-3.3545,-3.3545,-3.337,-3.3111,-3.3111,-3.3111,-3.3111,-3.3111,-3.2742,-3.219,-3.1938,-3.1361,-3.0543,-3.0094,-2.9761,-2.9405,-2.8594,-2.8366,-2.841]},{"header":{"parameterUnit":"m.s-1","parameterCategory":1,"la1":30.6,"la2":28.766,"lo1":-90.7593,"lo2":-88.6598,"dy":0.0162,"dx":0.0183,"nx":116,"ny":114,"refTime":"2024-05-02T12:00:00:Z","depth":0,"parameterNumber":3,"parameterNumberName":"V-component_of_WINDS"},"data":[0.0,0.0,0.0,0.0,0.0,0.0,0.0,0.0,0.0,0.0,0.0,0.0,0.0,0.0,0.0,0.0,0.0,0.0,0.0,0.0,0.0,0.0,0.0,0.0,0.0,0.0,0.0,0.0,0.0,0.0,0.0,0.0,0.0,0.0,0.0,0.0,0.0,0.0,0.0,0.0,0.0,0.0,0.0,0.0,0.0,0.0,0.0,0.0,0.0,0.0,0.0,0.0,0.0,0.0,0.0,0.0,0.0,0.0,0.0,0.0,0.0,0.0,0.0,0.0,0.0,0.0,0.0,0.0,0.0,0.0,0.0,0.0,0.0,0.0,0.0,0.0,0.0,0.0,0.0,0.0,0.0,0.0,0.0,0.0,0.0,0.0,0.0,0.0,0.0,0.0,0.0,0.0,0.0,0.0,0.0,0.0,0.0,0.0,0.0,0.0,0.0,0.0,0.0,0.0,0.0,0.0,0.0,0.0,0.0,0.0,0.0,0.0,0.0,0.0,0.0,0.0,0.0,0.0,0.0,0.0,0.0,0.0,0.0,0.0,0.0,0.0,0.0,0.0,0.0,0.0,0.0,0.0,0.0,0.0,0.0,0.0,0.0,0.0,0.0,0.0,0.0,0.0,0.0,0.0,0.0,0.0,0.0,0.0,0.0,0.0,0.0,0.0,0.0,0.0,0.0,0.0,0.0,0.0,0.0,0.0,0.0,0.0,0.0,0.0,0.0,0.0,0.0,0.0,0.0,0.0,0.0,0.0,0.0,0.0,0.0,0.0,0.0,0.0,0.0,0.0,0.0,0.0,0.0,0.0,0.0,0.0,0.0,0.0,0.0,0.0,0.0,0.0,0.0,0.0,0.0,0.0,0.0,0.0,0.0,0.0,0.0,0.0,0.0,0.0,0.0,0.0,0.0,0.0,0.0,0.0,0.0,0.0,0.0,0.0,0.0,0.0,0.0,0.0,0.0,0.0,0.0,0.0,0.0,0.0,0.0,0.0,0.0,0.0,0.0,0.0,0.0,0.0,0.0,0.0,0.0,0.0,0.0,0.0,0.0,0.0,0.0,0.0,0.0,0.0,0.0,0.0,0.0,0.0,0.0,0.0,0.0,0.0,0.0,0.0,0.0,0.0,0.0,0.0,0.0,0.0,0.0,0.0,0.0,0.0,0.0,0.0,0.0,0.0,0.0,0.0,0.0,0.0,0.0,0.0,0.0,0.0,0.0,0.0,0.0,0.0,0.0,0.0,0.0,0.0,0.0,0.0,0.0,0.0,0.0,0.0,0.0,0.0,0.0,0.0,0.0,0.0,0.0,0.0,0.0,0.0,0.0,0.0,0.0,0.0,0.0,0.0,0.0,0.0,0.0,0.0,0.0,0.0,0.0,0.0,0.0,0.0,0.0,0.0,0.0,0.0,0.0,0.0,0.0,0.0,0.0,0.0,0.0,0.0,0.0,0.0,0.0,0.0,0.0,0.0,0.0,0.0,0.0,0.0,0.0,0.0,0.0,0.0,0.0,0.0,0.0,0.0,0.0,0.0,0.0,0.0,0.0,0.0,0.0,0.0,0.0,0.0,0.0,0.0,0.0,0.0,0.0,0.0,0.0,0.0,0.0,0.0,0.0,0.0,0.0,0.0,0.0,0.0,0.0,0.0,0.0,0.0,0.0,0.0,0.0,0.0,0.0,0.0,0.0,0.0,0.0,0.0,0.0,0.0,0.0,0.0,0.0,0.0,0.0,0.0,0.0,0.0,0.0,0.0,0.0,0.0,0.0,0.0,0.0,0.0,0.0,0.0,0.0,0.0,0.0,0.0,0.0,0.0,0.0,0.0,0.0,0.0,0.0,0.0,0.0,0.0,0.0,0.0,0.0,0.0,0.0,0.0,0.0,0.0,0.0,0.0,0.0,0.0,0.0,0.0,0.0,0.0,0.0,0.0,0.0,0.0,0.0,0.0,0.0,0.0,0.0,0.0,0.0,0.0,0.0,0.0,0.0,0.0,0.0,0.0,0.0,0.0,0.0,0.0,0.0,0.0,0.0,0.0,0.0,0.0,0.0,0.0,0.0,0.0,0.0,0.0,0.0,0.0,0.0,0.0,0.0,0.0,0.0,0.0,0.0,0.0,0.0,0.0,0.0,0.0,0.0,0.0,0.0,0.0,0.0,0.0,0.0,0.0,0.0,0.0,0.0,0.0,0.0,0.0,0.0,0.0,0.0,0.0,0.0,0.0,0.0,0.0,0.0,0.0,0.0,0.0,0.0,0.0,0.0,0.0,0.0,0.0,0.0,0.0,0.0,0.0,0.0,0.0,0.0,0.0,0.0,0.0,0.0,0.0,0.0,0.0,0.0,0.0,0.0,0.0,0.0,0.0,0.0,0.0,0.0,0.0,0.0,0.0,0.0,0.0,0.0,0.0,0.0,0.0,0.0,0.0,0.0,0.0,0.0,0.0,0.0,0.0,0.0,0.0,0.0,0.0,0.0,0.0,0.0,0.0,0.0,0.0,0.0,0.0,0.0,0.0,0.0,0.0,0.0,0.0,0.0,0.0,0.0,0.0,0.0,0.0,0.0,0.0,0.0,0.0,0.0,0.0,0.0,0.0,0.0,0.0,0.0,0.0,0.0,0.0,0.0,0.0,0.0,0.0,0.0,0.0,0.0,0.0,0.0,0.0,0.0,0.0,0.0,0.0,0.0,0.0,0.0,0.0,0.0,0.0,0.0,0.0,0.0,0.0,0.0,0.0,0.0,0.0,0.0,0.0,0.0,0.0,0.0,0.0,0.0,0.0,0.0,0.0,0.0,0.0,0.0,0.0,0.0,0.0,0.0,0.0,0.0,0.0,0.0,0.0,0.0,0.0,0.0,0.0,0.0,0.0,0.0,0.0,0.0,0.0,0.0,0.0,0.0,0.0,0.0,0.0,0.0,0.0,0.0,0.0,0.0,0.0,0.0,0.0,0.0,0.0,0.0,0.0,0.0,0.0,0.0,0.0,0.0,0.0,0.0,0.0,0.0,0.0,0.0,0.0,0.0,0.0,0.0,0.0,0.0,0.0,0.0,0.0,0.0,0.0,0.0,0.0,0.0,0.0,0.0,0.0,0.0,0.0,0.0,0.0,0.0,0.0,0.0,0.0,0.0,0.0,0.0,0.0,0.0,0.0,0.0,0.0,0.0,0.0,0.0,0.0,0.0,0.0,0.0,0.0,0.0,0.0,0.0,0.0,0.0,0.0,0.0,0.0,0.0,0.0,0.0,0.0,0.0,0.0,0.0,0.0,0.0,0.0,0.0,0.0,0.0,0.0,0.0,0.0,0.0,0.0,0.0,0.0,0.0,0.0,0.0,0.0,0.0,0.0,0.0,0.0,0.0,0.0,0.0,0.0,0.0,0.0,0.0,0.0,0.0,0.0,0.0,0.0,0.0,0.0,0.0,0.0,0.0,0.0,0.0,0.0,0.0,0.0,0.0,0.0,0.0,0.0,0.0,0.0,0.0,0.0,0.0,0.0,0.0,0.0,0.0,0.0,0.0,0.0,0.0,0.0,0.0,0.0,0.0,0.0,0.0,0.0,0.0,0.0,0.0,0.0,0.0,0.0,0.0,0.0,0.0,0.0,0.0,0.0,0.0,0.0,0.0,0.0,0.0,0.0,0.0,0.0,0.0,0.0,0.0,0.0,0.0,0.0,0.0,0.0,0.0,0.0,0.0,0.0,0.0,0.0,0.0,0.0,0.0,0.0,0.0,0.0,0.0,0.0,0.0,0.0,0.0,0.0,0.0,0.0,0.0,0.0,0.0,0.0,0.0,0.0,0.0,0.0,0.0,0.0,0.0,0.0,0.0,0.0,0.0,0.0,0.0,0.0,0.0,0.0,0.0,0.0,0.0,0.0,0.0,0.0,0.0,0.0,0.0,0.0,0.0,0.0,0.0,0.0,0.0,0.0,0.0,0.0,0.0,0.0,0.0,0.0,0.0,0.0,0.0,0.0,0.0,0.0,0.0,0.0,0.0,0.0,0.0,0.0,0.0,0.0,0.0,0.0,0.0,0.0,0.0,0.0,0.0,0.0,0.0,0.0,0.0,0.0,0.0,0.0,0.0,0.0,0.0,0.0,0.0,0.0,0.0,0.0,0.0,0.0,0.0,0.0,0.0,0.0,0.0,0.0,0.0,0.0,0.0,0.0,0.0,0.0,0.0,0.0,0.0,0.0,0.0,0.0,0.0,0.0,0.0,0.0,0.0,0.0,0.0,0.0,0.0,0.0,0.0,0.0,0.0,0.0,0.0,0.0,0.0,0.0,0.0,0.0,0.0,0.0,0.0,0.0,0.0,0.0,0.0,0.0,0.0,0.0,0.0,0.0,0.0,0.0,0.0,0.0,0.0,0.0,0.0,0.0,0.0,0.0,0.0,0.0,0.0,0.0,0.0,0.0,0.0,0.0,0.0,0.0,0.0,0.0,0.0,0.0,0.0,0.0,0.0,0.0,0.0,0.0,0.0,0.0,0.0,0.0,0.0,0.0,0.0,0.0,0.0,0.0,0.0,0.0,0.0,0.0,0.0,0.0,0.0,0.0,0.0,0.0,0.0,0.0,0.0,0.0,0.0,0.0,0.0,0.0,0.0,0.0,0.0,0.0,0.0,0.0,0.0,0.0,0.0,0.0,0.0,0.0,0.0,0.0,0.0,0.0,0.0,0.0,0.0,0.0,0.0,0.0,0.0,0.0,0.0,0.0,0.0,0.0,0.0,0.0,0.0,0.0,0.0,0.0,0.0,0.0,0.0,0.0,0.0,0.0,0.0,0.0,0.0,0.0,0.0,0.0,0.0,0.0,0.0,0.0,0.0,0.0,0.0,0.0,0.0,0.0,0.0,0.0,0.0,0.0,0.0,0.0,0.0,0.0,0.0,0.0,0.0,0.0,0.0,0.0,0.0,0.0,0.0,0.0,0.0,0.0,0.0,0.0,0.0,0.0,0.0,0.0,0.0,0.0,0.0,0.0,0.0,0.0,0.0,0.0,0.0,0.0,0.0,0.0,0.0,0.0,0.0,0.0,0.0,0.0,0.0,0.0,0.0,0.0,0.0,0.0,0.0,0.0,0.0,0.0,0.0,0.0,0.0,0.0,0.0,0.0,0.0,0.0,0.0,0.0,0.0,0.0,0.0,0.0,0.0,0.0,0.0,0.0,0.0,0.0,0.0,0.0,0.0,0.0,0.0,0.0,0.0,0.0,0.0,0.0,0.0,0.0,0.0,0.0,0.0,0.0,0.0,0.0,0.0,0.0,0.0,0.0,0.0,0.0,0.0,0.0,0.0,0.0,0.0,0.0,0.0,0.0,0.0,0.0,0.0,0.0,0.0,0.0,0.0,0.0,0.0,0.0,0.0,0.0,0.0,0.0,0.0,0.0,0.0,0.0,0.0,0.0,0.0,0.0,0.0,0.0,0.0,0.0,0.0,0.0,0.0,0.0,0.0,0.0,0.0,0.0,0.0,0.0,0.0,0.0,0.0,0.0,0.0,0.0,0.0,0.0,0.0,0.0,0.0,0.0,0.0,0.0,0.0,0.0,0.0,0.0,0.0,0.0,0.0,0.0,0.0,0.0,0.0,0.0,0.0,0.0,0.0,0.0,0.0,0.0,0.0,0.0,0.0,0.0,0.0,0.0,0.0,0.0,0.0,0.0,0.0,0.0,0.0,0.0,0.0,0.0,0.0,0.0,0.0,0.0,0.0,0.0,0.0,0.0,0.0,0.0,0.0,0.0,0.0,0.0,0.0,0.0,0.0,0.0,0.0,0.0,0.0,0.0,0.0,0.0,0.0,0.0,0.0,0.0,0.0,0.0,0.0,0.0,0.0,0.0,0.0,0.0,0.0,0.0,0.0,0.0,0.0,0.0,0.0,0.0,0.0,0.0,0.0,0.0,0.0,0.0,0.0,0.0,0.0,0.0,0.0,0.0,0.0,0.0,0.0,0.0,0.0,0.0,0.0,0.0,0.0,0.0,0.0,0.0,0.0,0.0,0.0,0.0,0.0,0.0,0.0,0.0,0.0,0.0,0.0,0.0,0.0,0.0,0.0,0.0,0.0,0.0,0.0,0.0,0.0,0.0,0.0,0.0,2.202,2.1329,0.0,0.0,0.0,0.0,0.0,0.0,0.0,0.0,0.0,0.0,0.0,0.0,0.0,0.0,0.0,0.0,0.0,0.0,0.0,0.0,0.0,0.0,0.0,2.6862,2.6464,2.6464,2.6464,2.667,2.7185,0.0,0.0,0.0,0.0,0.0,2.9067,2.846,2.8261,2.8441,2.8072,2.7512,2.6727,2.7309,2.6531,2.4712,0.0,0.0,0.0,0.0,0.0,0.0,0.0,0.0,0.0,0.0,0.0,0.0,0.0,0.0,0.0,0.0,0.0,0.0,0.0,0.0,0.0,0.0,0.0,0.0,0.0,0.0,0.0,0.0,0.0,0.0,0.0,0.0,0.0,0.0,0.0,0.0,0.0,0.0,0.0,0.0,0.0,0.0,0.0,0.0,0.0,0.0,0.0,0.0,0.0,0.0,0.0,0.0,0.0,0.0,0.0,0.0,0.0,0.0,0.0,0.0,0.0,0.0,0.0,0.0,0.0,0.0,0.0,0.0,0.0,0.0,2.5541,2.4424,0.0,0.0,0.0,0.0,0.0,0.0,0.0,0.0,0.0,0.0,0.0,0.0,0.0,0.0,0.0,0.0,0.0,0.0,0.0,0.0,0.0,2.783,2.7927,2.7719,2.7551,2.7551,2.7551,2.7551,2.7551,2.8219,0.0,0.0,0.0,2.9067,2.938,2.9457,2.9538,2.9707,2.9274,2.9108,2.9174,2.9497,2.8549,2.6533,2.6553,0.0,0.0,0.0,0.0,0.0,0.0,0.0,0.0,0.0,0.0,0.0,0.0,0.0,0.0,0.0,0.0,0.0,0.0,0.0,0.0,0.0,0.0,0.0,0.0,0.0,0.0,0.0,0.0,0.0,0.0,0.0,0.0,0.0,0.0,0.0,0.0,0.0,0.0,0.0,0.0,0.0,0.0,0.0,0.0,0.0,0.0,0.0,0.0,0.0,0.0,0.0,0.0,0.0,0.0,0.0,0.0,0.0,0.0,0.0,0.0,0.0,0.0,0.0,3.2439,3.2931,3.3232,3.2234,3.1782,3.1664,2.9898,2.854,2.7596,2.8398,0.0,0.0,0.0,0.0,0.0,0.0,0.0,0.0,0.0,0.0,0.0,0.0,0.0,0.0,0.0,0.0,0.0,0.0,0.0,2.8401,2.8866,2.8885,2.8855,2.8855,2.8855,2.8855,2.8855,2.8973,2.9013,2.9052,2.9223,2.9341,2.9419,2.9624,2.958,2.9288,2.9529,3.0256,3.1396,3.1431,3.1045,3.0188,2.795,2.6686,2.6232,0.0,0.0,0.0,0.0,0.0,0.0,0.0,0.0,0.0,0.0,0.0,0.0,0.0,0.0,0.0,0.0,0.0,0.0,0.0,0.0,0.0,0.0,0.0,0.0,0.0,0.0,0.0,0.0,0.0,0.0,0.0,0.0,0.0,0.0,0.0,0.0,0.0,0.0,0.0,0.0,0.0,2.6335,2.6517,0.0,0.0,0.0,0.0,0.0,0.0,0.0,0.0,0.0,0.0,0.0,0.0,0.0,3.3259,3.4192,3.5073,3.53,3.4907,3.5594,3.5329,3.4321,3.4137,3.4046,3.4016,3.3179,0.0,2.8768,2.788,0.0,0.0,0.0,0.0,0.0,0.0,0.0,0.0,0.0,0.0,0.0,0.0,0.0,0.0,0.0,0.0,0.0,0.0,0.0,0.0,0.0,2.9099,2.9099,2.9593,2.9515,2.9294,2.8933,2.9372,2.949,2.9287,2.9341,2.9457,2.9599,2.9414,2.9323,2.9346,3.061,3.1422,3.1813,3.1985,3.2076,3.1979,3.0781,2.9164,2.7277,2.7069,0.0,0.0,0.0,0.0,0.0,0.0,0.0,0.0,0.0,0.0,0.0,0.0,0.0,0.0,0.0,0.0,0.0,0.0,0.0,0.0,0.0,0.0,0.0,0.0,0.0,0.0,0.0,0.0,0.0,0.0,0.0,0.0,0.0,0.0,0.0,0.0,0.0,0.0,0.0,2.8238,2.8661,2.8014,2.8313,2.8761,0.0,0.0,0.0,0.0,0.0,0.0,0.0,0.0,0.0,3.437,3.545,3.5781,3.5314,3.6713,3.6977,3.6058,3.6686,3.6686,3.6118,3.6118,3.6118,3.6088,3.5459,3.4448,3.31,3.1062,2.9755,2.8972,0.0,0.0,0.0,0.0,2.8843,2.865,0.0,0.0,0.0,0.0,0.0,0.0,0.0,0.0,0.0,0.0,0.0,0.0,2.9845,2.987,2.9895,3.0168,3.0246,3.005,2.9515,2.9908,3.003,2.9806,2.9781,2.9883,3.0062,2.9774,3.0075,3.0899,3.2207,3.2986,3.3237,3.3334,3.3516,3.3762,3.3487,3.1884,2.9353,2.9136,2.8266,2.7034,0.0,0.0,0.0,0.0,0.0,0.0,0.0,0.0,0.0,0.0,0.0,0.0,0.0,0.0,0.0,0.0,0.0,0.0,0.0,0.0,0.0,0.0,0.0,0.0,0.0,0.0,0.0,0.0,0.0,0.0,0.0,0.0,0.0,0.0,0.0,0.0,0.0,3.0075,3.0585,2.9389,3.0316,3.1055,0.0,0.0,0.0,0.0,0.0,0.0,3.4176,3.5741,3.6545,3.6399,3.8044,3.8302,3.7015,3.8272,3.8422,3.7494,3.7793,3.7823,3.7674,3.7674,3.7674,3.7614,3.6836,3.6477,3.6297,3.3784,3.1988,3.0853,3.0866,3.0657,3.0453,3.094,3.0915,3.0688,0.0,0.0,0.0,0.0,0.0,0.0,0.0,0.0,0.0,0.0,0.0,2.983,3.1159,3.1987,3.1954,3.0869,3.1387,3.1673,3.1389,3.0864,3.0665,3.0831,3.082,3.082,3.0857,3.1392,3.2668,3.4714,3.4493,3.5332,3.7088,3.6555,3.6314,3.6353,3.5334,3.4314,3.3239,3.2101,3.1334,3.0764,2.9088,0.0,0.0,0.0,0.0,0.0,0.0,0.0,0.0,0.0,0.0,0.0,0.0,0.0,0.0,0.0,0.0,0.0,0.0,0.0,0.0,0.0,0.0,0.0,0.0,0.0,0.0,0.0,0.0,0.0,0.0,0.0,0.0,0.0,0.0,0.0,0.0,0.0,0.0,3.0309,3.2707,0.0,0.0,0.0,0.0,3.4687,3.5438,3.6454,3.792,3.8204,3.8829,4.0084,4.021,4.0546,4.1085,4.0576,4.0277,4.0187,3.9619,3.896,3.8332,3.8332,3.8332,3.8272,3.7015,3.6477,3.6327,3.4292,3.3754,3.4144,3.2886,3.2766,3.3124,3.193,3.1482,3.1274,0.0,0.0,0.0,2.5394,2.5676,2.591,2.598,2.6797,2.7885,2.9241,2.9514,3.0399,3.2701,3.224,3.196,3.2489,3.264,3.2313,3.1531,3.1509,3.1228,3.0608,3.0782,3.1008,3.1298,3.2174,3.3025,3.3821,3.5156,3.6118,3.6806,3.6985,3.7331,3.7753,3.7345,3.7016,3.6539,3.4466,3.3073,3.2191,3.1424,3.0154,0.0,0.0,0.0,0.0,0.0,0.0,0.0,0.0,0.0,0.0,0.0,0.0,0.0,0.0,0.0,0.0,0.0,0.0,0.0,0.0,0.0,0.0,0.0,0.0,0.0,0.0,0.0,0.0,0.0,0.0,0.0,0.0,0.0,0.0,0.0,0.0,0.0,3.3684,3.53,0.0,3.548,3.5695,3.6416,3.7704,3.8053,3.8618,3.961,4.0107,4.0546,4.1025,4.1482,4.1564,4.1422,4.1145,4.0816,4.0397,3.9738,3.9254,3.905,3.8601,3.8392,3.8332,3.7045,3.6716,3.6956,3.5429,3.4412,3.3814,3.3335,3.3036,3.2796,3.2318,3.1869,3.1451,0.0,2.543,0.0,2.53,2.5676,2.598,2.591,2.679,2.8012,2.9407,2.9838,3.0965,3.333,3.3095,3.2869,3.319,3.325,3.2982,3.2178,3.1885,3.1685,3.1526,3.1783,3.1954,3.2047,3.3188,3.4068,3.461,3.5885,3.6836,3.7464,3.7434,3.7883,3.8721,3.8482,3.8512,3.862,3.6961,3.5208,3.3565,3.2975,3.23,3.1354,0.0,0.0,0.0,0.0,0.0,0.0,0.0,0.0,0.0,0.0,0.0,0.0,0.0,0.0,0.0,0.0,0.0,0.0,0.0,0.0,0.0,0.0,0.0,0.0,0.0,0.0,0.0,0.0,0.0,0.0,0.0,0.0,0.0,0.0,0.0,3.637,3.6634,3.8484,3.9416,3.8543,3.8676,3.9172,4.0031,4.0277,4.0696,4.1354,4.1803,4.2043,4.2043,4.2462,4.2491,4.2043,4.1594,4.1175,4.0726,3.9828,3.9373,3.9373,3.896,3.8601,3.8332,3.7255,3.6896,3.7015,3.5938,3.4981,3.4173,3.4173,3.3903,3.3484,3.3006,3.2557,3.2108,0.0,2.5606,2.5805,2.5394,2.5805,2.6144,2.5945,2.6824,2.8047,2.9537,3.0495,3.1575,3.3086,3.4586,3.4758,3.2915,3.3325,3.3612,3.3412,3.2124,3.2076,3.3711,3.3768,3.3556,3.3177,3.4482,3.5889,3.7345,3.6776,3.7494,3.9254,3.8063,3.8153,3.9313,3.8721,3.8781,3.9373,3.9373,3.7813,3.5201,3.3792,3.4228,3.5338,0.0,0.0,0.0,0.0,0.0,0.0,0.0,0.0,0.0,0.0,0.0,0.0,0.0,0.0,0.0,0.0,0.0,0.0,0.0,0.0,0.0,0.0,0.0,0.0,0.0,0.0,0.0,0.0,0.0,0.0,0.0,0.0,0.0,3.4507,3.7766,3.9721,3.9044,4.2138,4.306,3.9852,4.1294,4.2201,4.1542,4.2081,4.2671,4.326,4.329,4.329,4.329,4.329,4.329,4.329,4.2043,4.1422,4.1354,4.0038,3.9373,3.9373,3.9409,3.902,3.8332,3.7674,3.7015,3.6417,3.5759,3.5519,3.5519,3.5519,3.5489,3.528,3.3993,3.3455,3.3245,2.4271,2.5129,2.5875,2.5746,2.5875,2.6015,2.6084,2.7196,2.8448,2.9766,3.0971,3.2338,3.3989,3.4532,3.459,3.4044,3.4163,3.4029,3.3445,3.2901,3.2963,3.3774,3.3011,3.3198,3.4574,3.4666,3.5128,3.6028,3.6776,3.7195,3.7315,3.8362,3.8811,3.8691,3.899,3.923,3.9373,3.9373,3.8937,3.8133,3.6793,3.6096,3.5718,0.0,0.0,0.0,0.0,0.0,0.0,0.0,0.0,0.0,0.0,0.0,0.0,0.0,0.0,0.0,0.0,0.0,0.0,0.0,0.0,0.0,0.0,0.0,0.0,0.0,0.0,0.0,0.0,0.0,0.0,0.0,3.3804,3.559,3.686,3.8513,4.0383,4.2524,4.3707,4.3958,4.306,4.3449,4.3509,4.2851,4.297,4.315,4.329,4.329,4.329,4.329,4.329,4.329,4.329,4.2043,4.1422,4.1354,4.0038,3.9373,3.9373,3.8901,3.8302,3.7644,3.7015,3.6387,3.5759,3.5579,3.5519,3.5519,3.5519,3.4921,3.3993,3.3634,3.2886,3.2018,2.3839,2.4805,2.5709,2.5861,2.591,2.5945,2.6074,2.7061,2.8171,2.9311,3.0706,3.2216,3.3902,3.4084,3.4084,3.4084,3.4084,3.3897,3.3485,3.3721,3.3651,3.318,3.3238,3.3642,3.4463,3.4799,3.5284,3.6075,3.686,3.7409,3.7788,3.8905,3.936,3.9269,3.9516,3.9625,3.9625,3.9445,3.9589,3.9768,3.896,3.8525,3.8025,3.5878,3.5443,3.5676,3.3477,3.2955,3.2945,3.0585,0.0,0.0,0.0,0.0,0.0,0.0,0.0,0.0,0.0,0.0,0.0,0.0,0.0,0.0,0.0,0.0,0.0,0.0,0.0,0.0,0.0,0.0,0.0,0.0,3.5626,3.7386,3.9158,4.0325,4.184,4.4045,4.5049,4.5454,4.5185,4.4885,4.4436,4.3768,4.3439,4.329,4.329,4.329,4.329,4.329,4.329,4.329,4.329,4.2312,4.1692,4.1422,4.0337,3.9679,3.9373,3.902,3.8302,3.7375,3.7015,3.6357,3.5519,3.5519,3.5519,3.5519,0.0,0.0,0.0,0.0,3.2407,3.1568,2.3364,2.4355,2.528,2.5707,2.584,2.5875,2.591,2.6586,2.7445,2.8405,2.9915,3.1483,3.2998,3.324,3.3301,3.3241,3.3332,3.3423,3.3515,3.4302,3.409,3.2616,3.4091,3.4575,3.3727,3.4958,3.6051,3.6921,3.7138,3.8006,3.9444,3.9596,3.993,4.0416,4.0126,3.9975,3.9905,3.9553,3.9798,4.0397,4.0397,4.0786,4.1055,3.8063,3.7973,3.9215,3.7614,3.6005,3.447,3.4011,0.0,0.0,0.0,0.0,0.0,0.0,0.0,0.0,0.0,0.0,0.0,0.0,0.0,0.0,0.0,0.0,0.0,0.0,0.0,0.0,0.0,0.0,0.0,0.0,3.7047,3.861,4.0958,4.2367,4.351,4.4381,4.603,4.6834,4.6219,4.5663,4.4975,4.4257,4.3618,4.329,4.329,0.0,0.0,0.0,0.0,4.329,4.329,4.2611,4.1991,4.1422,4.0636,3.9978,3.9373,3.9373,3.8691,3.7404,3.7404,3.6686,3.5519,3.5519,3.5459,3.537,3.531,3.4891,3.4234,3.2886,3.2019,3.1568,2.1215,2.2959,2.4467,2.485,2.5335,2.5711,2.5875,2.638,2.6942,2.7551,2.9143,3.0427,3.1016,3.1789,3.2092,3.1541,3.2227,3.2989,3.3637,3.3819,3.394,3.3966,3.491,3.5278,3.5034,3.5891,3.6569,3.7062,3.8216,3.8842,3.9052,4.0289,4.0522,3.9849,3.9982,3.9833,3.9481,3.9409,3.9798,4.0397,4.0397,4.0786,4.1302,4.0098,3.9875,3.9958,3.8223,3.7655,3.7412,3.5072,3.4197,3.3779,3.1909,3.0556,0.0,0.0,0.0,0.0,0.0,0.0,0.0,0.0,0.0,0.0,0.0,0.0,0.0,0.0,0.0,0.0,0.0,0.0,0.0,3.6534,3.736,3.855,4.084,4.1852,4.3231,4.5565,4.5713,4.5605,4.5502,4.5364,4.4796,4.3559,4.3349,4.329,4.329,4.329,4.329,4.329,4.329,4.329,4.329,4.2162,4.1542,4.1422,4.0187,0.0,3.9373,3.9373,3.8691,3.7404,3.7404,3.6686,3.5519,3.5519,3.519,3.4653,3.4083,3.3814,3.3514,3.2168,3.16,3.1568,1.955,2.1781,2.3743,2.4272,2.4991,2.5535,2.5711,2.5931,2.6355,2.7051,2.8218,2.9268,2.9974,3.0704,3.1065,3.0871,3.1752,3.3003,3.46,3.4121,3.4121,3.4938,3.5095,3.5278,3.546,3.5983,3.6692,3.7559,3.8872,3.9719,4.0118,4.1279,4.1434,4.0758,4.0389,4.0051,3.9691,3.9481,3.9978,4.0876,4.0876,4.1474,4.2252,4.1265,4.0876,4.0808,4.0263,3.9833,3.9276,3.7204,3.6164,3.5344,3.3027,3.1811,3.1059,0.0,0.0,0.0,0.0,0.0,0.0,0.0,0.0,0.0,0.0,0.0,0.0,0.0,0.0,3.4379,3.4659,0.0,3.6726,3.8103,3.8714,3.9468,4.0606,4.1572,4.2766,4.4459,4.5254,4.5713,4.5766,4.5483,4.4881,4.3897,4.3488,4.317,4.285,4.313,4.329,4.329,4.329,4.329,4.329,4.2372,4.1752,4.1422,4.0367,3.9738,3.9373,3.9373,3.8691,3.7404,3.7404,3.6686,3.5489,3.513,3.4771,3.4414,3.3395,3.3006,3.2886,3.1869,3.1511,3.1568,1.8577,2.0745,2.28,2.3618,2.4484,2.5158,2.55,2.5535,2.5791,2.6569,2.7224,2.7997,2.8899,2.94,2.9881,3.0481,3.1282,3.278,3.5078,3.4424,3.4333,3.5245,3.5248,3.5278,3.546,3.6075,3.6969,3.8122,3.9467,4.057,4.1426,4.2106,4.2142,4.1656,4.082,4.0323,4.0051,3.9727,4.0367,4.1564,4.1564,4.2282,4.317,4.2162,4.1773,4.1803,4.2261,4.1448,4.0023,3.8956,3.7451,3.5644,3.3522,3.2542,3.2014,3.0919,3.0835,0.0,0.0,0.0,0.0,0.0,0.0,0.0,0.0,0.0,3.4399,3.5833,3.6715,3.7368,3.7714,3.8055,3.8582,3.9403,3.9849,4.0184,4.054,4.1274,4.1989,4.2689,4.4538,4.5779,4.5797,4.5355,4.4798,4.4131,4.3582,4.305,4.2496,4.301,4.329,4.329,4.329,4.329,4.329,4.2671,4.2141,4.1602,4.0786,4.0127,3.9619,3.9433,3.8751,3.7584,3.7345,3.6567,3.5459,3.4803,3.4444,3.4204,3.2976,3.2407,3.2228,3.169,3.1511,3.1539,1.8825,1.9948,2.114,2.2292,2.3464,2.4492,2.5229,2.5335,2.5406,2.5687,2.6144,2.6506,2.6728,2.7139,2.8024,2.9689,3.0281,3.1464,3.3512,3.3849,3.415,3.4509,3.5676,3.6045,3.5399,3.694,3.8059,3.8612,4.0316,4.1391,4.1942,4.2263,4.2013,4.1231,4.0718,4.0456,4.0351,4.0307,4.1055,4.2291,4.2291,4.2671,4.329,4.314,4.308,4.3021,4.259,4.1006,3.9112,3.8724,3.7158,3.5159,3.4456,3.3471,3.2462,3.1559,3.0647,2.9955,2.9868,3.0305,3.1216,3.3067,3.337,3.4203,0.0,0.0,3.7572,4.0148,3.983,3.9195,3.9447,3.9038,3.8856,3.9586,3.9308,3.9507,4.0987,4.0851,4.0818,4.1413,4.3102,4.4255,4.4355,4.4327,4.4043,4.3361,4.3316,4.325,4.321,4.325,4.329,4.329,4.329,4.329,4.329,4.2671,4.2351,4.2261,4.0995,4.0367,4.0277,3.9679,3.899,3.8212,3.7075,3.6178,3.5459,3.4803,3.4174,3.3544,3.2796,3.2138,3.16,3.154,3.1511,3.1511,1.8808,1.9437,2.0302,2.1097,2.2831,2.4217,2.4564,2.5016,2.5335,2.5406,2.5838,2.6043,2.5924,2.6407,2.7444,2.9125,2.9937,3.1218,3.3243,3.3867,3.4575,3.5584,3.6191,3.6525,3.6568,3.7457,3.8328,3.9183,4.0166,4.1087,4.1882,4.2013,4.1754,4.1164,4.0718,4.0451,4.0397,4.0397,4.1145,4.241,4.241,4.2535,4.271,4.2753,4.2049,4.1047,4.0989,4.0159,0.0,3.6957,3.5888,3.5154,3.3832,3.3152,3.2662,3.1658,3.1034,3.0733,3.0733,3.1638,3.2686,0.0,3.398,3.5303,3.7368,3.8271,3.913,4.0996,4.2095,4.2446,4.1443,4.1282,4.1074,0.0,3.993,3.9931,4.0313,4.0155,4.0096,4.0329,4.0998,4.1998,4.3426,4.3694,4.3748,4.3777,4.3496,4.3279,4.3301,4.3299,4.329,4.329,4.329,4.329,4.329,4.2671,4.2201,4.1811,4.0846,4.0217,3.9828,3.9559,3.905,3.8332,3.7045,3.6327,3.5998,3.4953,3.4114,3.3425,3.2766,3.2079,3.1511,3.1511,3.1511,3.1511,1.8819,1.9193,1.9792,2.0348,2.2121,2.3526,2.3745,2.4276,2.4767,2.4945,2.5289,2.5514,2.5465,2.6242,2.7176,2.8235,2.9336,3.0692,3.2416,3.3093,3.4144,3.5769,3.6111,3.6507,3.7155,3.7852,3.8564,3.9355,4.0166,4.0972,4.1742,4.1897,4.1792,4.1386,4.1032,4.0927,4.0935,4.0935,4.1517,4.2376,4.2376,4.2048,4.1587,4.1292,4.0255,3.8995,3.9547,3.8793,3.7234,3.5355,3.4588,3.4113,3.2935,3.2639,3.2562,3.1621,3.1164,3.0984,3.1135,3.2232,3.3304,3.3223,3.4726,3.6416,3.7269,3.8674,4.0228,4.182,4.3473,4.4215,4.289,4.2824,4.2401,4.0588,4.03,4.0149,3.9747,3.9576,3.9471,3.9471,3.9151,3.9725,4.1764,4.2481,4.3073,4.3584,4.3222,4.3089,4.327,4.3094,4.313,4.329,4.329,4.329,4.329,4.288,4.2351,4.1692,4.0995,4.0337,3.9679,3.9463,3.905,3.8332,3.7225,3.6656,3.6387,3.525,3.4262,3.3455,3.2976,3.2228,3.154,3.172,3.166,3.1511,1.8998,1.9164,1.9512,2.0175,2.1155,2.2134,2.292,2.3069,2.3327,2.4036,2.4168,2.4443,2.5218,2.6408,2.7041,2.6721,2.8169,2.9486,3.0351,3.1088,3.2298,3.41,3.5125,3.5932,3.6512,3.8107,3.8983,3.9017,4.0642,4.1494,4.1524,4.2171,4.226,4.1863,4.1863,4.2032,4.2351,4.2351,4.2317,4.2304,4.2304,4.1353,3.973,3.8649,3.7994,3.7787,3.8782,3.6837,3.3881,3.4539,3.3311,3.1511,3.196,3.2114,3.2019,3.1549,3.0633,2.9955,3.0482,3.1265,3.2358,3.4009,3.5953,3.7779,3.9005,3.9829,4.1027,4.3658,4.3719,4.3284,4.3424,4.2861,4.1842,4.0006,3.9722,3.9722,3.9697,3.9271,3.8919,3.8919,3.7938,3.7703,0.0,4.0469,4.1672,4.2137,4.2188,4.251,4.3173,4.2643,4.2618,4.329,4.329,4.329,4.329,4.326,4.297,4.2351,4.1692,4.0995,4.0337,3.9709,3.905,3.8362,3.7674,3.7045,3.6447,3.5759,3.4681,3.3484,3.3484,3.2677,3.157,3.2228,3.2049,3.1511,1.9567,1.9506,1.9566,1.9617,2.0541,2.1312,2.1372,2.2713,2.3818,2.4072,2.4564,0.0,0.0,0.0,0.0,0.0,2.7278,2.8498,2.9329,3.0191,3.1126,3.2209,3.3071,3.3813,3.4501,3.5787,3.7272,3.8876,3.9437,4.0405,4.1766,4.198,4.1775,4.1219,4.1219,4.1154,4.0978,4.0694,4.0793,4.1127,4.0378,3.9507,3.8523,3.7784,3.6688,3.5676,0.0,3.556,3.3976,3.2661,3.1679,3.0995,3.0687,3.0567,3.0452,2.9918,3.003,3.0382,3.0557,0.0,3.3478,3.5208,3.6645,3.7957,3.9076,4.0205,4.1215,4.2119,4.2378,4.2342,4.1928,4.1362,4.0636,3.9575,3.9548,3.9572,3.9195,3.8994,3.8642,3.7839,3.7412,0.0,0.0,0.0,0.0,4.1085,4.1151,4.1454,4.211,4.1822,4.1728,4.1976,4.2415,4.2618,4.2618,4.309,4.2791,4.1722,4.0606,3.9948,3.9738,3.9529,3.929,3.902,3.7883,3.7285,3.7015,3.5938,3.4981,3.4113,3.3664,3.2946,3.2138,3.1899,3.169,3.157,0.0,2.0031,2.0093,1.9673,2.0172,0.0,0.0,0.0,0.0,0.0,0.0,0.0,0.0,0.0,0.0,0.0,0.0,2.7404,2.7972,2.8503,2.9237,3.0263,3.0676,3.1268,3.2123,3.2935,3.4173,3.5881,3.647,3.7629,3.9372,3.9945,4.0091,3.9923,3.9923,3.9797,3.9545,3.9256,3.8978,3.8755,3.8268,3.7199,3.5838,3.5305,3.4621,0.0,3.3899,3.4115,3.4164,3.2036,3.1024,3.0496,2.972,2.9478,2.9528,2.9754,3.0181,3.0783,3.1562,3.2878,3.4375,3.5841,3.6988,3.7917,3.8604,3.959,4.0398,4.0636,4.0907,4.0907,4.0332,3.9725,3.9084,3.8303,3.8337,3.844,3.8567,3.8241,3.7864,3.7513,3.696,3.6676,0.0,0.0,0.0,4.0087,4.024,4.0542,4.1415,4.1113,4.1029,4.1281,4.1728,4.1935,4.1935,4.2383,4.2079,4.1025,4.0187,3.9768,3.9768,4.0008,3.9978,3.9679,3.8332,3.7614,3.7315,3.6297,3.531,3.4503,3.4292,3.3514,3.2527,3.2557,3.2108,3.157,0.0,0.0,2.0925,0.0,0.0,0.0,0.0,0.0,0.0,0.0,0.0,0.0,0.0,0.0,0.0,0.0,0.0,0.0,2.6336,2.6118,2.6695,2.8179,2.81,2.8478,2.9469,2.9742,3.0101,3.0597,3.2131,3.3471,3.4672,3.6204,3.7259,3.7883,3.7883,3.791,3.7841,3.791,3.6921,3.5372,3.5938,3.4548,3.2008,3.1484,3.1964,3.2732,3.1765,3.266,3.4162,3.2585,3.1189,0.0,0.0,2.9013,2.9364,3.0959,3.111,3.1235,3.3345,3.4274,3.4904,3.6077,3.7065,3.7776,3.7821,3.8187,3.8702,3.9349,3.9204,3.8858,3.86,3.7871,3.7127,3.6455,3.6278,3.6629,3.7912,3.7186,3.6935,0.0,0.0,0.0,0.0,0.0,0.0,3.921,0.0,3.9905,4.0974,4.0535,4.0546,4.1155,4.1226,4.1268,4.1268,4.1337,4.1037,4.0457,4.0427,4.0427,4.0457,4.1055,4.0965,4.0277,3.8931,3.7973,3.7375,3.6716,3.5699,3.4683,3.522,3.4292,3.2766,3.3963,3.3245,3.16,0.0,0.0,0.0,0.0,0.0,0.0,0.0,0.0,0.0,0.0,0.0,0.0,0.0,0.0,0.0,0.0,0.0,0.0,2.5312,2.4941,2.483,2.5063,2.5355,2.5895,2.6678,2.7431,2.8715,3.0653,3.1114,3.2114,3.3664,3.41,3.4089,3.376,3.3913,3.3641,3.3046,3.3708,3.3555,3.2978,3.3199,3.2742,3.1922,3.1508,3.1915,3.268,3.2543,3.3317,3.4138,3.2458,0.0,0.0,0.0,3.0733,3.1461,0.0,0.0,3.3194,3.3746,3.4589,3.5552,3.6632,3.7099,3.7361,3.773,3.7618,3.72,3.6618,3.5939,3.502,3.3764,3.4376,0.0,3.5929,3.6854,0.0,3.9114,3.9019,0.0,3.8607,0.0,3.8032,3.8084,3.7311,0.0,0.0,3.8215,3.8352,3.8645,3.9212,3.9618,3.9793,4.0287,4.0546,4.0546,4.0591,4.0831,4.1115,4.0636,4.0666,4.1115,4.0786,4.0277,3.9589,3.8242,3.7554,3.7315,3.6207,3.5848,3.5908,3.5102,3.4412,3.3963,3.3814,3.3425,3.2916,0.0,0.0,0.0,0.0,0.0,0.0,0.0,0.0,0.0,0.0,0.0,0.0,0.0,0.0,0.0,0.0,0.0,0.0,0.0,2.4161,2.3591,2.3248,2.2981,2.3227,2.4013,2.4283,2.5253,2.6847,2.7442,2.8399,2.9666,3.0271,3.0467,3.041,3.0539,3.0328,2.9896,3.0769,3.0846,0.0,0.0,3.1048,3.0583,3.0668,3.1203,3.1894,3.2378,3.3131,3.3756,0.0,0.0,3.0815,3.1483,3.1938,3.2466,3.3696,0.0,3.4776,3.5504,3.5981,3.638,3.6966,3.6959,3.6748,3.6513,3.638,3.5937,3.4578,3.3809,3.3016,3.1759,3.2754,3.3927,0.0,0.0,0.0,3.8774,3.874,3.8642,0.0,3.8641,0.0,3.839,3.7878,3.765,0.0,3.7814,3.7913,3.8167,3.889,3.9292,3.9292,3.9662,4.0003,4.0323,4.0318,4.0695,4.1422,4.1332,4.1294,4.1422,4.1332,4.0756,3.9798,3.8751,3.8123,3.7764,3.6746,3.6387,3.6417,3.5669,3.5043,3.4503,3.4412,3.3993,3.3455,0.0,0.0,0.0,0.0,0.0,0.0,0.0,0.0,0.0,0.0,2.4534,2.5776,0.0,0.0,0.0,0.0,0.0,0.0,0.0,0.0,2.2934,2.2345,2.1391,2.1231,2.1953,2.1619,2.1639,2.2051,2.3202,2.4102,2.4787,2.5933,2.6801,2.7346,2.7586,2.7629,2.7605,2.8742,2.8751,2.8171,2.9622,2.971,2.9025,0.0,3.0228,3.097,3.1819,3.2533,3.3064,0.0,3.2434,3.1829,3.2962,3.3093,3.337,3.5981,3.6285,3.616,3.7713,3.7713,3.7287,3.7211,3.6832,3.6128,3.4977,3.4958,3.4681,3.2966,0.0,3.1939,3.0932,3.1876,3.2803,3.2967,0.0,3.6444,3.7928,3.7752,3.7863,3.8944,3.8592,3.8215,3.8212,3.8114,3.7934,3.7782,3.7785,3.805,3.8557,3.9051,3.9292,3.9292,3.9292,3.955,4.0048,4.0048,4.0452,4.127,4.1876,4.1944,4.1572,4.2051,4.1542,4.0217,3.9559,3.8931,3.8332,3.7584,3.7075,3.6716,3.6447,3.5731,3.4833,3.531,3.4771,3.3754,0.0,0.0,0.0,0.0,0.0,0.0,0.0,0.0,0.0,2.337,2.4233,2.5178,0.0,0.0,0.0,0.0,0.0,0.0,0.0,0.0,0.0,2.2045,2.2114,2.2246,2.2402,2.2633,2.2808,2.2886,2.311,2.3299,2.343,2.3676,2.3687,2.3519,2.4807,2.5062,2.4724,2.7044,2.7992,2.7971,2.9086,2.9443,2.9333,2.9677,0.0,0.0,3.1746,3.1965,3.2031,3.3462,3.3886,3.383,3.4268,3.5303,3.6609,3.8015,3.804,3.7739,3.8517,3.8291,3.7739,3.7287,3.6832,3.6128,3.4977,3.4111,0.0,0.0,3.0968,3.0312,2.8369,2.9682,3.1487,3.2808,0.0,0.0,0.0,0.0,3.902,0.0,0.0,0.0,0.0,0.0,0.0,0.0,3.7598,3.805,3.8557,3.9051,3.9292,3.9292,3.9292,3.9098,3.8726,3.8726,3.9406,4.0665,4.0783,4.135,4.2201,4.1782,4.0816,3.9559,3.8871,0.0,3.8302,3.7135,3.7195,3.7913,3.6297,3.5878,3.6088,3.5669,3.534,3.507,0.0,0.0,0.0,0.0,0.0,0.0,2.0879,2.1094,2.1743,2.3188,2.4512,2.5717,2.6909,2.7656,2.8192,0.0,0.0,0.0,0.0,0.0,0.0,2.2635,2.232,2.2285,2.25,2.2672,2.2769,2.2769,0.0,2.2984,2.2769,2.2984,2.2984,2.2852,2.3591,2.4,2.4262,2.6022,2.7139,2.7891,2.887,2.9404,2.9599,0.0,0.0,0.0,0.0,0.0,3.2106,3.3066,3.3835,3.4667,3.5663,3.6734,3.7839,3.8969,3.9094,3.9019,3.9572,3.9094,3.8316,3.7764,3.6759,3.5579,3.4173,0.0,0.0,0.0,3.0181,2.9779,2.8398,2.9896,0.0,3.2037,0.0,0.0,0.0,0.0,0.0,0.0,0.0,0.0,0.0,0.0,3.8187,3.7574,3.7966,3.8227,3.8167,3.889,3.9292,3.9292,3.902,3.9008,3.9407,3.9137,3.9653,4.0973,4.1329,4.1454,4.1354,4.1422,4.0666,3.9409,3.908,3.8931,3.8841,3.7883,3.7853,3.8242,3.6626,3.6207,3.6417,3.5759,3.528,3.4861,0.0,0.0,0.0,0.0,0.0,0.0,2.1249,2.1405,2.1931,2.3198,2.4947,2.6361,2.7171,2.8086,2.8698,0.0,0.0,0.0,0.0,0.0,0.0,0.0,0.0,0.0,0.0,0.0,0.0,0.0,2.2945,0.0,0.0,0.0,0.0,0.0,2.326,2.3889,2.4724,2.5714,2.6853,0.0,0.0,2.9351,0.0,0.0,0.0,0.0,0.0,0.0,3.1897,0.0,3.3029,3.4175,3.5819,3.7086,3.8165,3.8944,3.9421,3.9798,4.0224,3.9697,3.8868,3.8191,3.6712,3.5056,3.3445,3.2114,0.0,0.0,2.9804,2.9628,2.8988,3.0291,3.1366,0.0,3.2337,3.4101,0.0,0.0,0.0,0.0,0.0,0.0,0.0,0.0,0.0,3.7756,3.8199,3.8411,3.8122,3.889,3.9292,3.9292,3.8722,3.8815,3.9673,3.9284,3.965,4.0834,4.1454,4.127,4.0427,4.0935,4.0516,3.9373,3.9373,3.9373,3.9379,3.8691,3.8482,3.8482,3.7195,3.6686,3.6596,3.5968,3.528,3.4623,0.0,0.0,0.0,0.0,0.0,0.0,2.1699,2.2148,2.2852,2.4141,2.5487,2.6575,2.7085,2.8379,2.9108,0.0,0.0,0.0,0.0,0.0,0.0,0.0,0.0,0.0,0.0,0.0,0.0,2.3042,0.0,0.0,0.0,0.0,0.0,0.0,0.0,0.0,2.5229,2.6531,0.0,0.0,0.0,0.0,0.0,0.0,0.0,0.0,0.0,0.0,0.0,0.0,0.0,3.1921,3.3111,3.5554,3.7914,3.7538,0.0,0.0,3.9747,3.9697,3.9346,3.8266,3.6712,3.5056,3.3445,0.0,0.0,2.9905,2.9804,2.9628,2.8988,2.9051,2.9516,3.0497,3.1216,3.2575,0.0,0.0,0.0,0.0,0.0,0.0,0.0,0.0,0.0,3.719,3.7624,3.8239,3.9114,3.9247,3.9292,3.9292,3.8722,3.8195,3.7779,3.7702,3.8082,3.8859,3.9459,3.9963,4.0397,4.0457,4.0098,3.9373,3.9373,3.9373,0.0,3.8691,3.8751,3.92,3.7853,3.7315,3.7255,3.6626,3.5968,3.531,0.0,0.0,0.0,0.0,0.0,0.0,2.1797,2.2246,2.2969,2.4258,2.5649,2.6907,2.7954,2.8763,2.9056,2.8634,2.8538,0.0,0.0,0.0,0.0,0.0,0.0,0.0,0.0,0.0,2.3218,2.3535,2.3218,0.0,0.0,0.0,0.0,0.0,0.0,0.0,2.5639,2.6867,0.0,0.0,0.0,0.0,0.0,0.0,0.0,0.0,0.0,0.0,2.9854,0.0,0.0,0.0,3.106,3.2918,0.0,0.0,3.7638,3.8818,3.9496,3.9948,3.9848,3.8366,3.6257,3.4299,3.3294,0.0,2.9628,2.9754,2.9804,2.9729,2.9503,2.9453,2.9603,3.0055,3.0005,3.0633,3.2742,0.0,0.0,0.0,0.0,0.0,0.0,0.0,3.7723,3.7992,3.8167,3.8575,3.9247,3.9292,3.9292,3.9292,3.9086,3.8696,3.8048,3.8467,3.8649,3.8571,3.9555,3.9966,3.9828,4.0217,4.0038,3.9373,3.9373,3.9373,0.0,3.911,3.917,3.9254,3.7943,3.7404,3.7285,3.6267,3.5459,3.4801,0.0,0.0,0.0,0.0,0.0,2.1346,2.1816,2.2344,2.3066,2.4102,2.5358,2.678,2.8348,2.8589,2.8726,2.9035,2.8731,0.0,0.0,0.0,0.0,0.0,0.0,0.0,0.0,0.0,2.3604,2.3789,2.3477,2.3496,0.0,0.0,0.0,0.0,0.0,0.0,0.0,0.0,0.0,0.0,0.0,0.0,0.0,0.0,0.0,0.0,0.0,0.0,0.0,0.0,0.0,0.0,0.0,0.0,0.0,0.0,3.6157,3.7663,3.8291,3.912,3.9446,3.809,3.5805,3.3746,0.0,3.106,2.9302,2.9704,2.9804,2.9804,2.9804,2.9804,2.9804,2.9804,2.9453,2.9754,3.1411,0.0,0.0,0.0,0.0,3.6628,0.0,3.8472,3.8631,3.9124,3.8964,3.9058,3.9563,3.9392,3.9292,3.9292,3.9388,3.9173,3.8713,3.9254,3.9262,3.8793,3.9684,3.9858,3.9439,3.9888,3.9858,3.9373,3.9373,3.932,0.0,3.911,3.899,3.8686,3.7764,3.7285,3.7015,3.6118,3.537,3.4651,0.0,0.0,0.0,0.0,0.0,2.1346,2.1816,2.2598,2.3257,2.373,2.4578,2.5886,2.7891,2.75,2.8005,3.0211,2.9245,0.0,0.0,0.0,0.0,0.0,0.0,0.0,2.4531,2.4488,2.426,2.3789,2.3789,2.3789,2.3789,2.3789,2.3555,2.3101,0.0,0.0,0.0,0.0,0.0,0.0,0.0,0.0,2.9854,0.0,0.0,0.0,0.0,0.0,0.0,0.0,0.0,0.0,0.0,2.9804,3.003,3.111,3.3796,3.6307,3.5683,3.6737,3.7889,3.7337,3.5529,3.3746,0.0,3.1361,2.9779,2.9804,2.9804,2.9804,2.9804,2.9804,2.9804,2.9804,2.9779,3.0357,3.1989,0.0,0.0,0.0,0.0,0.0,3.7705,3.8947,3.9856,4.0432,3.9885,0.0,4.0233,3.9671,3.9292,3.9292,3.9388,3.9396,3.9368,3.9456,3.9504,3.9504,3.9446,3.9403,3.9373,3.9403,3.9403,3.9373,3.9373,3.902,0.0,3.8392,3.8033,3.7434,3.7404,3.7045,3.6507,3.6477,3.6058,3.531,0.0,0.0,0.0,0.0,0.0,0.0,2.2246,2.275,2.3257,2.373,2.4277,2.5496,2.7847,2.75,2.8118,3.0737,2.9561,0.0,0.0,0.0,0.0,0.0,0.0,2.694,2.634,2.538,2.5139,2.5599,2.4974,2.4824,2.5117,2.4805,2.4277,2.3619,2.4877,0.0,0.0,0.0,0.0,0.0,0.0,3.0668,3.0859,0.0,0.0,0.0,0.0,0.0,0.0,0.0,0.0,0.0,0.0,0.0,0.0,3.0206,3.239,3.465,3.4474,3.5629,3.6558,3.5253,3.3545,3.2139,3.1964,3.0507,2.9327,2.9704,2.9804,2.9804,2.9804,2.9804,2.9804,2.9804,2.9804,2.998,0.0,0.0,0.0,0.0,0.0,0.0,0.0,0.0,4.0057,3.9738,3.9899,3.9878,3.9663,3.9419,3.9292,3.9292,3.9775,3.9619,3.8741,3.9646,3.97,3.8823,3.9208,3.9373,3.9373,3.9373,3.9373,3.9343,3.8931,3.8871,3.902,3.8093,3.7853,3.7943,3.6626,3.6267,3.6327,3.4951,3.4891,3.5282,0.0,0.0,0.0,0.0,0.0,0.0,2.248,2.2828,2.3198,2.3516,2.3769,2.4776,2.7093,2.6888,2.7738,3.0563,2.9869,0.0,0.0,0.0,0.0,0.0,2.7978,2.7644,2.7502,2.6259,2.6002,2.6718,2.5769,2.5547,2.5977,2.5703,2.5145,2.4304,2.5279,2.5849,0.0,0.0,0.0,0.0,3.0658,3.0683,3.0783,0.0,0.0,0.0,0.0,0.0,0.0,0.0,0.0,0.0,0.0,0.0,0.0,0.0,3.116,3.2717,3.2893,3.4022,3.4921,3.3847,3.2491,3.1386,3.1386,3.0281,2.9352,2.9704,2.9804,2.9804,2.9804,2.9804,2.9804,2.9804,2.9428,2.9453,0.0,0.0,0.0,0.0,0.0,0.0,0.0,3.9771,4.0364,4.0388,4.0275,4.0024,3.9644,3.9427,3.9292,3.9292,3.9968,4.0027,3.954,4.0115,3.9982,3.9217,3.9348,3.9373,3.9373,3.9373,3.9373,3.9343,3.8691,3.8482,0.0,3.7494,3.7015,3.6806,3.5878,3.5579,3.5609,3.4622,3.4685,3.505,0.0,0.0,0.0,0.0,0.0,0.0,2.2559,2.2847,2.3101,2.3101,2.3101,2.3835,2.5802,2.5894,2.6981,2.9883,3.006,0.0,0.0,0.0,0.0,2.8562,2.8586,2.8424,2.8129,2.7207,2.697,2.7336,2.6383,2.6123,2.6484,2.6484,2.5996,2.5145,2.4695,2.5292,0.0,0.0,0.0,0.0,3.0357,3.0281,0.0,0.0,0.0,0.0,0.0,0.0,0.0,0.0,0.0,0.0,0.0,0.0,0.0,0.0,0.0,0.0,0.0,3.2064,3.2893,3.2842,3.2064,3.1286,3.1286,3.0507,0.0,2.9804,2.9804,2.9804,2.9804,2.9804,2.9804,2.9804,2.8875,2.89,0.0,0.0,0.0,0.0,3.6784,0.0,3.8768,3.9756,4.0799,4.1808,4.0838,4.016,4.0133,3.959,3.9292,3.938,3.9968,4.0618,4.123,4.0685,4.035,4.0263,3.9672,3.9373,3.9337,3.9373,3.9343,0.0,3.8631,3.7973,3.7375,3.6686,3.5699,3.4713,3.522,3.507,3.4653,3.51,3.511,3.4727,0.0,0.0,0.0,0.0,0.0,0.0,0.0,0.0,0.0,0.0,2.3101,2.3553,2.4755,2.5423,2.6825,0.0,0.0,0.0,0.0,0.0,0.0,2.8998,2.9205,2.931,2.9227,2.9306,2.9124,2.8726,2.8541,2.8096,2.7415,2.7415,2.6738,2.5566,2.5832,2.6402,0.0,0.0,0.0,0.0,3.0027,3.0156,0.0,0.0,0.0,0.0,2.9804,2.9804,0.0,0.0,0.0,0.0,0.0,0.0,0.0,0.0,2.988,3.0005,3.0131,0.0,3.1085,3.0658,3.0357,3.0181,0.0,2.998,2.9804,2.9804,0.0,0.0,2.9804,2.9804,2.9804,2.9804,2.9202,2.9189,3.0608,0.0,0.0,3.5855,3.7939,3.9146,3.8817,3.9748,4.0469,4.0668,4.0391,3.9997,3.9536,3.9373,3.9557,4.0055,4.0229,4.0168,3.9871,4.0216,3.9885,3.8921,3.9281,3.9156,3.8752,3.9192,3.914,3.8601,3.7943,3.7554,3.7315,3.6207,3.5848,3.5938,3.507,3.4951,3.51,3.3724,3.3785,3.442,0.0,0.0,0.0,0.0,0.0,0.0,0.0,0.0,0.0,0.0,2.3101,2.3299,2.382,2.4659,2.617,0.0,0.0,0.0,0.0,3.1497,3.0701,2.9548,2.9674,2.9862,2.9983,2.9997,2.9828,2.958,2.916,2.8624,2.8002,2.8002,2.7363,2.6269,2.6209,2.6165,2.6337,2.7261,0.0,2.93,2.9528,0.0,0.0,0.0,0.0,0.0,2.9804,2.9804,0.0,2.9804,2.9804,2.9804,0.0,0.0,0.0,0.0,2.9804,2.9804,2.9804,3.0005,3.0156,2.9854,2.9804,2.9804,2.9804,2.9804,0.0,0.0,0.0,0.0,0.0,0.0,2.9804,2.9804,2.9528,0.0,0.0,0.0,0.0,0.0,3.804,3.907,0.0,3.9797,4.007,4.0267,3.9969,3.9644,3.9319,3.9292,3.9469,3.9837,4.0417,4.0461,3.9841,4.0236,3.9903,3.8936,3.9228,3.9228,3.8936,3.9228,3.905,3.8362,3.7704,3.7255,3.6896,3.5908,3.5519,3.5519,3.51,3.4801,3.4502,3.3694,3.3576,3.3698,0.0,0.0,0.0,0.0,0.0,0.0,0.0,0.0,0.0,0.0,0.0,0.0,0.0,0.0,0.0,0.0,0.0,0.0,0.0,3.2265,3.1647,3.0384,3.022,3.0343,3.0748,3.0323,3.017,3.029,2.9374,2.8727,2.8396,2.8368,2.7793,2.6855,2.6209,2.5561,2.504,2.6534,2.7557,2.8203,2.891,0.0,0.0,0.0,0.0,0.0,0.0,0.0,0.0,2.9804,2.9804,2.9804,2.9804,0.0,0.0,0.0,0.0,0.0,2.9804,2.9854,2.9905,2.9804,2.9804,2.9804,2.9804,0.0,0.0,0.0,0.0,0.0,0.0,2.9804,0.0,0.0,0.0,0.0,0.0,0.0,0.0,3.6759,3.7563,0.0,3.9797,3.9581,3.9564,4.0032,3.9599,3.9292,3.9292,3.9292,3.9336,3.9469,4.0546,4.0916,4.0393,4.051,4.0132,3.9265,3.9337,3.9337,3.9265,3.9337,3.899,3.8212,3.7644,0.0,3.6297,3.5729,3.516,3.4713,3.528,3.4801,3.3844,3.4354,3.3908,3.3032,0.0,0.0,0.0,0.0,0.0,0.0,0.0,0.0,0.0,0.0,0.0,0.0,0.0,0.0,0.0,0.0,0.0,0.0,0.0,3.2491,3.2098,3.188,3.1249,3.139,3.2321,3.2049,3.1833,3.1685,3.1007,3.0098,2.8962,2.8529,2.7637,2.6465,2.6359,2.6039,2.565,2.5695,2.6749,2.8357,2.8314,0.0,0.0,0.0,0.0,0.0,0.0,0.0,0.0,2.9804,2.9804,2.9804,2.9804,0.0,0.0,0.0,0.0,0.0,2.9804,3.0131,3.0382,2.9905,2.9804,2.9804,2.9804,0.0,0.0,0.0,0.0,0.0,0.0,2.9854,3.0181,0.0,0.0,3.1738,0.0,0.0,3.5458,3.5734,0.0,3.7907,3.7711,3.8371,3.9049,3.9573,3.942,3.9292,3.9292,3.9292,3.9557,4.0142,4.0331,4.0419,4.0393,4.0935,4.0359,3.8642,3.9156,3.9119,3.8679,3.9156,3.8721,3.7554,0.0,3.6746,3.5639,3.5549,3.5459,3.537,3.5459,3.537,3.513,3.4651,3.4024,3.3337,0.0,0.0,0.0,0.0,0.0,0.0,0.0,0.0,0.0,0.0,0.0,0.0,0.0,0.0,0.0,0.0,0.0,0.0,3.2311,3.2624,3.2817,3.3119,3.2531,3.2329,3.2698,3.2865,3.2859,3.2626,3.2208,3.1274,2.9704,2.8269,2.7168,2.6367,2.5898,2.5433,2.5062,2.518,2.6368,2.8133,0.0,0.0,0.0,0.0,0.0,0.0,0.0,0.0,0.0,0.0,2.9804,2.9804,2.9804,0.0,0.0,0.0,0.0,0.0,2.9804,2.998,3.0105,2.9854,2.9804,2.9705,2.9264,2.9149,0.0,0.0,0.0,0.0,0.0,0.0,3.1307,3.1562,0.0,3.3119,3.4198,3.4776,3.5282,0.0,0.0,3.7276,3.7522,3.799,3.8486,3.8983,3.8988,3.9051,3.9292,3.9292,3.9424,3.9749,4.0099,4.0168,3.9841,4.051,4.0208,3.8973,3.9265,3.9265,3.901,3.9265,3.8691,3.7404,0.0,3.6686,3.5519,3.5519,3.5519,3.5519,3.5519,3.528,3.4831,3.3784,3.3215,3.2916,0.0,0.0,0.0,0.0,0.0,0.0,0.0,0.0,0.0,0.0,0.0,0.0,0.0,0.0,0.0,0.0,0.0,0.0,3.1811,3.2682,3.3319,3.3872,3.3621,3.3433,3.3383,3.3488,3.3633,3.3648,3.3217,3.2275,3.0922,2.886,2.7682,2.7222,2.6201,2.5358,2.4827,2.5058,2.6159,2.77,0.0,0.0,0.0,0.0,0.0,0.0,0.0,0.0,0.0,0.0,0.0,0.0,0.0,0.0,0.0,2.9804,2.9804,2.9804,2.9804,2.9918,2.9957,2.9593,2.9656,2.9694,2.9505,2.943,0.0,0.0,0.0,0.0,0.0,3.1808,0.0,3.384,3.4098,3.4324,3.5002,3.5102,3.5429,3.6304,3.6405,3.6723,3.7486,3.7654,3.7898,3.8402,3.8557,3.8827,3.9247,3.9292,3.938,3.9513,3.9743,3.9774,3.9642,3.9855,3.9756,3.9373,3.9373,3.9373,3.9373,3.926,3.8542,3.7404,3.7255,3.6567,3.5519,3.5519,3.5519,3.5519,3.5519,3.519,3.4562,3.3245,3.2766,3.2795,0.0,0.0,0.0,0.0,0.0,0.0,0.0,0.0,0.0,0.0,0.0,0.0,0.0,0.0,0.0,0.0,0.0,0.0,3.2014,3.2767,3.3319,3.3872,3.4349,3.4806,3.5307,3.4354,3.4245,3.5065,3.3958,3.3296,3.2922,3.1253,3.0248,2.9841,2.8318,2.7003,2.5972,2.563,2.613,2.7174,2.7149,0.0,0.0,0.0,0.0,0.0,0.0,0.0,0.0,0.0,0.0,0.0,0.0,0.0,2.9804,2.9804,2.9804,2.9804,2.9804,3.0312,3.0468,2.9017,2.9116,2.9942,3.1555,3.1819,0.0,3.2616,0.0,0.0,0.0,3.1436,3.2405,3.4299,3.463,3.5027,3.6128,0.0,3.6329,3.6405,3.6405,3.643,3.6502,3.6879,3.732,3.7821,3.8304,3.8827,3.9247,3.9292,3.9601,4.0229,3.9141,3.9103,4.0315,3.9225,3.8899,3.9373,3.9373,3.9373,3.9409,3.8751,3.8093,3.7375,3.6806,3.6148,3.5519,3.5519,3.5519,3.5519,3.5519,3.5459,3.528,3.3933,3.3577,3.3666,0.0,0.0,0.0,0.0,0.0,0.0,0.0,0.0,0.0,0.0,0.0,2.8411,2.7971,0.0,0.0,0.0,0.0,0.0,3.0941,3.1955,3.2792,3.337,3.4248,3.4781,3.4981,3.4906,3.5408,3.6463,3.5526,3.4752,3.4166,3.2236,3.1092,3.0585,2.9336,2.8227,2.7158,2.663,2.6915,2.7779,2.7038,2.7906,0.0,0.0,0.0,0.0,0.0,0.0,0.0,0.0,2.9804,2.9729,2.9377,2.9503,2.9729,2.9352,2.9252,2.9252,2.9252,2.9909,3.028,2.8944,2.9636,0.0,0.0,3.1837,3.2143,3.3532,3.4714,0.0,0.0,0.0,3.5889,3.548,3.5851,3.6252,3.6402,3.6405,3.6405,3.6405,3.6405,3.6405,3.6405,3.6546,3.6989,3.775,3.8004,3.844,3.9247,3.9689,3.9837,3.9662,3.9259,3.9285,3.9762,3.8932,3.8803,3.9373,3.9373,3.92,3.8781,3.8512,3.7823,3.6836,3.6596,3.6118,3.5519,3.5519,3.5519,3.5519,3.5519,3.5519,3.534,3.3993,3.3576,3.3517,0.0,0.0,0.0,0.0,0.0,0.0,0.0,0.0,2.6295,0.0,0.0,0.0,0.0,2.8706,0.0,0.0,0.0,0.0,3.0303,3.1379,3.229,3.3086,3.3972,3.4625,3.4931,3.5307,3.6006,3.6983,3.6751,3.6275,3.5495,3.3583,3.2515,3.2076,3.0738,2.9637,2.8715,2.7797,2.7619,2.7868,2.679,2.7369,0.0,0.0,0.0,0.0,0.0,0.0,0.0,0.0,2.9402,2.9227,2.8963,2.9353,2.9808,2.9439,2.9497,2.9667,2.9486,3.0154,3.0601,2.9469,0.0,0.0,3.3036,3.3086,3.3494,3.5321,3.6202,3.6652,3.6769,0.0,0.0,0.0,3.6916,3.7222,3.6687,3.6499,3.6405,3.6405,3.6405,3.6452,3.6593,3.6499,3.6875,3.7959,3.7913,3.8243,3.924,3.9562,3.9479,3.9027,3.8681,3.8616,3.8807,3.8224,3.8333,3.9119,3.876,3.8552,3.8392,3.8182,3.7494,3.6477,3.6267,3.5908,3.5519,3.5519,3.5519,3.5519,3.5519,3.5519,3.537,3.4233,3.3664,3.3426,0.0,0.0,0.0,0.0,0.0,0.0,0.0,0.0,2.6925,2.7901,2.9248,0.0,0.0,0.0,0.0,0.0,0.0,0.0,3.0518,3.1085,3.1888,3.3061,3.3596,3.4399,3.5458,3.5483,3.5805,3.6405,3.7462,3.7739,3.7161,3.5624,3.4896,3.48,3.2745,3.1364,3.0511,2.911,2.805,2.7238,2.643,2.6152,2.641,0.0,0.0,0.0,0.0,0.0,0.0,0.0,2.8549,2.8197,2.8712,2.946,3.0121,3.0178,3.0753,3.1287,3.0726,3.124,3.1644,0.0,0.0,0.0,3.6096,3.6177,3.6301,3.839,3.7629,3.6895,3.7777,3.769,0.0,3.7057,3.7652,3.7906,3.7201,3.6687,3.6405,3.6405,3.6405,3.6593,3.7062,3.6687,3.7015,3.8512,3.8096,3.8211,3.9254,3.8742,3.8425,3.8422,3.7236,3.6907,3.7489,3.6944,3.7289,3.8464,3.7396,3.7431,3.8362,3.7704,3.7075,3.6447,3.5789,3.5519,3.5519,3.5519,3.5519,3.5519,3.5519,3.5519,3.5429,3.4773,3.4084,3.3486,0.0,0.0,0.0,0.0,0.0,0.0,0.0,0.0,2.6659,2.8313,2.9153,0.0,0.0,0.0,0.0,0.0,0.0,0.0,2.9034,2.9602,3.0499,3.1863,3.2817,3.347,3.3796,3.4906,3.5959,3.6935,3.7663,3.7739,3.7161,3.5924,3.5136,3.4693,3.3703,3.2333,3.0693,3.0087,2.9188,2.8031,2.7019,2.7256,2.8208,0.0,0.0,0.0,0.0,0.0,0.0,0.0,0.0,0.0,2.8298,2.9263,3.0197,2.9776,3.025,3.0862,3.0196,3.0699,0.0,3.0612,0.0,0.0,0.0,3.6177,0.0,0.0,3.9917,3.9428,4.0036,4.0198,0.0,3.8866,3.9345,3.9404,3.7997,3.7678,3.7289,3.6499,3.7103,3.7632,3.7769,3.7678,3.7906,3.8747,3.8657,3.8657,3.8785,3.9899,3.9864,3.8463,3.8134,3.7838,3.7489,3.6944,3.7062,3.7799,3.7476,3.7448,3.7669,3.677,3.6129,3.5789,3.5579,3.5519,3.5519,3.5519,3.5519,3.5519,3.5519,3.5519,3.5429,3.4773,3.4084,3.3456,0.0,0.0,0.0,0.0,0.0,0.0,2.6541,2.6389,2.6594,2.7992,2.8805,2.9412,0.0,0.0,0.0,0.0,0.0,0.0,2.8521,2.8843,2.9715,3.132,3.224,3.3043,3.3721,3.5127,3.5981,3.6207,3.7186,3.7186,3.6207,3.5708,3.5332,3.5006,3.4926,3.3811,3.2005,3.1476,3.0403,2.8932,2.7738,2.7768,2.848,0.0,0.0,0.0,0.0,0.0,0.0,0.0,0.0,0.0,2.8047,2.8862,2.9715,2.9594,3.0239,3.0918,3.0583,3.1081,0.0,3.1724,3.3311,3.5335,3.7001,0.0,0.0,0.0,4.1414,4.0972,4.1519,4.1479,0.0,4.031,4.0644,4.0575,3.9271,3.8693,3.8088,3.7196,3.7861,3.8315,3.7997,3.8469,3.8899,3.906,3.9125,3.909,3.8936,3.9755,3.9686,3.8502,3.8289,3.7866,3.7195,3.6872,3.6834,3.7142,3.6708,3.6715,3.7011,3.6433,3.5908,3.5519,3.5519,3.5519,3.5519,3.5519,3.5519,3.5519,3.5519,3.5519,3.5459,3.504,3.4292,3.3516,0.0,0.0,2.8699,2.9073,0.0,0.0,2.7882,2.7332,2.6941,2.7479,2.8562,2.9292,0.0,0.0,0.0,2.8622,0.0,0.0,2.8575,2.8521,2.9366,3.137,3.2089,3.3169,3.47,3.5705,3.5705,3.465,3.6157,3.6132,3.4726,3.5082,3.5332,3.5433,3.5931,3.5253,3.3702,3.2852,3.1462,2.972,2.8496,2.7934,2.7911,2.8845,0.0,0.0,0.0,0.0,0.0,0.0,0.0,0.0,2.7996,2.845,2.8917,2.9668,3.0552,3.135,3.1545,3.2019,0.0,3.3484,3.4831,0.0,3.8182,4.0576,4.2581,4.306,0.0,4.1782,4.2381,4.1991,4.159,4.1567,4.168,4.1504,4.0817,3.9798,3.8872,3.8243,3.8738,3.8854,3.8115,3.92,3.9786,3.9475,3.9534,3.9504,3.9344,3.8932,3.8601,3.8493,3.7919,3.7281,3.6626,3.6593,3.6567,3.6427,3.5475,3.5504,3.6387,3.638,3.6052,3.5519,3.5519,3.5519,3.5519,3.5519,3.5519,3.5519,3.5519,3.5519,3.5489,3.5429,3.4592,3.3576,0.0,0.0,2.8903,2.8254,0.0,0.0,2.8864,2.8297,2.8299,2.9872,2.96,2.9292,2.9292,2.8052,0.0,2.7012,2.6084,0.0,2.7387,2.7888,2.9267,3.1905,3.342,3.4304,3.468,3.4951,3.4751,3.4073,3.4424,3.465,3.4655,3.3947,3.4073,3.4831,3.4575,3.3746,3.2541,3.1947,3.0925,2.9712,2.8771,2.8762,2.9263,2.8842,2.9032,0.0,0.0,0.0,0.0,0.0,0.0,0.0,2.8574,2.898,2.9475,3.0201,3.0829,3.1379,3.208,3.2378,0.0,0.0,3.7225,3.9469,3.9858,4.1594,4.288,4.1983,4.2402,4.297,4.305,4.3,4.2862,4.2892,4.2892,4.2548,4.1504,4.1169,4.0447,3.8917,4.0074,4.0746,4.0059,4.0252,4.0386,4.0332,3.9857,3.935,3.8867,3.9563,3.9512,3.853,3.7856,3.7091,3.6136,3.5957,3.5656,3.5264,3.5368,3.5501,3.5696,3.5371,3.5321,3.5519,3.5519,3.5519,3.5519,3.5519,3.5519,3.5519,3.5519,3.5519,3.5429,3.4891,3.4329,3.3728,0.0,0.0,0.0,0.0,0.0,0.0,0.0,0.0,2.9283,2.9762,2.9738,2.9581,2.934,2.8192,0.0,0.0,2.5912,2.5756,2.657,2.7198,2.9059,3.2456,3.3972,3.468,3.468,3.4474,3.4048,3.3495,3.2968,3.3269,3.4324,3.3746,3.3922,3.47,3.4424,3.352,3.219,3.1913,3.116,3.0142,2.9683,2.9762,3.0142,2.9683,2.9653,2.9804,2.9804,0.0,0.0,0.0,0.0,0.0,0.0,0.0,2.8734,2.9407,3.0107,3.0823,3.1303,0.0,0.0,3.5489,0.0,4.0008,4.0337,4.1205,4.1833,4.1444,4.2432,4.329,4.329,4.306,4.288,4.288,4.2611,4.2177,4.1596,4.147,4.0916,3.9438,4.0827,4.1344,3.9802,4.0775,4.1033,4.0101,4.0012,3.9711,3.9054,3.9587,3.9622,3.8936,3.8286,3.7543,3.6741,3.6278,3.5755,3.5196,3.5404,3.5486,3.5487,3.5288,3.5292,3.5519,3.5519,3.5519,3.5519,3.5519,3.5519,3.5519,3.5519,3.5519,3.5429,3.4773,3.427,3.3788,0.0,0.0,0.0,0.0,0.0,0.0,0.0,0.0,0.0,2.9326,2.9735,2.9917,2.9525,2.8532,2.758,0.0,0.0,0.0,2.6023,2.7099,2.9344,3.295,3.4123,3.4675,3.4575,3.4048,3.3495,3.2918,3.1888,3.229,3.4048,3.3847,3.4098,3.468,3.4525,3.3621,3.2215,3.2014,3.1361,3.0482,3.0482,3.0482,3.0482,3.0482,3.0181,2.9779,2.9679,2.9654,2.9654,2.9654,0.0,0.0,0.0,0.0,2.7809,2.8464,2.9241,2.9942,3.0228,0.0,3.4113,3.6028,3.7973,0.0,4.0098,4.0397,4.0696,4.1115,4.2162,4.2961,4.2961,4.2551,4.2231,4.2231,4.1782,4.1422,4.1422,4.1409,4.1017,3.9881,4.1179,4.1291,3.9118,4.0793,4.135,3.9697,3.9976,3.9996,3.9434,3.9416,3.9379,3.926,3.8571,3.7896,3.7222,3.6635,3.6014,3.5369,3.5453,3.5499,3.5519,3.5519,3.5519,3.5519,3.5519,3.5519,3.5519,3.5519,3.5519,3.5519,3.5519,3.5429,3.525,3.4562,3.412,3.3726,0.0,0.0,0.0,0.0,0.0,0.0,0.0,0.0,0.0,0.0,3.0596,3.0145,3.0264,2.8928,2.7713,2.6866,2.632,2.6023,2.5866,0.0,0.0,3.3043,3.4123,3.45,3.4022,3.347,3.2918,3.2315,3.1687,3.2491,3.46,3.3646,3.3746,3.4675,3.3721,3.2893,3.2164,3.121,3.0457,2.9905,2.9905,2.9905,2.9905,2.9905,2.9854,2.9729,2.9227,2.9013,2.9013,2.9013,2.8674,0.0,0.0,0.0,2.8214,2.903,2.9019,2.8959,0.0,0.0,3.4713,0.0,3.7973,3.9403,0.0,0.0,4.1115,0.0,4.1115,4.1654,4.1654,4.1564,4.1504,4.1504,4.1482,4.1422,4.1422,4.1406,4.113,4.0393,4.1006,4.1151,4.0275,4.0482,4.0562,4.0293,3.9808,3.9486,3.9384,3.9397,3.914,3.8542,3.7883,3.7074,3.6122,3.579,3.5436,3.4957,3.5318,3.5481,3.5519,3.5519,3.5519,3.5519,3.5519,3.5519,3.5519,3.5519,3.5519,3.5519,3.5519,3.513,3.4563,3.3873,3.3547,3.3372,0.0,0.0,0.0,0.0,0.0,0.0,0.0,0.0,0.0,0.0,0.0,3.0465,3.026,2.9456,2.8515,2.7429,2.7264,2.7039,2.6547,2.8245,3.0071,3.1816,3.3109,3.3696,3.3445,3.2893,3.2315,3.1763,3.121,3.224,3.468,3.4223,3.46,3.5579,3.4173,3.3043,3.2114,3.0733,3.0005,2.9804,2.9804,2.9603,2.9352,2.9679,2.9603,2.9327,2.9377,2.9402,2.9352,2.8988,2.8976,2.9026,2.89,0.0,0.0,0.0,2.8612,2.9346,3.0628,3.2066,3.36,0.0,3.6633,3.7853,3.8212,0.0,3.9882,3.9978,4.0605,4.1229,4.163,4.1391,4.1113,4.1113,4.0664,4.0277,4.0277,4.0606,4.0584,3.9936,4.0785,4.0972,3.9928,4.0189,4.0247,3.9888,3.9589,3.926,3.8871,3.92,3.911,3.8422,3.7764,3.7198,3.6752,3.5919,3.541,3.5247,3.5442,3.531,3.4921,3.4921,3.513,3.5519,3.5519,3.5519,3.5519,3.5519,3.5519,3.5519,3.5519,3.507,3.4444,3.3754,3.3366,3.3169,0.0,0.0,0.0,0.0,0.0,0.0,0.0,0.0,0.0,0.0,0.0,3.0731,3.0385,0.0,0.0,0.0,2.8131,2.7891,2.7139,2.7893,2.8981,3.0441,3.1918,3.2591,3.2466,3.2014,3.1537,3.0984,3.0608,3.1888,3.468,3.4575,3.5328,3.6757,3.4901,3.3395,3.2114,3.0633,3.008,3.0156,2.9729,2.9327,2.8913,2.9252,2.9101,2.8775,2.9202,2.9352,2.9327,2.9026,2.9026,2.9051,2.8499,2.8461,0.0,0.0,0.0,0.0,0.0,0.0,3.204,3.3656,3.5141,3.6369,0.0,0.0,3.852,0.0,3.9977,4.0674,4.1368,4.1309,4.1146,4.1005,4.0289,3.9666,3.9553,3.9865,3.9978,3.9433,4.0277,4.0487,3.9529,3.9858,3.9948,3.9469,3.926,3.8931,3.8422,3.8721,3.8601,3.7913,3.7434,3.7105,3.6926,3.5968,3.5519,3.5519,3.5519,3.513,3.4503,3.4503,3.4651,3.5011,3.516,3.534,3.5519,3.5519,3.5519,3.5519,3.5519,3.4981,3.4204,3.3664,3.3186,3.2813,0.0,0.0,0.0,0.0,0.0,0.0,0.0,0.0,0.0,0.0,0.0,3.0885,3.1001,3.0586,2.9801,2.8578,2.845,2.8091,2.7139,2.8444,2.9268,2.9381,3.0712,0.0,3.0758,3.0708,3.0432,2.988,2.9854,3.1512,3.468,3.4198,3.5353,3.7814,3.5655,3.3771,3.2139,3.1035,3.0859,3.116,2.9603,2.8913,2.8838,2.8373,2.8172,2.8147,2.8172,2.8197,2.8273,2.8737,2.8247,2.7595,2.8574,2.8512,2.8021,0.0,0.0,0.0,0.0,2.904,0.0,3.1987,3.3873,0.0,0.0,0.0,3.7778,3.8521,3.9003,3.9497,4.024,4.1244,4.1787,4.126,4.086,4.0481,4.0016,3.9655,3.9469,3.9373,3.9433,3.9499,3.9403,3.9403,3.9469,3.9373,3.8811,3.8422,3.8392,3.7823,3.7225,3.6596,3.6567,3.6237,3.5609,3.5549,3.5519,3.5519,3.5519,3.513,3.4503,3.4503,3.4174,3.3634,3.4294,3.4891,3.5519,3.5519,3.5519,3.5519,3.5519,3.4711,3.3544,3.3514,3.2885,3.2205,0.0,0.0,0.0,0.0,0.0,0.0,0.0,0.0,0.0,0.0,0.0,0.0,0.0,3.0505,2.9896,2.9155,2.8712,2.8371,2.8011,2.8482,2.8948,2.9285,3.0316,3.0809,3.0608,3.0608,3.0357,2.9804,2.9804,3.0934,3.3119,3.3294,3.3897,3.4826,3.4399,3.3671,3.2641,3.0859,3.0206,3.0281,2.9327,2.8687,2.8373,2.8172,2.7896,2.762,2.7971,2.8323,2.8562,2.8448,0.0,0.0,0.0,0.0,0.0,0.0,0.0,0.0,0.0,0.0,0.0,3.061,3.1886,3.298,3.4209,3.5462,3.6558,3.7288,3.8673,4.0007,4.0739,4.1285,4.1529,4.1372,4.1055,4.0727,4.0488,3.9937,3.9499,3.9385,3.9373,3.9373,3.9373,3.9373,3.9086,3.8316,3.8335,3.7863,3.6684,3.7109,3.7135,3.6507,3.6477,3.6178,3.5519,3.507,3.507,3.5489,3.4622,3.4083,3.3814,3.3395,3.3095,3.2916,3.3574,3.4233,3.4831,3.4831,3.4831,3.4801,3.4382,3.3664,3.2856,3.2856,3.2347,3.186,0.0,0.0,0.0,3.3169,0.0,3.1207,3.1207,3.0422,3.0069,3.0638,0.0,0.0,0.0,0.0,3.0294,2.9571,2.917,2.8791,2.8514,2.8752,2.8961,2.902,2.9871,3.0331,3.0331,3.0331,3.0156,2.9804,2.9804,3.0608,3.2215,3.2416,3.2817,3.3345,3.3144,3.2943,3.2692,3.1035,3.0331,3.0231,2.9101,2.8549,2.8373,2.8373,2.8119,2.7885,2.8582,2.8835,2.8784,2.8405,0.0,0.0,0.0,0.0,0.0,0.0,0.0,0.0,2.6782,0.0,0.0,0.0,0.0,3.1428,3.2503,0.0,3.5184,3.6016,3.7491,3.8916,3.9902,4.0573,4.1074,4.1419,4.1156,4.0859,4.0574,3.9835,3.9244,3.9152,3.9108,3.899,3.8781,3.8931,3.8639,3.76,3.7679,3.7237,3.5971,3.6454,3.6596,3.6178,3.6148,3.5938,3.5519,3.4863,3.4743,3.516,3.4023,3.3395,3.3155,3.2706,3.2407,3.2198,3.2886,3.3544,3.4173,3.4414,3.4384,3.4113,3.3664,3.3095,3.2527,3.2527,3.2079,3.1687,3.3897,3.3922,3.3746,3.3194,3.2164,3.1411,3.1411,3.0507,3.003,3.0583,0.0,0.0,0.0,0.0,0.0,2.993,2.9854,2.9454,2.8593,2.9326,2.9404,2.8593,2.9326,2.9804,2.9804,2.9804,2.9804,2.9804,2.9804,3.0608,3.2139,3.1612,3.224,3.3721,3.2114,3.1662,3.2114,3.1562,3.1361,3.1185,2.8976,2.8423,2.8888,2.8875,2.8746,2.8779,2.9844,2.9537,2.8651,2.859,0.0,0.0,0.0,0.0,0.0,0.0,0.0,0.0,0.0,0.0,0.0,0.0,0.0,0.0,3.1272,0.0,3.3631,3.4707,3.5306,3.6108,3.7576,3.9039,4.0339,4.1355,4.122,4.0848,4.0383,3.9345,3.8643,3.8579,3.8493,3.8157,3.7464,3.8003,3.8123,3.7366,3.6836,3.6477,3.6413,3.5848,3.5519,3.5519,3.5519,3.5489,3.5459,3.4801,3.4474,3.4474,3.3754,3.3125,3.2527,3.2497,3.2108,3.154,3.2198,3.2856,3.3484,3.4174,3.4053,3.3455,3.3455,3.3036,3.2467,3.2467,3.2049,3.1658,3.3972,3.4223,3.4324,3.3771,3.2742,3.1989,3.1989,3.1085,3.0708,0.0,0.0,0.0,3.116,3.1311,3.126,3.0984,3.0959,3.0528,2.9518,2.9663,2.9702,2.9468,2.9663,2.9804,2.9804,2.9804,2.9804,2.9804,2.9804,3.003,3.0457,3.0708,3.1085,3.1512,3.1436,3.1035,3.0457,3.0306,3.0457,3.0658,2.885,2.8423,2.88,2.7855,2.7506,2.7533,2.8084,2.8195,2.8062,2.8036,2.7967,2.7821,0.0,0.0,0.0,0.0,0.0,0.0,2.6499,0.0,0.0,0.0,0.0,0.0,3.0111,3.0785,3.153,3.2859,3.3911,3.4955,3.61,3.7277,3.8254,3.8816,4.0143,4.1082,4.0845,4.0076,3.9294,3.8678,3.8998,3.8781,3.7499,3.8003,3.7599,0.0,3.6128,3.5904,3.4627,3.5152,3.5519,3.5519,3.5519,3.528,3.4803,3.4113,3.3754,3.3754,3.2617,3.2198,3.2467,3.1989,3.169,3.154,3.2198,3.2318,3.2108,3.2796,3.2946,3.2736,3.2228,3.1929,3.178,3.178,3.166,3.1598,3.3972,3.4525,3.4856,3.4349,3.352,3.2918,3.2918,3.1989,3.1512,0.0,0.0,0.0,3.1712,3.1938,3.1913,3.1436,3.1185,3.0809,3.0181,2.993,2.9804,2.9804,2.9804,2.9804,2.9804,2.9804,2.9804,2.9804,2.9804,2.9804,2.9804,3.0131,3.0131,2.993,3.0482,3.0105,2.9126,2.9603,2.9829,2.9804,2.8599,2.8574,2.9214,2.8635,2.8537,2.8714,2.9031,2.924,2.9229,2.8256,2.7962,0.0,0.0,0.0,0.0,0.0,0.0,0.0,0.0,0.0,0.0,0.0,0.0,0.0,2.8591,2.9357,3.0128,3.0837,3.2152,3.3461,3.4362,3.5535,3.6472,3.6696,3.8186,3.9506,4.0074,3.977,3.9275,3.8794,3.8748,3.8323,3.716,3.7368,3.6926,3.5244,3.5726,3.5614,3.4568,3.5133,3.537,3.507,3.507,3.4741,3.4114,3.3425,3.3095,3.3066,3.2019,3.169,3.2079,3.169,3.1511,3.154,3.1899,3.1869,3.154,3.1929,3.2079,3.2049,3.166,3.1511,3.1511,3.1511,3.1511,3.1539,0.0,3.4781,3.5282,3.4831,3.4399,3.4073,3.4073,3.3119,3.2441,0.0,3.2466,3.2441,3.2566,3.2943,3.2742,3.1662,3.1085,3.0708,3.0532,3.0055,2.9804,2.9804,2.9804,2.9804,2.9804,2.9804,2.9804,2.9804,2.9804,2.9804,2.9804,2.9804,2.9528,2.9013,2.9503,2.9101,2.8172,2.9252,2.9327,2.8662,2.8385,2.8875,2.9794,3.0215,3.0566,3.0902,3.1198,3.1293,3.0992,2.8845,2.7949,0.0,0.0,0.0,0.0,0.0,2.7792,0.0,0.0,0.0,0.0,0.0,2.7511,0.0,2.7233,2.8204,2.9171,2.9009,3.0308,3.1695,3.2563,3.3826,3.4806,3.4981,3.5825,3.7004,3.8546,3.8802,3.8809,3.8641,3.8098,3.7437,3.6631,3.6518,3.6207,3.5451,3.5332,3.5335,3.54,3.531,3.5011,3.4414,3.4384,3.4084,3.3395,3.2796,3.2437,3.2378,3.178,3.1511,3.1511,3.1511,3.1511,3.1511,3.1511,3.1511,3.1511,3.1511,3.1511,3.1511,3.1511,3.1511,3.1511,3.1511,3.1511,3.1511,3.5006,3.5006,3.4931,3.5282,3.5257,3.5182,3.5182,3.4274,3.3897,3.4731,3.4123,3.3922,3.4756,3.4198,3.347,3.286,3.224,3.1361,3.003,2.9854,2.9804,2.9804,2.9804,2.9804,2.9804,2.9804,2.9804,2.9804,2.9804,2.9804,2.9804,2.9804,2.9729,2.9603,2.9252,2.8725,2.8147,2.8825,2.8524,2.7706,2.8791,2.936,2.9562,2.9827,2.9989,3.0095,3.0438,3.0108,2.9323,2.8531,2.796,2.7634,0.0,0.0,0.0,2.8181,0.0,0.0,0.0,0.0,0.0,0.0,0.0,0.0,2.8119,2.8049,2.814,2.8783,2.9149,2.9752,3.1248,3.2079,3.2962,3.4316,3.4788,3.5537,3.6946,3.7915,3.8137,3.7158,3.7964,3.793,3.6288,3.6353,3.6011,3.4868,3.4335,3.4265,3.4681,3.4173,3.3814,3.3694,3.3694,3.3365,3.2706,3.2587,3.2228,3.169,3.157,3.1511,3.1511,3.1511,3.1511,3.1511,3.1511,3.1511,3.1511,3.1511,3.1511,3.1511,3.1511,3.1511,3.1511,3.1511,3.1511,3.1511,3.4675,3.4906,3.5182,3.5458,3.5508,3.5583,3.5906,3.5253,3.5027,3.5855,3.5705,3.5328,3.4776,3.4474,3.3872,3.2742,3.1888,3.106,3.0256,2.9955,2.9804,2.9804,2.9804,2.9804,2.9804,2.9804,2.9804,2.9804,2.9804,2.9804,2.9804,2.9804,2.9503,2.895,2.8925,2.851,2.7925,2.8611,2.8559,2.8058,2.887,2.92,2.9249,2.9528,2.9968,3.0368,3.0191,2.9524,2.8818,2.9205,2.9061,0.0,2.8516,2.8594,2.8794,0.0,2.8666,2.8547,0.0,0.0,0.0,2.8279,0.0,0.0,0.0,2.7745,2.7824,2.8273,2.8421,2.884,2.9955,3.0415,3.1064,3.2316,3.2496,3.2875,3.396,3.6112,3.7373,3.6766,3.7286,3.7184,3.5922,3.5905,3.575,3.51,3.4445,3.4218,3.4472,3.3844,3.3335,3.3006,3.3006,3.2677,3.2019,3.1989,3.1839,3.1511,3.1511,3.1511,3.1511,3.1511,3.1511,3.1511,3.1511,3.1511,3.1511,3.1511,3.1511,3.1511,3.1511,3.1511,3.1511,3.1511,3.1511,3.1511,3.4073,3.47,3.5207,3.5332,3.5508,3.5855,3.6355,3.5906,3.5658,3.6132,3.6684,3.6358,3.4575,3.45,3.4073,3.2817,3.1311,3.0583,3.0909,3.0105,2.9628,2.9628,2.9729,2.9754,2.9628,2.9729,2.9804,2.9804,2.9804,2.9804,2.9804,2.9804,2.9302,2.8448,2.8674,2.8433,2.7942,2.847,2.8642,2.861,2.8881,2.9012,2.9188,2.9774,3.0481,3.1066,3.0228,2.9416,2.8926,2.9971,3.0069,2.9624,2.904,2.9371,0.0,0.0,0.0,0.0,0.0,0.0,0.0,0.0,0.0,2.8346,0.0,0.0,0.0,2.7905,0.0,0.0,0.0,0.0,0.0,3.0438,0.0,0.0,0.0,3.4061,0.0,3.6172,3.6124,3.5921,3.5519,3.5273,3.51,3.51,3.4472,3.4083,3.4083,3.3484,3.2886,3.2318,3.2288,3.2049,3.1511,3.1511,3.1511,3.1511,3.1511,3.1511,3.1511,3.1511,3.1511,3.1511,3.1511,3.1511,3.1511,3.1511,3.1511,3.1511,3.1511,3.1511,3.1511,3.1511,3.1511,3.1511,3.4349,3.4324,3.4248,3.4726,3.5629,3.6329,3.6405,3.5906,3.5508,3.5583,3.6107,3.6405,3.6153,3.4826,3.4123,3.4379,3.1637,3.0507,3.1938,3.0156,2.8988,2.8988,2.9528,2.9553,2.8988,2.9528,2.9804,2.9804,2.9804,2.9804,2.9804,2.9804,2.9729,2.9553,2.8624,2.8509,2.8971,2.8227,2.802,2.823,2.8905,2.9496,0.0,3.1203,3.1726,3.1656,3.0686,2.9923,2.9469,0.0,2.9807,2.968,0.0,3.029,2.982,3.1101,0.0,0.0,0.0,0.0,0.0,0.0,3.0037,0.0,0.0,0.0,2.8636,2.8133,0.0,0.0,0.0,0.0,0.0,0.0,0.0,0.0,3.1678,3.2376,3.3028,3.394,3.412,3.4454,3.5003,3.4271,3.3724,3.3724,3.3125,3.2736,3.2736,3.2079,3.169,3.163,3.16,3.157,3.1511,3.1511,3.1511,3.1511,3.1511,3.1511,3.1511,3.1511,3.1511,3.1511,3.1511,3.1511,3.1511,3.1511,3.1511,3.1511,3.1511,3.1511,3.1511,3.1511,3.1511,3.1539,3.2717,3.3144,3.3395,3.3294,3.4198,3.5052,3.5353,3.6307,3.686,3.6533,3.6985,3.7186,3.6933,3.5353,3.4474,0.0,0.0,3.1009,3.1687,3.0583,2.9779,2.9453,2.9955,3.0005,2.9428,2.9679,2.9804,2.9804,2.9804,2.9856,2.9972,2.9972,2.9795,2.9441,2.8816,2.8733,2.8984,2.8711,2.8995,0.0,0.0,3.0655,0.0,3.0897,3.0804,3.0646,3.0477,3.0011,2.9469,0.0,2.9808,0.0,0.0,0.0,0.0,0.0,0.0,0.0,0.0,0.0,0.0,0.0,0.0,0.0,2.9796,0.0,2.8913,0.0,0.0,0.0,0.0,0.0,0.0,0.0,2.9272,0.0,0.0,0.0,3.1131,0.0,0.0,0.0,3.466,3.3687,3.3051,3.3083,3.2505,3.2121,3.2106,3.1456,3.1219,3.1511,3.1511,3.1511,3.1511,3.1511,3.1511,3.1511,3.1511,3.1511,3.1511,3.1511,3.1511,3.1511,3.1511,3.1511,3.1511,3.1511,3.1511,3.1511,3.1511,3.1511,3.1511,3.1511,3.1511,3.1511,3.1584,0.0,3.2767,3.2491,3.3244,3.4098,3.465,3.6254,3.7409,3.7308,3.7484,3.761,3.7509,3.6024,3.5173,0.0,3.3319,3.1989,0.0,3.1235,3.0231,2.9377,3.0005,3.0094,2.9428,2.9667,2.9818,2.9856,2.9856,2.9972,3.0126,3.0139,2.9974,2.9541,2.9391,2.9357,2.9502,2.95,3.0006,3.0788,3.0983,3.1232,3.1439,3.0844,3.0334,3.0011,3.0315,2.9903,2.9252,2.924,3.0025,3.0872,2.969,3.0422,3.1531,0.0,0.0,0.0,3.157,0.0,0.0,0.0,0.0,0.0,0.0,0.0,0.0,0.0,0.0,0.0,0.0,0.0,2.8184,2.8481,0.0,2.9087,0.0,2.9933,0.0,0.0,0.0,0.0,0.0,3.278,3.2272,3.2222,3.189,3.1568,3.1201,3.115,3.1158,3.1161,3.1544,3.169,3.1511,3.1511,3.1511,3.1511,3.1511,3.1511,3.1511,3.1511,3.1511,3.1511,3.1511,3.1511,3.1511,3.1511,3.1511,3.1511,3.1511,3.1511,3.1511,3.1511,3.163,3.1779,3.1818,3.2028,3.2416,3.2943,3.352,3.4098,3.465,3.5436,3.6358,3.7445,3.7115,3.7143,3.8233,3.6887,3.6413,0.0,0.0,3.347,3.455,0.0,2.988,0.0,0.0,2.9391,2.8464,2.9341,2.9895,3.0088,3.0088,3.0088,3.0126,3.0292,3.0406,3.0381,3.0355,3.0582,3.0895,3.0503,3.0582,3.0976,3.0586,3.0763,3.136,0.0,3.1244,3.0384,3.0418,0.0,2.8839,3.0304,3.0678,3.0682,3.2115,0.0,0.0,0.0,0.0,0.0,0.0,0.0,0.0,3.0682,0.0,0.0,0.0,0.0,3.0062,0.0,0.0,0.0,0.0,2.8473,2.8273,2.8825,2.9025,0.0,0.0,0.0,0.0,0.0,0.0,0.0,0.0,3.116,3.1106,0.0,3.1054,3.076,2.962,3.1136,3.1536,3.0358,3.1723,3.2138,3.1511,3.1511,3.1511,3.1511,3.1511,3.1511,3.1511,3.1511,3.1511,3.1511,3.1511,3.1511,3.1511,3.1511,3.1511,3.1511,3.1511,3.1511,3.1511,3.1511,3.1899,3.2436,3.359,3.3428,3.308,3.2536,3.3182,3.4081,3.5022,3.6315,3.7833,3.9638,3.9638,4.0201,4.1931,4.0919,4.0143,0.0,0.0,3.6391,3.6277,3.4114,0.0,0.0,0.0,3.0626,0.0,3.0024,3.0126,3.0292,3.0292,3.0394,3.0508,3.0444,3.0482,3.0596,3.0321,3.0351,0.0,0.0,0.0,0.0,0.0,3.2109,3.2772,0.0,3.1414,3.0418,3.0418,2.9876,2.9279,2.9808,3.0404,3.1015,3.1126,3.1685,3.2253,3.2363,3.2587,3.2722,3.2479,3.2465,3.2235,3.1241,0.0,0.0,0.0,0.0,0.0,0.0,0.0,0.0,0.0,2.8975,2.9151,2.8938,2.929,2.9706,0.0,0.0,0.0,0.0,0.0,0.0,0.0,0.0,0.0,0.0,2.9804,2.9492,2.9085,2.9799,3.0466,3.0875,3.1217,3.1605,3.2138,3.172,3.1511,3.1511,3.1511,3.1511,3.1511,3.1511,3.1511,3.1511,3.1511,3.1511,3.1511,3.1511,3.1511,3.1511,3.1511,3.1511,3.1511,3.1511,3.163,3.1957,3.4976,3.4478,3.3782,3.3116,3.363,3.4427,3.5244,3.7196,3.9188,4.0889,4.1404,4.2262,4.3967,4.3099,4.2207,0.0,4.0138,3.861,3.7135,3.5819,0.0,3.2757,3.2036,0.0,0.0,0.0,0.0,3.0061,3.0585,3.0765,3.0698,3.0584,3.0596,3.0785,3.0667,3.0682,3.0854,3.1322,3.155,0.0,0.0,3.2837,0.0,0.0,3.2231,3.1436,3.0849,3.0388,3.009,3.0284,3.0859,3.1523,3.1578,3.2309,3.3037,3.2821,3.2982,3.3142,3.2878,3.2627,3.2256,3.1639,3.1446,3.1257,3.0813,0.0,3.0736,0.0,0.0,0.0,0.0,0.0,2.9807,2.9467,2.9643,2.9856,0.0,3.0049,0.0,0.0,0.0,0.0,0.0,0.0,2.99,2.9322,2.9305,2.9091,2.8595,2.973,3.0439,3.0597,3.136,3.1871,3.2138,3.172,3.1511,3.1511,3.1511,3.1511,3.1511,3.1511,3.1511,3.1511,3.1511,3.1511,3.1511,3.1511,3.1511,3.1511,3.1511,3.1511,3.1511,3.1511,3.1655,3.2063,3.5859,3.5158,3.4611,3.4727,3.4865,3.5089,3.5436,3.7904,4.0162,4.1317,4.2354,4.3353,4.4441,4.3593,4.2777,4.2418,4.1791,4.0245,3.7487,3.7206,0.0,0.0,3.2269,3.1584,3.0317,0.0,0.0,0.0,3.0854,3.1228,3.0698,3.0698,3.0811,3.0999,3.1292,3.1508,3.1596,3.2117,3.23,3.2255,3.2775,3.3016,3.3142,3.3618,3.3705,3.3394,3.1771,3.1143,3.114,3.1764,3.1964,3.2164,3.3454,3.3825,3.3716,3.3149,3.2998,3.2912,3.2274,3.2062,3.1947,3.1846,3.1784,3.1509,3.0922,0.0,3.0589,0.0,0.0,0.0,0.0,0.0,3.0152,3.0368,3.0049,2.9856,3.0049,0.0,0.0,0.0,0.0,0.0,0.0,0.0,2.9848,2.8776,2.9529,2.9433,0.0,3.0681,3.1354,2.9585,3.2037,3.2796,3.1541,3.1482,3.1511,3.1511,3.1511,3.1511,3.1511,3.1511,3.1511,3.1511,3.1511,3.1511,3.1511,3.1511,3.1511,3.1511,3.1511,3.1511,3.1511,3.1511,3.1912,3.2721,3.6113,3.6549,3.6862,3.6441,3.6201,3.6227,3.6716,3.8741,4.0712,4.203,4.4908,4.6824,4.665,4.7288,4.6928,4.4927,4.3795,0.0,0.0,0.0,0.0,3.6981,3.463,3.3081,3.2467,3.1705,0.0,3.039,0.0,3.1179,3.0924,3.0773,3.0811,3.0999,3.0903,3.0906,3.0956,3.1569,3.1951,3.2255,3.2775,3.3409,3.4021,3.386,3.4482,3.5168,3.3175,3.2127,3.1919,3.3006,3.3064,3.2887,3.4145,3.4196,3.3871,3.4105,3.3892,3.3642,3.3868,3.3607,3.3178,3.2616,3.2743,3.2826,3.2118,3.2571,3.2949,0.0,0.0,0.0,0.0,0.0,2.9956,0.0,0.0,0.0,0.0,0.0,0.0,2.9856,0.0,0.0,0.0,2.9076,2.8678,2.8615,2.8627,2.8326,2.7676,2.9578,3.0385,2.9748,3.0987,3.1675,3.172,3.1574,3.1511,3.1511,3.1511,3.1511,3.1511,3.1511,3.1511,3.1511,3.1511,3.1511,3.1511,3.1511,3.1511,3.1511,3.1511,3.1511,3.1511,3.1511,3.2069,3.3049,3.722,3.8004,3.8727,3.897,3.8782,3.8641,3.882,4.0208,4.1612,4.2748,4.561,4.7236,4.6315,4.7419,4.7524,4.5747,4.4789,0.0,4.2602,0.0,0.0,3.8602,3.5974,3.4292,3.3803,3.2304,0.0,3.1099,0.0,3.1179,3.1213,3.0763,3.071,3.0999,3.1007,3.1156,3.1352,3.1846,3.2364,3.284,3.3211,3.3663,0.0,3.4427,3.5078,3.5678,3.446,3.3813,3.3641,3.4372,3.4514,3.4631,3.5623,3.5507,3.5015,3.5318,3.481,3.4274,3.4839,3.4409,3.3762,3.3589,3.3589,3.3435,3.2765,3.3101,3.3435,3.2862,3.2096,3.1596,3.1583,3.0557,0.0,0.0,0.0,0.0,0.0,0.0,0.0,0.0,2.9277,0.0,2.9729,2.8775,2.8142,2.8221,2.8286,2.8342,2.8376,2.9678,3.0268,2.9838,3.1184,3.174,3.1393,3.1723,3.178,3.1511,3.1511,3.1511,3.1511,3.1511,3.1511,3.1511,3.1511,3.1511,3.1511,3.1511,3.1511,3.1511,3.1511,3.1511,3.1511,3.1511,3.1951,3.2692,3.8423,3.9223,4.0074,4.1041,4.1237,4.1276,4.1289,4.2097,4.2909,4.3471,4.555,4.6431,4.501,4.5907,4.634,4.5533,4.4936,4.3904,4.2331,4.1544,4.0464,3.8959,3.6875,3.5378,3.4737,3.275,3.1682,0.0,3.1119,3.1081,3.1423,3.079,3.0672,3.0999,3.1305,0.0,0.0,3.2321,3.2804,3.3322,3.3635,3.3796,3.3934,3.5067,3.5519,3.5519,3.5519,3.5519,3.5519,3.5609,3.5998,3.6596,3.7225,3.7045,3.6596,3.6507,3.5729,3.4927,3.5389,3.4802,3.4104,3.448,3.4308,3.3858,3.3279,3.3197,3.3235,3.3149,3.2042,3.1355,3.2016,3.0724,0.0,0.0,0.0,0.0,0.0,0.0,0.0,0.0,0.0,0.0,2.9705,2.8837,2.8105,2.7956,2.84,2.8846,0.0,0.0,3.0497,2.9788,3.1735,3.224,3.0953,3.1901,3.2108,3.163,3.154,3.1511,3.1511,3.1511,3.1511,3.1511,3.1511,3.1511,3.1511,3.1511,3.1511,3.1511,3.1511,3.1511,3.1511,3.1511,3.1743,3.2152,3.8221,3.9541,4.0468,3.9396,4.0574,4.2054,4.3187,4.4334,4.4905,4.4532,4.7129,4.8083,4.569,4.6665,4.679,4.5014,4.4284,0.0,0.0,0.0,0.0,4.0673,3.8515,3.6811,3.5763,3.3913,3.2606,3.1836,3.1098,3.085,3.1092,3.095,3.0936,3.0999,0.0,0.0,3.0947,3.119,0.0,3.1811,3.3233,3.3796,3.3934,3.5067,3.5519,3.5519,3.5519,3.5519,3.5579,3.6118,3.6387,3.6596,3.7225,3.7345,3.7135,3.6626,3.632,3.6078,3.5606,3.5359,3.51,3.471,3.4905,3.5037,3.443,3.4662,3.4901,3.4307,3.3304,3.2449,3.2342,3.1104,0.0,0.0,0.0,0.0,0.0,0.0,0.0,0.0,0.0,2.9382,0.0,2.9062,2.875,2.8724,2.8948,2.8788,2.8116,0.0,3.0022,0.0,3.0556,3.1449,0.0,3.1664,3.1899,3.2318,3.175,3.1511,3.1511,3.1511,3.1511,3.1511,3.1511,3.1511,3.1511,3.1511,3.1511,3.1511,3.1511,3.1511,3.1511,3.1511,3.1869,3.2465,4.0767,4.1175,0.0,4.2833,4.2933,4.3549,4.5499,4.6541,4.6514,4.4905,4.6334,4.6786,4.4874,4.5833,4.6213,4.5258,4.404,4.3308,4.3308,4.1625,4.0621,4.0621,3.8738,3.7427,3.6784,3.4473,3.3198,3.2949,3.131,3.0803,3.1253,3.0979,3.1086,3.1616,0.0,3.2364,0.0,0.0,3.2313,3.2508,3.3728,3.407,3.3934,3.5067,3.5519,3.5519,3.5519,3.5519,3.5609,3.6267,3.6926,3.7464,3.7434,3.7404,3.7345,3.7045,3.6746,3.6417,3.6118,3.5759,3.5424,3.5133,3.5294,3.5424,3.5133,3.5294,3.531,3.4653,3.3589,3.247,3.1397,3.0809,3.0394,3.0153,0.0,0.0,0.0,0.0,0.0,0.0,0.0,0.0,0.0,2.9411,2.9124,0.0,0.0,2.8467,2.815,2.8995,2.9249,0.0,0.0,0.0,3.091,0.0,3.2049,3.1959,3.166,3.1511,3.1511,3.1511,3.1511,3.1511,3.1511,3.1511,3.1511,3.1511,3.1511,3.1511,3.1511,3.1511,3.1511,3.1511,3.169,3.2048,4.3222,4.2794,4.3133,4.5855,4.5249,4.4956,4.6723,4.783,4.7699,4.5554,4.5784,4.5597,4.414,4.4827,4.5288,4.5044,4.3715,4.2943,4.2924,4.1478,4.064,4.0639,3.9261,3.8374,3.8141,3.5546,3.4239,3.4218,3.2112,3.1276,3.1634,3.1499,3.176,3.2362,0.0,0.0,3.408,3.3452,3.3255,3.3354,3.4117,3.4274,3.407,3.4968,3.5481,3.5699,3.5549,3.5759,3.6148,3.6387,3.7255,3.8093,3.7584,3.7614,3.7764,3.7494,3.7165,3.6866,3.6716,3.6297,3.5878,3.5759,3.5699,3.5669,3.5549,3.5519,3.531,3.4653,3.3563,3.2304,3.0884,3.0778,3.0853,3.0677,0.0,0.0,0.0,0.0,0.0,0.0,0.0,0.0,2.9869,0.0,0.0,0.0,0.0,2.8245,2.8174,2.8456,2.8662,2.8772,3.0385,3.1053,3.0619,0.0,3.2195,3.172,3.157,3.1511,3.1511,3.1511,3.1511,3.1511,3.1511,3.1511,3.1511,3.1511,3.1511,3.1511,3.1511,3.16,3.172,3.172,3.1899,3.2198,4.3227,4.3313,4.3602,4.4111,4.5117,4.5816,4.5488,4.7139,4.8141,4.7186,4.7322,4.6754,4.4847,4.4719,4.4339,4.3226,4.2982,4.2944,4.2981,4.2306,4.1954,4.2007,4.1341,4.0701,4.0117,3.825,3.6628,0.0,3.3945,3.2904,3.2166,3.3338,3.3569,3.308,3.2548,3.2145,3.1919,3.2371,3.2732,3.3015,3.3631,3.4138,3.4543,3.4643,3.5422,3.6327,3.5729,3.6626,3.7943,3.6866,3.6926,3.7494,3.7434,3.8242,3.8955,3.7764,3.7793,3.8093,3.7494,3.7285,3.7105,3.6537,3.6387,3.6237,3.5639,3.5519,3.531,3.4653,3.3454,3.2467,3.2318,3.1956,3.1587,3.1185,0.0,0.0,0.0,0.0,2.935,2.9949,0.0,0.0,0.0,2.9903,0.0,0.0,2.9211,2.8423,2.7454,2.8155,2.8734,2.8981,2.9942,3.1082,3.2258,3.1841,3.187,3.2378,3.178,3.1511,3.1511,3.1511,3.1511,3.1511,3.1511,3.1511,3.1511,3.1511,3.1511,3.1511,3.1511,3.1869,3.2407,3.2407,3.3185,3.4234,4.583,4.5545,4.5651,4.6483,4.6048,4.5944,4.698,4.8024,4.8387,4.7643,4.7604,4.7082,4.5418,4.4908,4.4566,4.4132,4.3456,4.3046,4.3133,4.2556,4.2064,4.1667,4.1424,4.0996,4.0408,3.8989,3.7501,0.0,0.0,3.4278,3.341,3.3522,3.3514,3.3326,3.3499,3.3495,3.3358,3.3589,3.378,3.4022,3.5028,3.5561,3.582,3.5743,3.6071,3.6387,3.5729,3.6267,3.7165,3.6656,3.6896,3.7345,3.6956,3.7225,3.7614,3.7464,3.7584,3.7734,3.7494,3.7135,3.6716,3.6058,3.5908,3.5818,3.5579,3.5519,3.531,3.4653,3.3425,3.2407,3.1959,3.208,3.2195,3.2115,0.0,0.0,0.0,0.0,0.0,3.0808,0.0,0.0,0.0,2.9783,0.0,0.0,2.8618,2.816,2.7986,2.8265,2.8665,2.9225,0.0,3.0982,3.1486,3.1574,3.1723,3.1899,3.163,3.1511,3.1511,3.1511,3.1511,3.1511,3.1511,3.172,3.2079,3.166,3.175,3.2049,3.166,3.1899,3.2527,3.2527,3.3095,3.3933,4.7855,4.7441,4.7433,4.8897,4.746,4.663,4.8045,4.8556,4.8382,4.727,4.7734,4.7421,4.5551,4.48,4.4474,4.4621,4.3854,4.3403,4.3472,4.3099,4.2551,4.1922,4.1893,0.0,4.1268,4.005,3.8735,3.7284,3.6649,0.0,3.4593,3.4301,3.4114,3.4032,3.4547,3.4771,3.4771,3.4771,3.5056,3.5495,3.6234,3.664,3.6763,3.6382,3.6462,3.6656,3.6028,3.6327,3.7045,3.7045,3.7345,3.7584,3.6956,3.6896,3.7135,3.7554,3.7704,3.7704,3.7704,3.7375,3.6836,3.5998,3.5789,3.5729,3.5549,3.5519,3.5342,3.4779,3.3878,3.3066,3.2462,3.2855,3.3216,3.3086,3.3346,0.0,0.0,3.2134,0.0,0.0,3.0099,2.9477,2.9927,2.9822,0.0,0.0,0.0,2.8323,2.8385,2.8471,2.8866,0.0,0.0,0.0,3.1014,3.1426,3.1604,3.1511,3.1511,3.1511,3.1511,3.1511,3.1511,3.1511,3.1511,3.178,3.2168,3.169,3.1899,3.2407,3.175,3.2138,3.3066,3.2886,3.3335,3.4143,4.8664,4.8442,4.8559,5.0264,4.9422,4.8287,4.7805,4.8324,4.807,4.6076,4.7731,4.7971,4.5025,4.4149,4.3867,4.4001,4.3993,4.4037,4.4151,4.4192,4.3931,0.0,0.0,4.329,4.329,4.2004,4.0726,3.9373,0.0,0.0,3.5487,3.6144,3.6118,3.5457,3.5489,3.5489,3.5489,3.5489,3.6237,3.7306,3.6787,3.6921,3.7276,3.6045,3.636,3.7315,3.6686,3.7285,3.8362,3.8362,3.8362,3.8272,3.7614,3.7853,3.8362,3.8392,3.8392,3.8392,3.8392,3.8362,3.8063,3.6776,3.6477,3.6297,3.5639,3.5519,3.5407,3.5061,3.4971,3.4851,3.4418,3.4698,3.4729,3.4,3.4278,0.0,0.0,3.2241,0.0,3.121,3.0062,2.9498,3.0052,3.0113,0.0,0.0,0.0,2.9125,2.8346,2.8818,2.947,3.0267,3.0812,0.0,3.1482,3.1482,3.1511,3.1511,3.1511,3.1511,3.1511,3.1511,3.1511,3.1511,3.1511,3.1511,3.1511,3.1511,3.1899,3.2407,3.175,3.2736,3.4414,3.3724,3.4322,3.5489,4.949,4.9345,4.9013,4.8495,4.8045,4.776,4.785,4.8048,4.8007,4.7415,4.7643,4.7224,4.5777,4.4955,4.4614,4.4723,4.4759,4.501,4.5598,4.5208,4.4638,4.4007,4.3529,4.329,4.329,4.2491,4.1662,4.0756,4.0098,3.8751,3.6806,3.7464,3.7195,3.6178,3.6178,3.6178,3.6178,3.6178,3.6656,3.743,3.7709,3.8221,3.8656,3.7858,3.7744,3.8003,3.7345,3.7674,3.8332,3.7883,3.8332,3.896,3.8302,3.7913,3.7823,3.8272,3.8392,3.8392,3.8392,3.8063,3.7524,3.6686,3.6148,3.5759,3.5549,3.5519,3.5407,3.5061,3.5002,3.4881,3.4507,3.4539,3.4696,3.4941,3.4699,0.0,3.4568,0.0,3.2342,3.2096,3.1061,3.0388,3.0569,3.0569,0.0,0.0,0.0,3.076,3.0119,3.0382,3.0895,3.1719,3.2392,0.0,3.2168,3.2168,3.1959,3.1511,3.1511,3.1511,3.1511,3.1511,3.1511,3.154,3.1989,3.2467,3.2856,3.2856,3.3275,3.3784,3.3125,3.3514,3.4474,3.4264,3.4741,3.5519,5.0408,5.0022,4.9574,4.8918,4.7878,4.7355,4.7903,4.776,4.754,4.7374,4.7505,4.7209,4.6201,4.5663,4.5399,4.5504,4.5264,4.5341,4.5908,4.5544,4.4885,4.3947,4.3499,4.329,4.329,4.2701,4.2201,4.1782,4.0606,3.9529,3.8542,3.8422,3.7973,3.7195,3.7195,3.7195,3.7195,3.7195,3.7584,3.8212,3.8601,3.902,3.9349,3.8661,3.8392,3.8332,3.7913,3.8033,3.8362,3.8212,3.8721,3.9349,3.8901,3.8482,3.8242,3.8661,3.8601,3.8392,3.8392,3.8093,3.7614,3.6985,3.6537,3.6148,3.5938,3.5669,3.5467,3.5394,3.5397,3.5278,3.4907,3.5029,3.5183,3.5122,3.4907,3.4756,3.4759,0.0,3.2675,0.0,0.0,3.0837,3.0955,3.1014,3.0955,0.0,0.0,0.0,3.1543,3.1685,3.1997,3.242,3.315,3.3305,3.2886,3.2886,3.2677,3.2228,3.2228,3.2108,3.1869,3.1869,3.1869,3.1899,3.2318,3.2946,3.3668,3.3546,3.3966,3.46,3.3815,3.4053,3.4863,3.4593,3.4921,3.5519,5.1135,5.0537,5.022,5.0917,4.8758,4.7229,4.8027,4.7565,4.6868,4.6326,4.7422,4.7747,4.6417,4.6225,4.6225,4.6269,4.5582,4.5241,4.5371,4.5334,4.4736,4.3409,4.3319,4.329,4.329,4.2731,4.244,4.241,4.0516,3.9918,4.0427,3.917,3.8571,3.8542,3.8482,3.8422,3.8392,3.8392,3.8751,3.9313,3.9409,3.9373,3.9313,3.8721,3.8452,3.8452,3.8452,3.8452,3.8571,3.92,3.9373,3.9373,3.9373,3.9373,3.9373,3.9373,3.896,3.8452,3.8452,3.8422,3.8242,3.7644,3.7434,3.7255,3.6626,3.5998,3.5647,3.5941,3.6005,3.5887,3.5554,3.5953,3.5953,3.4662,3.4877,3.5029,3.4387,3.3125,3.2348,3.2613,0.0,3.1073,3.1336,3.1511,3.1658,0.0,0.0,0.0,0.0,3.2787,3.2845,3.2647,3.3305,3.3604,3.3574,3.3574,3.3544,3.3484,3.3484,3.3185,3.2557,3.2557,3.2557,3.2557,3.2617,3.3186,3.4031,3.3727,3.4179,3.494,3.3997,3.4412,3.5429,3.4771,3.4951,3.5519,5.0412,5.0124,4.9883,4.9464,4.878,4.8273,4.8162,4.7987,4.7658,4.7109,4.7342,4.7415,4.7092,4.6535,4.6447,4.6975,4.6403,4.5962,4.6058,4.5574,4.4915,4.4107,4.3559,4.329,4.329,4.314,4.2851,4.241,4.1931,4.1542,4.1145,4.0853,4.0397,3.9888,3.9409,3.8871,3.8392,3.8392,3.8482,3.8691,3.92,3.9373,3.9409,3.923,3.917,3.917,3.917,3.917,3.92,3.9379,3.9373,3.9373,3.9373,3.9373,3.9373,3.9373,3.932,3.917,3.917,3.8781,3.8362,3.8182,3.7793,3.7255,3.6626,3.6357,3.6187,3.6063,3.6005,3.6039,3.6199,3.5522,3.4968,3.5214,3.4249,3.3444,3.3354,3.3005,3.2576,0.0,3.257,3.29,3.2926,3.3014,3.3142,0.0,0.0,3.3004,3.3245,3.378,3.4079,3.4023,3.4681,3.4771,3.4294,3.4264,3.3993,3.3484,3.3484,3.3425,3.3275,3.3275,3.3275,3.3275,3.3784,3.4175,3.4418,3.4833,3.5162,3.5379,3.5132,3.522,3.5489,3.531,3.537,3.5519,5.0573,5.022,4.9979,4.9902,4.8827,4.8125,4.8568,4.7858,4.7241,4.7312,4.7309,4.7309,4.7309,4.6931,4.6844,4.7266,4.6624,4.6079,4.5861,4.5514,4.4855,4.3858,4.3469,4.329,4.329,4.329,4.311,4.2791,4.256,4.2381,4.2252,4.1654,4.1354,4.1265,4.0606,3.9948,3.932,3.932,3.914,3.8901,3.926,3.9373,3.9373,3.9373,3.9373,3.9373,3.9373,3.9373,3.9373,3.9373,3.9373,3.9373,3.9373,3.9373,3.9373,3.9373,3.9373,3.9373,3.9373,3.914,3.8871,3.8871,3.8362,3.7764,3.7434,3.6896,3.6454,3.626,3.5991,3.5844,3.6004,3.5278,3.4697,3.4758,3.3887,3.3132,3.2967,3.2798,3.2757,3.3039,3.3298,3.3668,3.412,3.4006,3.4015,3.4208,3.4178,3.4151,3.418,3.4813,3.4961,3.4503,3.516,3.534,3.4951,3.4951,3.4771,3.4412,3.4412,3.4233,3.3933,3.3933,3.3933,3.3994,3.4354,3.4778,3.5205,3.5404,3.5587,3.5716,3.5554,3.5519,3.5519,3.5519,3.5519,3.5519,5.096,5.0573,5.0394,5.1058,4.9157,4.7916,4.9073,4.7718,4.6698,4.7222,4.7309,4.7309,4.7309,4.7309,4.7309,4.7309,4.6712,4.6063,4.5352,4.5214,4.4616,4.3349,4.329,4.329,4.329,4.329,4.329,4.329,4.2791,4.2791,4.326,4.2192,4.1961,4.2381,4.1811,4.1175,4.0546,4.0427,4.0068,3.9559,3.9469,3.9373,3.9373,3.9373,3.9373,3.9373,3.9373,3.9373,3.9373,3.9373,3.9373,3.9373,3.9373,3.9373,3.9373,3.9373,3.9373,3.9373,3.9373,3.9373,3.9403,3.9559,3.905,3.8512,3.8422,3.7554,3.6716,3.6537,3.6058,3.5639,3.5519,3.5205,3.4728,3.4091,3.369,3.3332,3.2967,3.2671,3.2908,3.4116,3.3973,3.4118,3.506,3.492,3.4806,3.4869,3.5151,3.5278,3.5154,3.5547,3.548,3.4833,3.525,3.5519,3.5519,3.5519,3.5519,3.5519,3.5519,3.519,3.4653,3.4653,3.4653,3.4653,3.4653,3.5142,3.5878,3.5619,3.5651,3.5878,3.5619,3.5519,3.5519,3.5519,3.5519,3.5519,5.0315,5.07,5.1058,5.1182,5.0339,4.9608,4.9344,4.8537,4.7806,4.7369,4.7309,4.7309,4.7309,4.7309,4.7309,4.7309,4.7222,4.6612,4.5394,4.4766,4.4137,4.3319,4.329,4.329,4.329,4.329,4.329,4.329,4.32,4.32,4.329,4.308,4.2791,4.241,4.2291,4.1871,4.1205,4.0636,4.0337,4.0217,3.9649,3.9373,3.9373,3.9373,3.9373,3.9373,3.9373,3.9373,3.9373,3.9373,3.9373,3.9373,3.9373,3.9373,3.9373,3.9373,3.9373,3.9373,3.9373,3.9373,3.9559,4.0098,3.9738,3.911,3.8512,3.8242,3.7793,3.6716,3.6417,3.6178,3.5609,3.5015,3.4536,3.4416,3.3668,3.3084,3.2991,3.2897,3.3104,3.3869,3.4635,3.5376,3.6098,3.6132,3.6238,3.6565,3.5333,3.4941,3.5792,3.5145,3.5164,3.6148,3.5729,3.5519,3.5519,3.5519,3.5519,3.5519,3.5519,3.5459,3.534,3.534,3.534,3.534,3.534,3.5432,3.5554,3.5522,3.5522,3.5554,3.5522,3.5519,3.5519,3.5519,3.5519,3.5519,4.9643,5.0242,5.0571,5.0212,4.9912,4.9494,4.8835,4.8177,4.7638,4.7339,4.7309,4.7429,4.7788,4.7519,4.7459,4.7818,4.7189,4.6501,4.5903,4.5214,4.4556,4.3898,4.3469,4.329,4.329,4.3648,4.3648,4.329,4.3648,4.3648,4.329,4.329,4.314,4.288,4.288,4.2521,4.1931,4.1632,4.1265,4.0876,4.0217,3.9948,3.9948,3.9948,3.9948,4.0008,4.0337,4.0247,3.9948,3.9948,3.9709,3.9373,3.9373,3.9373,3.9373,3.9373,3.9373,3.9373,3.9373,3.9373,3.9463,3.9798,3.9649,3.9313,3.902,3.8661,3.8212,3.7614,3.7225,3.6776,3.6148,3.5489,3.504,3.504,3.3879,3.3178,3.369,3.3568,3.3775,3.4631,3.5436,3.6216,3.6911,3.7006,3.7074,3.724,3.6495,3.6132,3.6258,3.6131,3.6209,3.651,3.6507,3.6537,3.6537,3.6537,3.6357,3.6028,3.6028,3.5848,3.5519,3.5519,3.5519,3.5519,3.5519,3.5519,3.5519,3.5519,3.5519,3.5519,3.5519,3.5519,3.5519,3.5519,3.5519,3.5519,4.9,4.9553,4.9853,4.9389,4.9179,4.897,4.8566,4.7818,4.7369,4.7519,4.7399,4.7489,4.7997,4.7608,4.7519,4.8027,4.713,4.6518,4.6518,4.5903,4.5244,4.4556,4.3858,4.3439,4.329,4.3798,4.3838,4.329,4.3838,4.3798,4.329,4.329,4.329,4.329,4.329,4.306,4.262,4.247,4.2111,4.1602,4.0876,4.0726,4.0846,4.0696,4.0726,4.0905,4.1265,4.1055,4.0636,4.0636,4.0187,3.9649,3.9649,3.9559,3.9373,3.9373,3.9493,3.9649,3.9649,3.9529,3.9463,3.9798,3.9649,3.9469,3.9619,3.911,3.8571,3.8422,3.8072,3.7571,3.694,3.631,3.5892,3.5926,3.4576,3.3784,3.4629,3.4395,3.4519,3.5524,3.609,3.669,3.7447,3.7636,3.7733,3.7733,3.7799,3.759,3.7,3.7335,3.7347,3.6959,3.7255,3.7404,3.7404,3.7404,3.7105,3.6477,3.6477,3.6148,3.5519,3.5519,3.5519,3.5519,3.5519,3.5519,3.5519,3.5519,3.5519,3.5519,3.5519,3.5519,3.5519,3.5519,3.5519,3.5519,4.8356,4.894,4.9359,4.9329,4.882,4.8536,4.9149,4.8117,4.7519,4.8147,4.7698,4.7339,4.7369,4.7339,4.7339,4.7369,4.7279,4.7249,4.7249,4.6621,4.5933,4.5244,4.4586,4.3958,4.329,4.3349,4.3349,4.329,4.3349,4.3349,4.329,4.329,4.329,4.329,4.329,4.326,4.32,4.2611,4.2381,4.2261,4.1602,4.1722,4.2201,4.1572,4.1722,4.2171,4.1632,4.1392,4.1362,4.1362,4.0876,4.0337,4.0337,3.9918,3.9373,3.9373,3.9858,4.0337,4.0337,3.9888,3.9709,4.0935,4.0337,3.9589,4.0187,3.9828,3.917,3.8512,3.8676,3.8675,3.8007,3.7339,3.6982,3.7273,3.595,3.5065,3.5697,3.5223,3.5211,3.6222,3.6377,3.669,3.7447,3.8049,3.8428,3.8428,3.8686,3.8743,3.8354,3.8088,3.8058,3.8277,3.7704,3.7404,3.7404,3.7404,3.7105,3.6477,3.6477,3.6148,3.5519,3.5519,3.5519,3.5519,3.5519,3.5519,3.5519,3.5519,3.5519,3.5519,3.5519,3.5519,3.5519,3.5519,3.5519,3.5519,4.7668,4.8207,4.8536,4.8117,4.8506,4.876,4.8147,4.8327,4.8327,4.7758,4.7818,4.7908,4.7908,4.7549,4.7459,4.7878,4.7549,4.7309,4.7309,4.707,4.6441,4.5334,4.4676,4.4197,4.3958,4.3917,4.3708,4.329,4.3708,4.3708,4.329,4.3708,4.3678,4.3319,4.4197,4.4107,4.329,4.3509,4.3329,4.291,4.2252,4.2171,4.2381,4.2111,4.2171,4.241,4.2551,4.2342,4.1961,4.1542,4.1205,4.0876,4.0038,4.0187,4.0636,4.0636,4.0816,4.0995,4.0995,4.0816,4.0756,4.1265,4.0995,4.0606,4.0427,4.0217,3.9828,3.917,3.934,3.9334,3.843,3.8409,3.8524,3.8458,3.7552,3.7064,3.7748,3.7401,3.7268,3.7671,3.8081,3.8428,3.8713,3.8965,3.9123,3.9123,3.9062,3.8835,3.8508,3.8341,3.8472,3.899,3.8781,3.8661,3.8661,3.8661,3.8332,3.7674,3.7255,3.6716,3.6088,3.5699,3.5519,3.5519,3.5519,3.5519,3.5519,3.5519,3.5519,3.5519,3.5519,3.5519,3.5519,3.5519,3.5519,3.5519,4.7309,4.7668,4.7848,4.7369,4.8207,4.876,4.8027,4.8686,4.906,4.8327,4.8267,4.8297,4.8297,4.7698,4.7489,4.7938,4.7578,4.7309,4.7309,4.7309,4.68,4.5663,4.5185,4.4736,4.4317,4.4526,4.4197,4.329,4.3947,4.3947,4.329,4.4018,4.4077,4.3648,4.4796,4.4796,4.3917,4.4197,4.4007,4.3559,4.294,4.283,4.294,4.2731,4.2791,4.3,4.324,4.303,4.2611,4.2132,4.1863,4.1572,4.0636,4.0816,4.1422,4.1422,4.1572,4.1722,4.1722,4.1833,4.1953,4.1782,4.1572,4.1324,4.1055,4.0696,4.0337,4.0098,3.9998,3.9849,3.9264,3.9256,3.9358,3.9324,3.867,3.8339,3.8901,3.8811,3.8591,3.8466,3.8874,3.9219,3.9346,3.9439,3.9533,3.9629,3.9559,3.9323,3.8987,3.8832,3.8931,3.9373,3.9373,3.9373,3.9373,3.9373,3.908,3.8392,3.7734,3.7075,3.6477,3.5818,3.5519,3.5519,3.5519,3.5519,3.5519,3.5519,3.5519,3.5519,3.5519,3.5519,3.5519,3.5519,3.5519,3.5519,4.7309,4.7309,4.7309,4.7309,4.7848,4.8506,4.9209,4.9299,4.9494,5.0106,4.9105,4.8297,4.8297,4.7698,4.7309,4.7309,4.7309,4.7309,4.7309,4.7309,4.701,4.6309,4.6279,4.5693,4.4347,4.4945,4.4646,4.329,4.3947,4.3947,4.329,4.4018,4.4317,4.4347,4.5005,4.5304,4.5244,4.4586,4.4317,4.4257,4.3559,4.3678,4.4227,4.3529,4.3708,4.4227,4.3529,4.329,4.329,4.329,4.291,4.241,4.241,4.1961,4.1384,4.1384,4.1901,4.241,4.241,4.2851,4.314,4.256,4.1931,4.1602,4.2261,4.1354,4.0606,4.1235,4.0667,4.0193,4.0794,3.9859,3.9222,3.9893,3.9137,3.8606,3.8963,3.9027,3.8835,3.8477,3.8444,3.8575,3.8995,3.9323,3.9658,3.9959,4.031,4.0366,4.0011,3.9619,3.9373,3.9373,3.9373,3.9373,3.9373,3.9373,3.908,3.8392,3.7734,3.7105,3.6477,3.5818,3.5519,3.5519,3.5519,3.5519,3.5519,3.5519,3.5519,3.5519,3.5519,3.5519,3.5519,3.5519,3.5519,3.5519,4.7309,4.7309,4.7309,4.7309,4.8237,4.876,4.7997,4.9464,5.0212,4.9015,4.9314,4.9314,4.8386,4.8117,4.7818,4.7339,4.7309,4.7309,4.7309,4.7309,4.7219,4.701,4.6112,4.5424,4.5005,4.4736,4.4197,4.329,4.3947,4.3947,4.3319,4.4466,4.4766,4.4377,4.5992,4.6172,4.5274,4.5095,4.4736,4.4257,4.3559,4.3409,4.3559,4.3379,4.3409,4.3559,4.3349,4.329,4.323,4.2791,4.2821,4.303,4.303,4.2581,4.2201,4.2611,4.288,4.303,4.303,4.314,4.326,4.309,4.288,4.2671,4.247,4.2081,4.1602,4.0846,4.0661,4.048,3.992,3.9985,4.006,3.999,3.9975,3.9924,4.0059,4.0059,4.0026,3.989,3.9859,3.9924,4.0059,4.0143,4.0266,4.0337,4.0209,3.998,3.9589,3.9445,3.9373,3.9373,3.9373,3.9373,3.9373,3.9373,3.932,3.911,3.8422,3.8003,3.7793,3.6686,3.6178,3.6178,3.5699,3.5519,3.5519,3.5519,3.5519,3.5519,3.5519,3.5519,3.5519,3.5519,3.5519,3.5519,4.7249,4.7309,4.7399,4.7638,4.8566,4.906,4.8207,4.9853,5.069,4.9254,4.9687,4.9897,4.9134,4.8596,4.8117,4.7728,4.7459,4.7309,4.7309,4.7549,4.7578,4.7309,4.6531,4.5843,4.5304,4.5424,4.4796,4.329,4.4257,4.4227,4.3319,4.4676,4.5095,4.4766,4.6531,4.686,4.6052,4.5514,4.5065,4.4616,4.3678,4.329,4.329,4.329,4.329,4.329,4.329,4.329,4.323,4.288,4.3,4.329,4.329,4.306,4.2821,4.317,4.329,4.329,4.329,4.329,4.329,4.329,4.329,4.32,4.2851,4.259,4.2261,4.1654,4.1122,4.0594,4.0254,4.013,4.0051,4.0011,4.0156,4.0296,4.0296,4.0296,4.0226,4.0086,4.0086,4.0121,4.0296,4.0156,4.0086,4.0086,3.9874,3.9691,3.9409,3.9373,3.9373,3.9373,3.9373,3.9373,3.9373,3.9373,3.9373,3.9373,3.8721,3.8392,3.8362,3.7315,3.6716,3.6477,3.6058,3.5908,3.5878,3.5609,3.5669,3.5878,3.5609,3.5519,3.5519,3.5519,3.5519,3.5519,4.7189,4.7309,4.7519,4.8177,4.882,4.9239,4.9299,5.0272,5.084,5.0255,5.0196,5.0196,5.0196,4.9134,4.8356,4.8297,4.7728,4.7399,4.7399,4.7997,4.8087,4.7429,4.7399,4.677,4.5424,4.6591,4.5992,4.3469,4.4706,4.4646,4.3409,4.4706,4.5304,4.5364,4.6711,4.7279,4.713,4.5843,4.5274,4.5095,4.3838,4.329,4.329,4.329,4.329,4.329,4.329,4.329,4.329,4.329,4.329,4.329,4.329,4.329,4.329,4.329,4.329,4.329,4.329,4.329,4.329,4.329,4.329,4.329,4.329,4.288,4.265,4.315,4.1833,4.0756,4.1294,4.0397,3.9697,4.0086,4.0122,4.0122,4.0122,4.0061,3.9894,3.9535,3.9469,3.9547,3.9965,3.9679,3.9433,3.9373,3.9373,3.9373,3.9373,3.9373,3.9373,3.9373,3.9373,3.9373,3.9373,3.9373,3.9373,3.9373,3.8781,3.8482,3.8452,3.7793,3.7195,3.6656,3.6596,3.6567,3.6507,3.5848,3.5938,3.6417,3.5759,3.5519,3.5519,3.5519,3.5549,3.5579,4.7279,4.7309,4.7519,4.8177,4.8416,4.8686,4.9239,4.9539,4.9823,5.0136,5.0196,5.0196,5.0196,4.9523,4.888,4.8327,4.8147,4.8087,4.8087,4.8686,4.8745,4.8087,4.8087,4.7459,4.6142,4.6381,4.5992,4.4855,4.5155,4.4885,4.4107,4.4915,4.5304,4.5364,4.6711,4.701,4.6429,4.5663,4.5005,4.4466,4.3618,4.329,4.329,4.329,4.329,4.329,4.329,4.329,4.329,4.329,4.329,4.329,4.329,4.329,4.329,4.329,4.329,4.329,4.329,4.329,4.329,4.329,4.329,4.329,4.329,4.32,4.303,4.2641,4.2261,4.1871,4.1444,4.1145,4.1003,4.1078,4.1115,4.1115,4.1115,4.0628,4.0297,4.0187,3.9738,3.9619,4.0237,4.0224,3.9978,3.9469,3.9373,3.9373,3.9373,3.9373,3.9373,3.9373,3.9373,3.9373,3.9373,3.9373,3.9373,3.9373,3.926,3.92,3.917,3.8482,3.8093,3.7943,3.7434,3.7195,3.7165,3.6537,3.6357,3.6417,3.5759,3.5519,3.5519,3.5519,3.5818,3.6267,4.7249,4.7309,4.7608,4.8566,4.879,4.8985,4.9613,4.9733,4.9853,5.0136,5.0196,5.0196,5.0196,4.9643,4.906,4.8356,4.8566,4.879,4.879,4.9374,4.9434,4.8775,4.879,4.8297,4.7279,4.6651,4.5992,4.5304,4.5304,4.4975,4.4317,4.4975,4.5304,4.5334,4.6381,4.683,4.6741,4.5723,4.5095,4.4706,4.3678,4.329,4.329,4.329,4.329,4.329,4.329,4.329,4.329,4.329,4.329,4.329,4.329,4.329,4.329,4.329,4.329,4.329,4.329,4.329,4.329,4.329,4.329,4.329,4.329,4.329,4.32,4.288,4.262,4.2291,4.1961,4.1632,4.1422,4.1422,4.1422,4.1265,4.0965,4.0606,4.0277,3.9978,3.9619,3.9679,4.0337,4.0696,4.0726,4.0367,4.0337,4.0337,4.0337,4.0337,4.0337,4.0337,4.0038,3.9888,3.9888,3.9589,3.9373,3.9373,3.9373,3.9373,3.9373,3.905,3.8691,3.8362,3.8033,3.7704,3.7375,3.6746,3.6477,3.6417,3.5759,3.5519,3.5522,3.5683,3.6237,3.7038,4.7189,4.7309,4.7728,4.909,4.9209,4.9404,5.0226,5.0166,5.0076,5.0196,5.0106,5.0016,5.0016,4.9583,4.909,4.8506,4.9045,4.9434,4.9434,5.0032,4.997,4.9148,4.9209,4.885,4.794,4.6745,4.5992,4.5633,4.5394,4.5065,4.4676,4.5214,4.5454,4.5514,4.6172,4.6741,4.707,4.5813,4.5214,4.5035,4.3768,4.329,4.329,4.329,4.329,4.329,4.329,4.329,4.329,4.329,4.329,4.329,4.329,4.329,4.3319,4.3439,4.3379,4.3319,4.3439,4.3379,4.329,4.329,4.329,4.329,4.329,4.329,4.329,4.329,4.291,4.256,4.256,4.2073,4.1713,4.1713,4.1713,4.1534,4.0965,4.0816,4.0487,3.9828,3.9738,3.9918,4.0367,4.1085,4.1542,4.1384,4.1422,4.1422,4.1422,4.1422,4.1422,4.1422,4.0756,4.0397,4.0397,3.9738,3.9373,3.9373,3.9373,3.9373,3.9373,3.9373,3.911,3.8571,3.8571,3.8182,3.7524,3.6896,3.6567,3.645,3.5824,3.5677,3.5862,3.6495,3.7307,3.8214,4.7279,4.7309,4.7728,4.909,4.8805,4.9015,5.081,5.0122,4.9613,5.0106,4.9763,4.9449,4.9449,4.9359,4.9269,4.9179,4.9733,5.0076,5.0076,5.0674,5.0262,4.8416,4.8983,4.8417,4.6549,4.5815,4.5963,4.704,4.5873,4.5544,4.601,4.6142,4.613,4.6202,4.689,4.689,4.6411,4.5633,4.4975,4.4377,4.3589,4.329,4.329,4.329,4.329,4.329,4.329,4.329,4.329,4.329,4.329,4.329,4.329,4.329,4.3409,4.3977,4.3738,4.3409,4.3977,4.3738,4.329,4.329,4.329,4.329,4.329,4.329,4.329,4.329,4.323,4.317,4.317,4.308,4.3021,4.3021,4.3021,4.2991,4.2901,4.2462,4.1901,4.1205,4.1115,4.0935,4.0457,4.1542,4.2021,4.1452,4.1422,4.1422,4.1422,4.1422,4.1422,4.1422,4.0756,4.0397,4.0397,3.9738,3.9373,3.9373,3.9373,3.9373,3.9373,3.9373,3.9343,3.9254,3.9254,3.8901,3.8212,3.7554,3.6956,3.645,3.6086,3.6305,3.704,3.899,4.0039,4.0514,4.7309,4.7309,4.7608,4.8566,4.8476,4.8835,5.0375,4.9883,4.9494,5.0106,4.9673,4.9179,4.8745,4.909,4.9404,4.9763,5.0421,5.0734,5.0734,5.105,5.0602,4.9256,4.9558,4.8981,4.7307,4.668,4.6711,4.7309,4.5963,4.5454,4.5753,4.5753,4.5753,4.5753,4.6052,4.6232,4.6249,4.5574,4.4915,4.4257,4.3559,4.329,4.329,4.329,4.329,4.329,4.329,4.329,4.329,4.329,4.329,4.3349,4.3738,4.3858,4.4018,4.4676,4.4407,4.3917,4.4227,4.3798,4.329,4.329,4.329,4.329,4.329,4.329,4.329,4.329,4.329,4.329,4.329,4.329,4.329,4.329,4.329,4.317,4.2851,4.259,4.2141,4.1482,4.1422,4.1452,4.1542,4.2342,4.2791,4.2491,4.2462,4.2462,4.2462,4.2462,4.2462,4.2462,4.1833,4.1542,4.1542,4.0846,4.0337,3.9978,3.9978,3.9768,3.9373,3.9373,3.9373,3.9373,3.9373,3.902,3.8362,3.8063,3.7375,3.648,3.6345,3.6669,3.7552,3.9628,4.07,4.124]}]]